<?xml version="1.0" encoding="UTF-8" standalone="no" ?>
<gpx xmlns="http://www.topografix.com/GPX/1/1" xmlns:xsi="http://www.w3.org/2001/XMLSchema-instance" xsi:schemaLocation="http://www.topografix.com/GPX/1/1 http://www.topografix.com/GPX/1/1/gpx.xsd" version="1.1" creator="VisuGPX - https://www.visugpx.com">
  <metadata>
    <name>Course à pied le midi</name>
  </metadata>
  <trk>
    <name><![CDATA[Course à pied le midi_1]]></name>
    <trkseg>
      <trkpt lat="43.64752" lon="1.37642">
        <ele>155</ele>
        <time>2024-02-11T10:24:27Z</time>
      </trkpt>
      <trkpt lat="43.64752" lon="1.37642">
        <ele>155</ele>
        <time>2024-02-11T10:24:28Z</time>
      </trkpt>
      <trkpt lat="43.64752" lon="1.37642">
        <ele>155</ele>
        <time>2024-02-11T10:24:29Z</time>
      </trkpt>
      <trkpt lat="43.64751" lon="1.37645">
        <ele>154</ele>
        <time>2024-02-11T10:24:30Z</time>
      </trkpt>
      <trkpt lat="43.64751" lon="1.37645">
        <ele>153</ele>
        <time>2024-02-11T10:24:31Z</time>
      </trkpt>
      <trkpt lat="43.64751" lon="1.37645">
        <ele>153</ele>
        <time>2024-02-11T10:24:32Z</time>
      </trkpt>
      <trkpt lat="43.64749" lon="1.37648">
        <ele>153</ele>
        <time>2024-02-11T10:24:33Z</time>
      </trkpt>
      <trkpt lat="43.64749" lon="1.37648">
        <ele>154</ele>
        <time>2024-02-11T10:24:34Z</time>
      </trkpt>
      <trkpt lat="43.64748" lon="1.3765">
        <ele>154</ele>
        <time>2024-02-11T10:24:35Z</time>
      </trkpt>
      <trkpt lat="43.64748" lon="1.3765">
        <ele>154</ele>
        <time>2024-02-11T10:24:36Z</time>
      </trkpt>
      <trkpt lat="43.64748" lon="1.3765">
        <ele>153</ele>
        <time>2024-02-11T10:24:37Z</time>
      </trkpt>
      <trkpt lat="43.64746" lon="1.37652">
        <ele>153</ele>
        <time>2024-02-11T10:24:38Z</time>
      </trkpt>
      <trkpt lat="43.64746" lon="1.37652">
        <ele>153</ele>
        <time>2024-02-11T10:24:39Z</time>
      </trkpt>
      <trkpt lat="43.64744" lon="1.37653">
        <ele>153</ele>
        <time>2024-02-11T10:24:40Z</time>
      </trkpt>
      <trkpt lat="43.64744" lon="1.37653">
        <ele>153</ele>
        <time>2024-02-11T10:24:41Z</time>
      </trkpt>
      <trkpt lat="43.64742" lon="1.37656">
        <ele>153</ele>
        <time>2024-02-11T10:24:42Z</time>
      </trkpt>
      <trkpt lat="43.64741" lon="1.37657">
        <ele>153</ele>
        <time>2024-02-11T10:24:43Z</time>
      </trkpt>
      <trkpt lat="43.64739" lon="1.37659">
        <ele>153</ele>
        <time>2024-02-11T10:24:44Z</time>
      </trkpt>
      <trkpt lat="43.64739" lon="1.37659">
        <ele>153</ele>
        <time>2024-02-11T10:24:45Z</time>
      </trkpt>
      <trkpt lat="43.64736" lon="1.37663">
        <ele>153</ele>
        <time>2024-02-11T10:24:46Z</time>
      </trkpt>
      <trkpt lat="43.64734" lon="1.37665">
        <ele>153</ele>
        <time>2024-02-11T10:24:47Z</time>
      </trkpt>
      <trkpt lat="43.64732" lon="1.37666">
        <ele>153</ele>
        <time>2024-02-11T10:24:48Z</time>
      </trkpt>
      <trkpt lat="43.6473" lon="1.37668">
        <ele>152</ele>
        <time>2024-02-11T10:24:49Z</time>
      </trkpt>
      <trkpt lat="43.64728" lon="1.3767">
        <ele>152</ele>
        <time>2024-02-11T10:24:50Z</time>
      </trkpt>
      <trkpt lat="43.64726" lon="1.37672">
        <ele>152</ele>
        <time>2024-02-11T10:24:51Z</time>
      </trkpt>
      <trkpt lat="43.64724" lon="1.37675">
        <ele>152</ele>
        <time>2024-02-11T10:24:52Z</time>
      </trkpt>
      <trkpt lat="43.64722" lon="1.37676">
        <ele>152</ele>
        <time>2024-02-11T10:24:53Z</time>
      </trkpt>
      <trkpt lat="43.6472" lon="1.37678">
        <ele>152</ele>
        <time>2024-02-11T10:24:54Z</time>
      </trkpt>
      <trkpt lat="43.64717" lon="1.3768">
        <ele>153</ele>
        <time>2024-02-11T10:24:55Z</time>
      </trkpt>
      <trkpt lat="43.64714" lon="1.37681">
        <ele>153</ele>
        <time>2024-02-11T10:24:56Z</time>
      </trkpt>
      <trkpt lat="43.64712" lon="1.37681">
        <ele>153</ele>
        <time>2024-02-11T10:24:57Z</time>
      </trkpt>
      <trkpt lat="43.6471" lon="1.37683">
        <ele>153</ele>
        <time>2024-02-11T10:24:58Z</time>
      </trkpt>
      <trkpt lat="43.64708" lon="1.37684">
        <ele>153</ele>
        <time>2024-02-11T10:24:59Z</time>
      </trkpt>
      <trkpt lat="43.64705" lon="1.37685">
        <ele>152</ele>
        <time>2024-02-11T10:25:00Z</time>
      </trkpt>
      <trkpt lat="43.64702" lon="1.37685">
        <ele>151</ele>
        <time>2024-02-11T10:25:01Z</time>
      </trkpt>
      <trkpt lat="43.64699" lon="1.37686">
        <ele>152</ele>
        <time>2024-02-11T10:25:02Z</time>
      </trkpt>
      <trkpt lat="43.64697" lon="1.37686">
        <ele>152</ele>
        <time>2024-02-11T10:25:03Z</time>
      </trkpt>
      <trkpt lat="43.64694" lon="1.37686">
        <ele>152</ele>
        <time>2024-02-11T10:25:04Z</time>
      </trkpt>
      <trkpt lat="43.64691" lon="1.37686">
        <ele>152</ele>
        <time>2024-02-11T10:25:05Z</time>
      </trkpt>
      <trkpt lat="43.64689" lon="1.37685">
        <ele>152</ele>
        <time>2024-02-11T10:25:06Z</time>
      </trkpt>
      <trkpt lat="43.64685" lon="1.37684">
        <ele>152</ele>
        <time>2024-02-11T10:25:07Z</time>
      </trkpt>
      <trkpt lat="43.6468" lon="1.37682">
        <ele>152</ele>
        <time>2024-02-11T10:25:08Z</time>
      </trkpt>
      <trkpt lat="43.64678" lon="1.37681">
        <ele>152</ele>
        <time>2024-02-11T10:25:09Z</time>
      </trkpt>
      <trkpt lat="43.64674" lon="1.3768">
        <ele>152</ele>
        <time>2024-02-11T10:25:10Z</time>
      </trkpt>
      <trkpt lat="43.64672" lon="1.3768">
        <ele>152</ele>
        <time>2024-02-11T10:25:11Z</time>
      </trkpt>
      <trkpt lat="43.6467" lon="1.37681">
        <ele>153</ele>
        <time>2024-02-11T10:25:12Z</time>
      </trkpt>
      <trkpt lat="43.64668" lon="1.37681">
        <ele>153</ele>
        <time>2024-02-11T10:25:13Z</time>
      </trkpt>
      <trkpt lat="43.64666" lon="1.37682">
        <ele>153</ele>
        <time>2024-02-11T10:25:14Z</time>
      </trkpt>
      <trkpt lat="43.64663" lon="1.37683">
        <ele>153</ele>
        <time>2024-02-11T10:25:15Z</time>
      </trkpt>
      <trkpt lat="43.64661" lon="1.37683">
        <ele>153</ele>
        <time>2024-02-11T10:25:16Z</time>
      </trkpt>
      <trkpt lat="43.64657" lon="1.37682">
        <ele>152</ele>
        <time>2024-02-11T10:25:17Z</time>
      </trkpt>
      <trkpt lat="43.64653" lon="1.37681">
        <ele>152</ele>
        <time>2024-02-11T10:25:18Z</time>
      </trkpt>
      <trkpt lat="43.64652" lon="1.37681">
        <ele>152</ele>
        <time>2024-02-11T10:25:19Z</time>
      </trkpt>
      <trkpt lat="43.64649" lon="1.37681">
        <ele>152</ele>
        <time>2024-02-11T10:25:20Z</time>
      </trkpt>
      <trkpt lat="43.64648" lon="1.37681">
        <ele>152</ele>
        <time>2024-02-11T10:25:21Z</time>
      </trkpt>
      <trkpt lat="43.64646" lon="1.37681">
        <ele>152</ele>
        <time>2024-02-11T10:25:22Z</time>
      </trkpt>
      <trkpt lat="43.64644" lon="1.37681">
        <ele>152</ele>
        <time>2024-02-11T10:25:23Z</time>
      </trkpt>
      <trkpt lat="43.64641" lon="1.37682">
        <ele>152</ele>
        <time>2024-02-11T10:25:24Z</time>
      </trkpt>
      <trkpt lat="43.64641" lon="1.37682">
        <ele>152</ele>
        <time>2024-02-11T10:25:25Z</time>
      </trkpt>
      <trkpt lat="43.64638" lon="1.37684">
        <ele>152</ele>
        <time>2024-02-11T10:25:26Z</time>
      </trkpt>
      <trkpt lat="43.64635" lon="1.37684">
        <ele>152</ele>
        <time>2024-02-11T10:25:27Z</time>
      </trkpt>
      <trkpt lat="43.64633" lon="1.37684">
        <ele>152</ele>
        <time>2024-02-11T10:25:28Z</time>
      </trkpt>
      <trkpt lat="43.6463" lon="1.37684">
        <ele>152</ele>
        <time>2024-02-11T10:25:29Z</time>
      </trkpt>
      <trkpt lat="43.64627" lon="1.37684">
        <ele>152</ele>
        <time>2024-02-11T10:25:30Z</time>
      </trkpt>
      <trkpt lat="43.64625" lon="1.37685">
        <ele>152</ele>
        <time>2024-02-11T10:25:31Z</time>
      </trkpt>
      <trkpt lat="43.64621" lon="1.37685">
        <ele>152</ele>
        <time>2024-02-11T10:25:32Z</time>
      </trkpt>
      <trkpt lat="43.64619" lon="1.37685">
        <ele>152</ele>
        <time>2024-02-11T10:25:33Z</time>
      </trkpt>
      <trkpt lat="43.64617" lon="1.37686">
        <ele>152</ele>
        <time>2024-02-11T10:25:34Z</time>
      </trkpt>
      <trkpt lat="43.64614" lon="1.37686">
        <ele>152</ele>
        <time>2024-02-11T10:25:35Z</time>
      </trkpt>
      <trkpt lat="43.64612" lon="1.37686">
        <ele>152</ele>
        <time>2024-02-11T10:25:36Z</time>
      </trkpt>
      <trkpt lat="43.64609" lon="1.37686">
        <ele>152</ele>
        <time>2024-02-11T10:25:37Z</time>
      </trkpt>
      <trkpt lat="43.64607" lon="1.37687">
        <ele>152</ele>
        <time>2024-02-11T10:25:38Z</time>
      </trkpt>
      <trkpt lat="43.64605" lon="1.37687">
        <ele>152</ele>
        <time>2024-02-11T10:25:39Z</time>
      </trkpt>
      <trkpt lat="43.64603" lon="1.37687">
        <ele>153</ele>
        <time>2024-02-11T10:25:40Z</time>
      </trkpt>
      <trkpt lat="43.64601" lon="1.37687">
        <ele>153</ele>
        <time>2024-02-11T10:25:41Z</time>
      </trkpt>
      <trkpt lat="43.64598" lon="1.37687">
        <ele>154</ele>
        <time>2024-02-11T10:25:42Z</time>
      </trkpt>
      <trkpt lat="43.64596" lon="1.37687">
        <ele>154</ele>
        <time>2024-02-11T10:25:43Z</time>
      </trkpt>
      <trkpt lat="43.64596" lon="1.37687">
        <ele>154</ele>
        <time>2024-02-11T10:25:44Z</time>
      </trkpt>
      <trkpt lat="43.64594" lon="1.37687">
        <ele>154</ele>
        <time>2024-02-11T10:25:45Z</time>
      </trkpt>
      <trkpt lat="43.64592" lon="1.37687">
        <ele>154</ele>
        <time>2024-02-11T10:25:46Z</time>
      </trkpt>
      <trkpt lat="43.64591" lon="1.37686">
        <ele>153</ele>
        <time>2024-02-11T10:25:47Z</time>
      </trkpt>
      <trkpt lat="43.6459" lon="1.37685">
        <ele>153</ele>
        <time>2024-02-11T10:25:48Z</time>
      </trkpt>
      <trkpt lat="43.6459" lon="1.37685">
        <ele>154</ele>
        <time>2024-02-11T10:25:49Z</time>
      </trkpt>
      <trkpt lat="43.64587" lon="1.37684">
        <ele>154</ele>
        <time>2024-02-11T10:25:50Z</time>
      </trkpt>
      <trkpt lat="43.64585" lon="1.37683">
        <ele>154</ele>
        <time>2024-02-11T10:25:51Z</time>
      </trkpt>
      <trkpt lat="43.64583" lon="1.37682">
        <ele>153</ele>
        <time>2024-02-11T10:25:52Z</time>
      </trkpt>
      <trkpt lat="43.64583" lon="1.37682">
        <ele>153</ele>
        <time>2024-02-11T10:25:53Z</time>
      </trkpt>
      <trkpt lat="43.64578" lon="1.3768">
        <ele>153</ele>
        <time>2024-02-11T10:25:54Z</time>
      </trkpt>
      <trkpt lat="43.64577" lon="1.37679">
        <ele>154</ele>
        <time>2024-02-11T10:25:55Z</time>
      </trkpt>
      <trkpt lat="43.64577" lon="1.37679">
        <ele>154</ele>
        <time>2024-02-11T10:25:56Z</time>
      </trkpt>
      <trkpt lat="43.64574" lon="1.37676">
        <ele>154</ele>
        <time>2024-02-11T10:25:57Z</time>
      </trkpt>
      <trkpt lat="43.64573" lon="1.37676">
        <ele>153</ele>
        <time>2024-02-11T10:25:58Z</time>
      </trkpt>
      <trkpt lat="43.64573" lon="1.37676">
        <ele>154</ele>
        <time>2024-02-11T10:25:59Z</time>
      </trkpt>
      <trkpt lat="43.64568" lon="1.37674">
        <ele>155</ele>
        <time>2024-02-11T10:26:00Z</time>
      </trkpt>
      <trkpt lat="43.64567" lon="1.37674">
        <ele>155</ele>
        <time>2024-02-11T10:26:01Z</time>
      </trkpt>
      <trkpt lat="43.64565" lon="1.37673">
        <ele>155</ele>
        <time>2024-02-11T10:26:02Z</time>
      </trkpt>
      <trkpt lat="43.64563" lon="1.37672">
        <ele>154</ele>
        <time>2024-02-11T10:26:03Z</time>
      </trkpt>
      <trkpt lat="43.64561" lon="1.37671">
        <ele>154</ele>
        <time>2024-02-11T10:26:04Z</time>
      </trkpt>
      <trkpt lat="43.64559" lon="1.37671">
        <ele>154</ele>
        <time>2024-02-11T10:26:05Z</time>
      </trkpt>
      <trkpt lat="43.64556" lon="1.3767">
        <ele>154</ele>
        <time>2024-02-11T10:26:06Z</time>
      </trkpt>
      <trkpt lat="43.64551" lon="1.37669">
        <ele>154</ele>
        <time>2024-02-11T10:26:07Z</time>
      </trkpt>
      <trkpt lat="43.6455" lon="1.37668">
        <ele>154</ele>
        <time>2024-02-11T10:26:08Z</time>
      </trkpt>
      <trkpt lat="43.64547" lon="1.37668">
        <ele>154</ele>
        <time>2024-02-11T10:26:09Z</time>
      </trkpt>
      <trkpt lat="43.64543" lon="1.37667">
        <ele>154</ele>
        <time>2024-02-11T10:26:10Z</time>
      </trkpt>
      <trkpt lat="43.64543" lon="1.37667">
        <ele>154</ele>
        <time>2024-02-11T10:26:11Z</time>
      </trkpt>
      <trkpt lat="43.64543" lon="1.37667">
        <ele>153</ele>
        <time>2024-02-11T10:26:12Z</time>
      </trkpt>
      <trkpt lat="43.64543" lon="1.37667">
        <ele>153</ele>
        <time>2024-02-11T10:26:13Z</time>
      </trkpt>
      <trkpt lat="43.64543" lon="1.37667">
        <ele>152</ele>
        <time>2024-02-11T10:26:14Z</time>
      </trkpt>
      <trkpt lat="43.64543" lon="1.37667">
        <ele>152</ele>
        <time>2024-02-11T10:26:15Z</time>
      </trkpt>
      <trkpt lat="43.64543" lon="1.37667">
        <ele>152</ele>
        <time>2024-02-11T10:26:16Z</time>
      </trkpt>
      <trkpt lat="43.64543" lon="1.37667">
        <ele>151</ele>
        <time>2024-02-11T10:26:17Z</time>
      </trkpt>
      <trkpt lat="43.64543" lon="1.37667">
        <ele>151</ele>
        <time>2024-02-11T10:26:18Z</time>
      </trkpt>
      <trkpt lat="43.64543" lon="1.37667">
        <ele>151</ele>
        <time>2024-02-11T10:26:19Z</time>
      </trkpt>
      <trkpt lat="43.64543" lon="1.37667">
        <ele>151</ele>
        <time>2024-02-11T10:26:20Z</time>
      </trkpt>
      <trkpt lat="43.64543" lon="1.37667">
        <ele>151</ele>
        <time>2024-02-11T10:26:21Z</time>
      </trkpt>
      <trkpt lat="43.64545" lon="1.37665">
        <ele>151</ele>
        <time>2024-02-11T10:26:22Z</time>
      </trkpt>
      <trkpt lat="43.64545" lon="1.37665">
        <ele>151</ele>
        <time>2024-02-11T10:26:23Z</time>
      </trkpt>
      <trkpt lat="43.64544" lon="1.37665">
        <ele>151</ele>
        <time>2024-02-11T10:26:24Z</time>
      </trkpt>
      <trkpt lat="43.64543" lon="1.37665">
        <ele>151</ele>
        <time>2024-02-11T10:26:25Z</time>
      </trkpt>
      <trkpt lat="43.64541" lon="1.37664">
        <ele>152</ele>
        <time>2024-02-11T10:26:26Z</time>
      </trkpt>
      <trkpt lat="43.6454" lon="1.37664">
        <ele>152</ele>
        <time>2024-02-11T10:26:27Z</time>
      </trkpt>
      <trkpt lat="43.64539" lon="1.37664">
        <ele>152</ele>
        <time>2024-02-11T10:26:28Z</time>
      </trkpt>
      <trkpt lat="43.64537" lon="1.37664">
        <ele>153</ele>
        <time>2024-02-11T10:26:29Z</time>
      </trkpt>
      <trkpt lat="43.64535" lon="1.37665">
        <ele>153</ele>
        <time>2024-02-11T10:26:30Z</time>
      </trkpt>
      <trkpt lat="43.64535" lon="1.37665">
        <ele>153</ele>
        <time>2024-02-11T10:26:31Z</time>
      </trkpt>
      <trkpt lat="43.6453" lon="1.37667">
        <ele>152</ele>
        <time>2024-02-11T10:26:32Z</time>
      </trkpt>
      <trkpt lat="43.64529" lon="1.37668">
        <ele>152</ele>
        <time>2024-02-11T10:26:33Z</time>
      </trkpt>
      <trkpt lat="43.64527" lon="1.37669">
        <ele>152</ele>
        <time>2024-02-11T10:26:34Z</time>
      </trkpt>
      <trkpt lat="43.64525" lon="1.3767">
        <ele>152</ele>
        <time>2024-02-11T10:26:35Z</time>
      </trkpt>
      <trkpt lat="43.64522" lon="1.37673">
        <ele>152</ele>
        <time>2024-02-11T10:26:36Z</time>
      </trkpt>
      <trkpt lat="43.64519" lon="1.37675">
        <ele>152</ele>
        <time>2024-02-11T10:26:37Z</time>
      </trkpt>
      <trkpt lat="43.64517" lon="1.37677">
        <ele>152</ele>
        <time>2024-02-11T10:26:38Z</time>
      </trkpt>
      <trkpt lat="43.64516" lon="1.37679">
        <ele>152</ele>
        <time>2024-02-11T10:26:39Z</time>
      </trkpt>
      <trkpt lat="43.64515" lon="1.37682">
        <ele>152</ele>
        <time>2024-02-11T10:26:40Z</time>
      </trkpt>
      <trkpt lat="43.64514" lon="1.37685">
        <ele>153</ele>
        <time>2024-02-11T10:26:41Z</time>
      </trkpt>
      <trkpt lat="43.64512" lon="1.37688">
        <ele>153</ele>
        <time>2024-02-11T10:26:42Z</time>
      </trkpt>
      <trkpt lat="43.64511" lon="1.37691">
        <ele>153</ele>
        <time>2024-02-11T10:26:43Z</time>
      </trkpt>
      <trkpt lat="43.6451" lon="1.37694">
        <ele>153</ele>
        <time>2024-02-11T10:26:44Z</time>
      </trkpt>
      <trkpt lat="43.64507" lon="1.37698">
        <ele>153</ele>
        <time>2024-02-11T10:26:45Z</time>
      </trkpt>
      <trkpt lat="43.64507" lon="1.37699">
        <ele>152</ele>
        <time>2024-02-11T10:26:46Z</time>
      </trkpt>
      <trkpt lat="43.64507" lon="1.37701">
        <ele>152</ele>
        <time>2024-02-11T10:26:47Z</time>
      </trkpt>
      <trkpt lat="43.64506" lon="1.37704">
        <ele>152</ele>
        <time>2024-02-11T10:26:48Z</time>
      </trkpt>
      <trkpt lat="43.64506" lon="1.37704">
        <ele>151</ele>
        <time>2024-02-11T10:26:49Z</time>
      </trkpt>
      <trkpt lat="43.64505" lon="1.37708">
        <ele>151</ele>
        <time>2024-02-11T10:26:50Z</time>
      </trkpt>
      <trkpt lat="43.64504" lon="1.37711">
        <ele>152</ele>
        <time>2024-02-11T10:26:51Z</time>
      </trkpt>
      <trkpt lat="43.64503" lon="1.37714">
        <ele>152</ele>
        <time>2024-02-11T10:26:52Z</time>
      </trkpt>
      <trkpt lat="43.64501" lon="1.37717">
        <ele>152</ele>
        <time>2024-02-11T10:26:53Z</time>
      </trkpt>
      <trkpt lat="43.645" lon="1.3772">
        <ele>151</ele>
        <time>2024-02-11T10:26:54Z</time>
      </trkpt>
      <trkpt lat="43.64499" lon="1.37723">
        <ele>151</ele>
        <time>2024-02-11T10:26:55Z</time>
      </trkpt>
      <trkpt lat="43.64498" lon="1.37725">
        <ele>152</ele>
        <time>2024-02-11T10:26:56Z</time>
      </trkpt>
      <trkpt lat="43.64496" lon="1.37728">
        <ele>152</ele>
        <time>2024-02-11T10:26:57Z</time>
      </trkpt>
      <trkpt lat="43.64494" lon="1.37731">
        <ele>152</ele>
        <time>2024-02-11T10:26:58Z</time>
      </trkpt>
      <trkpt lat="43.64493" lon="1.37733">
        <ele>152</ele>
        <time>2024-02-11T10:26:59Z</time>
      </trkpt>
      <trkpt lat="43.64492" lon="1.37736">
        <ele>152</ele>
        <time>2024-02-11T10:27:00Z</time>
      </trkpt>
      <trkpt lat="43.64492" lon="1.37736">
        <ele>151</ele>
        <time>2024-02-11T10:27:01Z</time>
      </trkpt>
      <trkpt lat="43.64492" lon="1.37741">
        <ele>151</ele>
        <time>2024-02-11T10:27:02Z</time>
      </trkpt>
      <trkpt lat="43.64492" lon="1.37741">
        <ele>151</ele>
        <time>2024-02-11T10:27:03Z</time>
      </trkpt>
      <trkpt lat="43.64491" lon="1.37744">
        <ele>152</ele>
        <time>2024-02-11T10:27:04Z</time>
      </trkpt>
      <trkpt lat="43.6449" lon="1.37747">
        <ele>152</ele>
        <time>2024-02-11T10:27:05Z</time>
      </trkpt>
      <trkpt lat="43.64489" lon="1.3775">
        <ele>152</ele>
        <time>2024-02-11T10:27:06Z</time>
      </trkpt>
      <trkpt lat="43.64488" lon="1.37753">
        <ele>152</ele>
        <time>2024-02-11T10:27:07Z</time>
      </trkpt>
      <trkpt lat="43.64486" lon="1.37758">
        <ele>152</ele>
        <time>2024-02-11T10:27:08Z</time>
      </trkpt>
      <trkpt lat="43.64485" lon="1.37761">
        <ele>152</ele>
        <time>2024-02-11T10:27:09Z</time>
      </trkpt>
      <trkpt lat="43.64484" lon="1.37764">
        <ele>152</ele>
        <time>2024-02-11T10:27:10Z</time>
      </trkpt>
      <trkpt lat="43.64482" lon="1.37768">
        <ele>152</ele>
        <time>2024-02-11T10:27:11Z</time>
      </trkpt>
      <trkpt lat="43.6448" lon="1.37771">
        <ele>152</ele>
        <time>2024-02-11T10:27:12Z</time>
      </trkpt>
      <trkpt lat="43.64479" lon="1.37774">
        <ele>152</ele>
        <time>2024-02-11T10:27:13Z</time>
      </trkpt>
      <trkpt lat="43.64478" lon="1.37778">
        <ele>152</ele>
        <time>2024-02-11T10:27:14Z</time>
      </trkpt>
      <trkpt lat="43.64477" lon="1.37781">
        <ele>152</ele>
        <time>2024-02-11T10:27:15Z</time>
      </trkpt>
      <trkpt lat="43.64476" lon="1.37784">
        <ele>152</ele>
        <time>2024-02-11T10:27:16Z</time>
      </trkpt>
      <trkpt lat="43.64475" lon="1.37787">
        <ele>152</ele>
        <time>2024-02-11T10:27:17Z</time>
      </trkpt>
      <trkpt lat="43.64474" lon="1.3779">
        <ele>152</ele>
        <time>2024-02-11T10:27:18Z</time>
      </trkpt>
      <trkpt lat="43.64473" lon="1.37793">
        <ele>152</ele>
        <time>2024-02-11T10:27:19Z</time>
      </trkpt>
      <trkpt lat="43.64472" lon="1.37795">
        <ele>151</ele>
        <time>2024-02-11T10:27:20Z</time>
      </trkpt>
      <trkpt lat="43.6447" lon="1.378">
        <ele>151</ele>
        <time>2024-02-11T10:27:21Z</time>
      </trkpt>
      <trkpt lat="43.6447" lon="1.37802">
        <ele>151</ele>
        <time>2024-02-11T10:27:22Z</time>
      </trkpt>
      <trkpt lat="43.64469" lon="1.37805">
        <ele>151</ele>
        <time>2024-02-11T10:27:23Z</time>
      </trkpt>
      <trkpt lat="43.64467" lon="1.37811">
        <ele>151</ele>
        <time>2024-02-11T10:27:24Z</time>
      </trkpt>
      <trkpt lat="43.64467" lon="1.37812">
        <ele>151</ele>
        <time>2024-02-11T10:27:25Z</time>
      </trkpt>
      <trkpt lat="43.64466" lon="1.37816">
        <ele>152</ele>
        <time>2024-02-11T10:27:26Z</time>
      </trkpt>
      <trkpt lat="43.64465" lon="1.37821">
        <ele>152</ele>
        <time>2024-02-11T10:27:27Z</time>
      </trkpt>
      <trkpt lat="43.64464" lon="1.37823">
        <ele>152</ele>
        <time>2024-02-11T10:27:28Z</time>
      </trkpt>
      <trkpt lat="43.64464" lon="1.37826">
        <ele>152</ele>
        <time>2024-02-11T10:27:29Z</time>
      </trkpt>
      <trkpt lat="43.64463" lon="1.37829">
        <ele>152</ele>
        <time>2024-02-11T10:27:30Z</time>
      </trkpt>
      <trkpt lat="43.64463" lon="1.37832">
        <ele>153</ele>
        <time>2024-02-11T10:27:31Z</time>
      </trkpt>
      <trkpt lat="43.64462" lon="1.37835">
        <ele>153</ele>
        <time>2024-02-11T10:27:32Z</time>
      </trkpt>
      <trkpt lat="43.64461" lon="1.37838">
        <ele>152</ele>
        <time>2024-02-11T10:27:33Z</time>
      </trkpt>
      <trkpt lat="43.64461" lon="1.37841">
        <ele>152</ele>
        <time>2024-02-11T10:27:34Z</time>
      </trkpt>
      <trkpt lat="43.64462" lon="1.37845">
        <ele>152</ele>
        <time>2024-02-11T10:27:35Z</time>
      </trkpt>
      <trkpt lat="43.64463" lon="1.37848">
        <ele>152</ele>
        <time>2024-02-11T10:27:36Z</time>
      </trkpt>
      <trkpt lat="43.64465" lon="1.3785">
        <ele>152</ele>
        <time>2024-02-11T10:27:37Z</time>
      </trkpt>
      <trkpt lat="43.64467" lon="1.37853">
        <ele>152</ele>
        <time>2024-02-11T10:27:38Z</time>
      </trkpt>
      <trkpt lat="43.64469" lon="1.37855">
        <ele>152</ele>
        <time>2024-02-11T10:27:39Z</time>
      </trkpt>
      <trkpt lat="43.6447" lon="1.37858">
        <ele>151</ele>
        <time>2024-02-11T10:27:40Z</time>
      </trkpt>
      <trkpt lat="43.64472" lon="1.3786">
        <ele>151</ele>
        <time>2024-02-11T10:27:41Z</time>
      </trkpt>
      <trkpt lat="43.64472" lon="1.37864">
        <ele>151</ele>
        <time>2024-02-11T10:27:42Z</time>
      </trkpt>
      <trkpt lat="43.64473" lon="1.37868">
        <ele>151</ele>
        <time>2024-02-11T10:27:43Z</time>
      </trkpt>
      <trkpt lat="43.64472" lon="1.37872">
        <ele>150</ele>
        <time>2024-02-11T10:27:44Z</time>
      </trkpt>
      <trkpt lat="43.64472" lon="1.37876">
        <ele>150</ele>
        <time>2024-02-11T10:27:45Z</time>
      </trkpt>
      <trkpt lat="43.6447" lon="1.3788">
        <ele>150</ele>
        <time>2024-02-11T10:27:46Z</time>
      </trkpt>
      <trkpt lat="43.64469" lon="1.37883">
        <ele>150</ele>
        <time>2024-02-11T10:27:47Z</time>
      </trkpt>
      <trkpt lat="43.64468" lon="1.37887">
        <ele>150</ele>
        <time>2024-02-11T10:27:48Z</time>
      </trkpt>
      <trkpt lat="43.64467" lon="1.37891">
        <ele>150</ele>
        <time>2024-02-11T10:27:49Z</time>
      </trkpt>
      <trkpt lat="43.64466" lon="1.37894">
        <ele>150</ele>
        <time>2024-02-11T10:27:50Z</time>
      </trkpt>
      <trkpt lat="43.64465" lon="1.37897">
        <ele>150</ele>
        <time>2024-02-11T10:27:51Z</time>
      </trkpt>
      <trkpt lat="43.64464" lon="1.379">
        <ele>150</ele>
        <time>2024-02-11T10:27:52Z</time>
      </trkpt>
      <trkpt lat="43.64464" lon="1.37903">
        <ele>150</ele>
        <time>2024-02-11T10:27:53Z</time>
      </trkpt>
      <trkpt lat="43.64464" lon="1.37906">
        <ele>150</ele>
        <time>2024-02-11T10:27:54Z</time>
      </trkpt>
      <trkpt lat="43.64463" lon="1.37909">
        <ele>150</ele>
        <time>2024-02-11T10:27:55Z</time>
      </trkpt>
      <trkpt lat="43.64463" lon="1.37913">
        <ele>150</ele>
        <time>2024-02-11T10:27:56Z</time>
      </trkpt>
      <trkpt lat="43.64462" lon="1.37917">
        <ele>150</ele>
        <time>2024-02-11T10:27:57Z</time>
      </trkpt>
      <trkpt lat="43.64462" lon="1.3792">
        <ele>150</ele>
        <time>2024-02-11T10:27:58Z</time>
      </trkpt>
      <trkpt lat="43.64462" lon="1.3792">
        <ele>150</ele>
        <time>2024-02-11T10:27:59Z</time>
      </trkpt>
      <trkpt lat="43.64464" lon="1.37924">
        <ele>150</ele>
        <time>2024-02-11T10:28:00Z</time>
      </trkpt>
      <trkpt lat="43.64466" lon="1.37926">
        <ele>150</ele>
        <time>2024-02-11T10:28:01Z</time>
      </trkpt>
      <trkpt lat="43.64468" lon="1.37928">
        <ele>150</ele>
        <time>2024-02-11T10:28:02Z</time>
      </trkpt>
      <trkpt lat="43.64471" lon="1.37931">
        <ele>150</ele>
        <time>2024-02-11T10:28:03Z</time>
      </trkpt>
      <trkpt lat="43.64473" lon="1.37933">
        <ele>149</ele>
        <time>2024-02-11T10:28:04Z</time>
      </trkpt>
      <trkpt lat="43.64475" lon="1.37935">
        <ele>149</ele>
        <time>2024-02-11T10:28:05Z</time>
      </trkpt>
      <trkpt lat="43.64477" lon="1.37937">
        <ele>149</ele>
        <time>2024-02-11T10:28:06Z</time>
      </trkpt>
      <trkpt lat="43.64478" lon="1.3794">
        <ele>149</ele>
        <time>2024-02-11T10:28:07Z</time>
      </trkpt>
      <trkpt lat="43.64481" lon="1.37942">
        <ele>149</ele>
        <time>2024-02-11T10:28:08Z</time>
      </trkpt>
      <trkpt lat="43.64483" lon="1.37943">
        <ele>150</ele>
        <time>2024-02-11T10:28:09Z</time>
      </trkpt>
      <trkpt lat="43.64485" lon="1.37945">
        <ele>150</ele>
        <time>2024-02-11T10:28:10Z</time>
      </trkpt>
      <trkpt lat="43.64487" lon="1.37946">
        <ele>150</ele>
        <time>2024-02-11T10:28:11Z</time>
      </trkpt>
      <trkpt lat="43.6449" lon="1.37947">
        <ele>150</ele>
        <time>2024-02-11T10:28:12Z</time>
      </trkpt>
      <trkpt lat="43.64493" lon="1.37948">
        <ele>150</ele>
        <time>2024-02-11T10:28:13Z</time>
      </trkpt>
      <trkpt lat="43.64495" lon="1.37948">
        <ele>150</ele>
        <time>2024-02-11T10:28:14Z</time>
      </trkpt>
      <trkpt lat="43.64498" lon="1.37949">
        <ele>150</ele>
        <time>2024-02-11T10:28:15Z</time>
      </trkpt>
      <trkpt lat="43.645" lon="1.3795">
        <ele>150</ele>
        <time>2024-02-11T10:28:16Z</time>
      </trkpt>
      <trkpt lat="43.64504" lon="1.37952">
        <ele>150</ele>
        <time>2024-02-11T10:28:17Z</time>
      </trkpt>
      <trkpt lat="43.64505" lon="1.37953">
        <ele>150</ele>
        <time>2024-02-11T10:28:18Z</time>
      </trkpt>
      <trkpt lat="43.64507" lon="1.37954">
        <ele>150</ele>
        <time>2024-02-11T10:28:19Z</time>
      </trkpt>
      <trkpt lat="43.6451" lon="1.37956">
        <ele>150</ele>
        <time>2024-02-11T10:28:20Z</time>
      </trkpt>
      <trkpt lat="43.64512" lon="1.37957">
        <ele>150</ele>
        <time>2024-02-11T10:28:21Z</time>
      </trkpt>
      <trkpt lat="43.64514" lon="1.37958">
        <ele>150</ele>
        <time>2024-02-11T10:28:22Z</time>
      </trkpt>
      <trkpt lat="43.64517" lon="1.37959">
        <ele>150</ele>
        <time>2024-02-11T10:28:23Z</time>
      </trkpt>
      <trkpt lat="43.64519" lon="1.3796">
        <ele>150</ele>
        <time>2024-02-11T10:28:24Z</time>
      </trkpt>
      <trkpt lat="43.64522" lon="1.37961">
        <ele>149</ele>
        <time>2024-02-11T10:28:25Z</time>
      </trkpt>
      <trkpt lat="43.64525" lon="1.37963">
        <ele>150</ele>
        <time>2024-02-11T10:28:26Z</time>
      </trkpt>
      <trkpt lat="43.64527" lon="1.37964">
        <ele>150</ele>
        <time>2024-02-11T10:28:27Z</time>
      </trkpt>
      <trkpt lat="43.64529" lon="1.37965">
        <ele>150</ele>
        <time>2024-02-11T10:28:28Z</time>
      </trkpt>
      <trkpt lat="43.6453" lon="1.37967">
        <ele>150</ele>
        <time>2024-02-11T10:28:29Z</time>
      </trkpt>
      <trkpt lat="43.64531" lon="1.3797">
        <ele>150</ele>
        <time>2024-02-11T10:28:30Z</time>
      </trkpt>
      <trkpt lat="43.64533" lon="1.37973">
        <ele>150</ele>
        <time>2024-02-11T10:28:31Z</time>
      </trkpt>
      <trkpt lat="43.64533" lon="1.37973">
        <ele>150</ele>
        <time>2024-02-11T10:28:32Z</time>
      </trkpt>
      <trkpt lat="43.64535" lon="1.37977">
        <ele>150</ele>
        <time>2024-02-11T10:28:33Z</time>
      </trkpt>
      <trkpt lat="43.64536" lon="1.37978">
        <ele>150</ele>
        <time>2024-02-11T10:28:34Z</time>
      </trkpt>
      <trkpt lat="43.64536" lon="1.37978">
        <ele>150</ele>
        <time>2024-02-11T10:28:35Z</time>
      </trkpt>
      <trkpt lat="43.64539" lon="1.3798">
        <ele>150</ele>
        <time>2024-02-11T10:28:36Z</time>
      </trkpt>
      <trkpt lat="43.64541" lon="1.3798">
        <ele>150</ele>
        <time>2024-02-11T10:28:37Z</time>
      </trkpt>
      <trkpt lat="43.64544" lon="1.3798">
        <ele>149</ele>
        <time>2024-02-11T10:28:38Z</time>
      </trkpt>
      <trkpt lat="43.64546" lon="1.3798">
        <ele>150</ele>
        <time>2024-02-11T10:28:39Z</time>
      </trkpt>
      <trkpt lat="43.64546" lon="1.3798">
        <ele>150</ele>
        <time>2024-02-11T10:28:40Z</time>
      </trkpt>
      <trkpt lat="43.64548" lon="1.3798">
        <ele>150</ele>
        <time>2024-02-11T10:28:41Z</time>
      </trkpt>
      <trkpt lat="43.6455" lon="1.37979">
        <ele>150</ele>
        <time>2024-02-11T10:28:42Z</time>
      </trkpt>
      <trkpt lat="43.64552" lon="1.37978">
        <ele>150</ele>
        <time>2024-02-11T10:28:43Z</time>
      </trkpt>
      <trkpt lat="43.64554" lon="1.37977">
        <ele>150</ele>
        <time>2024-02-11T10:28:44Z</time>
      </trkpt>
      <trkpt lat="43.64554" lon="1.37977">
        <ele>150</ele>
        <time>2024-02-11T10:28:45Z</time>
      </trkpt>
      <trkpt lat="43.64556" lon="1.37976">
        <ele>150</ele>
        <time>2024-02-11T10:28:46Z</time>
      </trkpt>
      <trkpt lat="43.64558" lon="1.37974">
        <ele>150</ele>
        <time>2024-02-11T10:28:47Z</time>
      </trkpt>
      <trkpt lat="43.6456" lon="1.37972">
        <ele>150</ele>
        <time>2024-02-11T10:28:48Z</time>
      </trkpt>
      <trkpt lat="43.64561" lon="1.3797">
        <ele>150</ele>
        <time>2024-02-11T10:28:49Z</time>
      </trkpt>
      <trkpt lat="43.64562" lon="1.37968">
        <ele>150</ele>
        <time>2024-02-11T10:28:50Z</time>
      </trkpt>
      <trkpt lat="43.64564" lon="1.37966">
        <ele>150</ele>
        <time>2024-02-11T10:28:51Z</time>
      </trkpt>
      <trkpt lat="43.64565" lon="1.37964">
        <ele>150</ele>
        <time>2024-02-11T10:28:52Z</time>
      </trkpt>
      <trkpt lat="43.64566" lon="1.37962">
        <ele>150</ele>
        <time>2024-02-11T10:28:53Z</time>
      </trkpt>
      <trkpt lat="43.64566" lon="1.37962">
        <ele>150</ele>
        <time>2024-02-11T10:28:54Z</time>
      </trkpt>
      <trkpt lat="43.64567" lon="1.37958">
        <ele>150</ele>
        <time>2024-02-11T10:28:55Z</time>
      </trkpt>
      <trkpt lat="43.64568" lon="1.37955">
        <ele>150</ele>
        <time>2024-02-11T10:28:56Z</time>
      </trkpt>
      <trkpt lat="43.64568" lon="1.37951">
        <ele>150</ele>
        <time>2024-02-11T10:28:57Z</time>
      </trkpt>
      <trkpt lat="43.64569" lon="1.37948">
        <ele>150</ele>
        <time>2024-02-11T10:28:58Z</time>
      </trkpt>
      <trkpt lat="43.64569" lon="1.37945">
        <ele>150</ele>
        <time>2024-02-11T10:28:59Z</time>
      </trkpt>
      <trkpt lat="43.64569" lon="1.37943">
        <ele>150</ele>
        <time>2024-02-11T10:29:00Z</time>
      </trkpt>
      <trkpt lat="43.64569" lon="1.3794">
        <ele>150</ele>
        <time>2024-02-11T10:29:01Z</time>
      </trkpt>
      <trkpt lat="43.64568" lon="1.37937">
        <ele>150</ele>
        <time>2024-02-11T10:29:02Z</time>
      </trkpt>
      <trkpt lat="43.64568" lon="1.37934">
        <ele>150</ele>
        <time>2024-02-11T10:29:03Z</time>
      </trkpt>
      <trkpt lat="43.64566" lon="1.3793">
        <ele>150</ele>
        <time>2024-02-11T10:29:04Z</time>
      </trkpt>
      <trkpt lat="43.64565" lon="1.37926">
        <ele>150</ele>
        <time>2024-02-11T10:29:05Z</time>
      </trkpt>
      <trkpt lat="43.64563" lon="1.37923">
        <ele>150</ele>
        <time>2024-02-11T10:29:06Z</time>
      </trkpt>
      <trkpt lat="43.64562" lon="1.37919">
        <ele>151</ele>
        <time>2024-02-11T10:29:07Z</time>
      </trkpt>
      <trkpt lat="43.6456" lon="1.37916">
        <ele>151</ele>
        <time>2024-02-11T10:29:08Z</time>
      </trkpt>
      <trkpt lat="43.64558" lon="1.37914">
        <ele>150</ele>
        <time>2024-02-11T10:29:09Z</time>
      </trkpt>
      <trkpt lat="43.64556" lon="1.37911">
        <ele>150</ele>
        <time>2024-02-11T10:29:10Z</time>
      </trkpt>
      <trkpt lat="43.64554" lon="1.37909">
        <ele>150</ele>
        <time>2024-02-11T10:29:11Z</time>
      </trkpt>
      <trkpt lat="43.64551" lon="1.37907">
        <ele>150</ele>
        <time>2024-02-11T10:29:12Z</time>
      </trkpt>
      <trkpt lat="43.64549" lon="1.37906">
        <ele>150</ele>
        <time>2024-02-11T10:29:13Z</time>
      </trkpt>
      <trkpt lat="43.64547" lon="1.37905">
        <ele>150</ele>
        <time>2024-02-11T10:29:14Z</time>
      </trkpt>
      <trkpt lat="43.64544" lon="1.37904">
        <ele>150</ele>
        <time>2024-02-11T10:29:15Z</time>
      </trkpt>
      <trkpt lat="43.64542" lon="1.37902">
        <ele>150</ele>
        <time>2024-02-11T10:29:16Z</time>
      </trkpt>
      <trkpt lat="43.64539" lon="1.37901">
        <ele>150</ele>
        <time>2024-02-11T10:29:17Z</time>
      </trkpt>
      <trkpt lat="43.64537" lon="1.379">
        <ele>150</ele>
        <time>2024-02-11T10:29:18Z</time>
      </trkpt>
      <trkpt lat="43.64534" lon="1.37899">
        <ele>150</ele>
        <time>2024-02-11T10:29:19Z</time>
      </trkpt>
      <trkpt lat="43.64532" lon="1.37898">
        <ele>150</ele>
        <time>2024-02-11T10:29:20Z</time>
      </trkpt>
      <trkpt lat="43.6453" lon="1.37897">
        <ele>150</ele>
        <time>2024-02-11T10:29:21Z</time>
      </trkpt>
      <trkpt lat="43.64528" lon="1.37896">
        <ele>150</ele>
        <time>2024-02-11T10:29:22Z</time>
      </trkpt>
      <trkpt lat="43.64525" lon="1.37894">
        <ele>150</ele>
        <time>2024-02-11T10:29:23Z</time>
      </trkpt>
      <trkpt lat="43.64523" lon="1.37893">
        <ele>150</ele>
        <time>2024-02-11T10:29:24Z</time>
      </trkpt>
      <trkpt lat="43.6452" lon="1.37892">
        <ele>151</ele>
        <time>2024-02-11T10:29:25Z</time>
      </trkpt>
      <trkpt lat="43.64518" lon="1.37891">
        <ele>151</ele>
        <time>2024-02-11T10:29:26Z</time>
      </trkpt>
      <trkpt lat="43.64516" lon="1.37889">
        <ele>150</ele>
        <time>2024-02-11T10:29:27Z</time>
      </trkpt>
      <trkpt lat="43.64514" lon="1.37888">
        <ele>150</ele>
        <time>2024-02-11T10:29:28Z</time>
      </trkpt>
      <trkpt lat="43.64512" lon="1.37887">
        <ele>150</ele>
        <time>2024-02-11T10:29:29Z</time>
      </trkpt>
      <trkpt lat="43.6451" lon="1.37886">
        <ele>150</ele>
        <time>2024-02-11T10:29:30Z</time>
      </trkpt>
      <trkpt lat="43.64508" lon="1.37885">
        <ele>150</ele>
        <time>2024-02-11T10:29:31Z</time>
      </trkpt>
      <trkpt lat="43.64504" lon="1.37883">
        <ele>150</ele>
        <time>2024-02-11T10:29:32Z</time>
      </trkpt>
      <trkpt lat="43.64503" lon="1.37883">
        <ele>150</ele>
        <time>2024-02-11T10:29:33Z</time>
      </trkpt>
      <trkpt lat="43.64501" lon="1.37881">
        <ele>150</ele>
        <time>2024-02-11T10:29:34Z</time>
      </trkpt>
      <trkpt lat="43.64499" lon="1.3788">
        <ele>150</ele>
        <time>2024-02-11T10:29:35Z</time>
      </trkpt>
      <trkpt lat="43.64497" lon="1.37879">
        <ele>150</ele>
        <time>2024-02-11T10:29:36Z</time>
      </trkpt>
      <trkpt lat="43.64494" lon="1.37878">
        <ele>150</ele>
        <time>2024-02-11T10:29:37Z</time>
      </trkpt>
      <trkpt lat="43.64492" lon="1.37878">
        <ele>150</ele>
        <time>2024-02-11T10:29:38Z</time>
      </trkpt>
      <trkpt lat="43.6449" lon="1.37877">
        <ele>150</ele>
        <time>2024-02-11T10:29:39Z</time>
      </trkpt>
      <trkpt lat="43.64487" lon="1.37876">
        <ele>150</ele>
        <time>2024-02-11T10:29:40Z</time>
      </trkpt>
      <trkpt lat="43.64485" lon="1.37875">
        <ele>150</ele>
        <time>2024-02-11T10:29:41Z</time>
      </trkpt>
      <trkpt lat="43.64483" lon="1.37875">
        <ele>150</ele>
        <time>2024-02-11T10:29:42Z</time>
      </trkpt>
      <trkpt lat="43.6448" lon="1.37875">
        <ele>150</ele>
        <time>2024-02-11T10:29:43Z</time>
      </trkpt>
      <trkpt lat="43.64478" lon="1.37876">
        <ele>150</ele>
        <time>2024-02-11T10:29:44Z</time>
      </trkpt>
      <trkpt lat="43.64475" lon="1.37876">
        <ele>150</ele>
        <time>2024-02-11T10:29:45Z</time>
      </trkpt>
      <trkpt lat="43.64474" lon="1.37876">
        <ele>150</ele>
        <time>2024-02-11T10:29:46Z</time>
      </trkpt>
      <trkpt lat="43.64472" lon="1.37877">
        <ele>150</ele>
        <time>2024-02-11T10:29:47Z</time>
      </trkpt>
      <trkpt lat="43.6447" lon="1.37878">
        <ele>150</ele>
        <time>2024-02-11T10:29:48Z</time>
      </trkpt>
      <trkpt lat="43.64468" lon="1.37879">
        <ele>150</ele>
        <time>2024-02-11T10:29:49Z</time>
      </trkpt>
      <trkpt lat="43.64466" lon="1.37881">
        <ele>150</ele>
        <time>2024-02-11T10:29:50Z</time>
      </trkpt>
      <trkpt lat="43.64463" lon="1.37883">
        <ele>150</ele>
        <time>2024-02-11T10:29:51Z</time>
      </trkpt>
      <trkpt lat="43.64462" lon="1.37884">
        <ele>150</ele>
        <time>2024-02-11T10:29:52Z</time>
      </trkpt>
      <trkpt lat="43.64461" lon="1.37886">
        <ele>150</ele>
        <time>2024-02-11T10:29:53Z</time>
      </trkpt>
      <trkpt lat="43.64459" lon="1.37888">
        <ele>150</ele>
        <time>2024-02-11T10:29:54Z</time>
      </trkpt>
      <trkpt lat="43.64458" lon="1.37891">
        <ele>150</ele>
        <time>2024-02-11T10:29:55Z</time>
      </trkpt>
      <trkpt lat="43.64457" lon="1.37893">
        <ele>150</ele>
        <time>2024-02-11T10:29:56Z</time>
      </trkpt>
      <trkpt lat="43.64456" lon="1.37896">
        <ele>150</ele>
        <time>2024-02-11T10:29:57Z</time>
      </trkpt>
      <trkpt lat="43.64456" lon="1.37896">
        <ele>150</ele>
        <time>2024-02-11T10:29:58Z</time>
      </trkpt>
      <trkpt lat="43.64455" lon="1.37898">
        <ele>150</ele>
        <time>2024-02-11T10:29:59Z</time>
      </trkpt>
      <trkpt lat="43.64453" lon="1.37903">
        <ele>150</ele>
        <time>2024-02-11T10:30:00Z</time>
      </trkpt>
      <trkpt lat="43.64452" lon="1.37906">
        <ele>150</ele>
        <time>2024-02-11T10:30:01Z</time>
      </trkpt>
      <trkpt lat="43.64451" lon="1.37909">
        <ele>149</ele>
        <time>2024-02-11T10:30:02Z</time>
      </trkpt>
      <trkpt lat="43.64451" lon="1.37912">
        <ele>149</ele>
        <time>2024-02-11T10:30:03Z</time>
      </trkpt>
      <trkpt lat="43.6445" lon="1.37915">
        <ele>149</ele>
        <time>2024-02-11T10:30:04Z</time>
      </trkpt>
      <trkpt lat="43.6445" lon="1.37918">
        <ele>149</ele>
        <time>2024-02-11T10:30:05Z</time>
      </trkpt>
      <trkpt lat="43.6445" lon="1.3792">
        <ele>149</ele>
        <time>2024-02-11T10:30:06Z</time>
      </trkpt>
      <trkpt lat="43.6445" lon="1.37923">
        <ele>149</ele>
        <time>2024-02-11T10:30:07Z</time>
      </trkpt>
      <trkpt lat="43.6445" lon="1.37926">
        <ele>149</ele>
        <time>2024-02-11T10:30:08Z</time>
      </trkpt>
      <trkpt lat="43.64451" lon="1.37929">
        <ele>149</ele>
        <time>2024-02-11T10:30:09Z</time>
      </trkpt>
      <trkpt lat="43.64451" lon="1.37931">
        <ele>149</ele>
        <time>2024-02-11T10:30:10Z</time>
      </trkpt>
      <trkpt lat="43.64453" lon="1.37934">
        <ele>150</ele>
        <time>2024-02-11T10:30:11Z</time>
      </trkpt>
      <trkpt lat="43.64454" lon="1.37937">
        <ele>150</ele>
        <time>2024-02-11T10:30:12Z</time>
      </trkpt>
      <trkpt lat="43.64456" lon="1.37939">
        <ele>150</ele>
        <time>2024-02-11T10:30:13Z</time>
      </trkpt>
      <trkpt lat="43.64458" lon="1.37943">
        <ele>150</ele>
        <time>2024-02-11T10:30:14Z</time>
      </trkpt>
      <trkpt lat="43.64459" lon="1.37944">
        <ele>150</ele>
        <time>2024-02-11T10:30:15Z</time>
      </trkpt>
      <trkpt lat="43.64462" lon="1.37946">
        <ele>150</ele>
        <time>2024-02-11T10:30:16Z</time>
      </trkpt>
      <trkpt lat="43.64464" lon="1.37948">
        <ele>150</ele>
        <time>2024-02-11T10:30:17Z</time>
      </trkpt>
      <trkpt lat="43.64467" lon="1.3795">
        <ele>149</ele>
        <time>2024-02-11T10:30:18Z</time>
      </trkpt>
      <trkpt lat="43.64469" lon="1.37951">
        <ele>149</ele>
        <time>2024-02-11T10:30:19Z</time>
      </trkpt>
      <trkpt lat="43.64472" lon="1.37952">
        <ele>149</ele>
        <time>2024-02-11T10:30:20Z</time>
      </trkpt>
      <trkpt lat="43.64474" lon="1.37953">
        <ele>149</ele>
        <time>2024-02-11T10:30:21Z</time>
      </trkpt>
      <trkpt lat="43.64476" lon="1.37954">
        <ele>149</ele>
        <time>2024-02-11T10:30:22Z</time>
      </trkpt>
      <trkpt lat="43.6448" lon="1.37956">
        <ele>149</ele>
        <time>2024-02-11T10:30:23Z</time>
      </trkpt>
      <trkpt lat="43.64481" lon="1.37956">
        <ele>149</ele>
        <time>2024-02-11T10:30:24Z</time>
      </trkpt>
      <trkpt lat="43.64484" lon="1.37958">
        <ele>149</ele>
        <time>2024-02-11T10:30:25Z</time>
      </trkpt>
      <trkpt lat="43.64486" lon="1.37959">
        <ele>149</ele>
        <time>2024-02-11T10:30:26Z</time>
      </trkpt>
      <trkpt lat="43.64488" lon="1.37961">
        <ele>149</ele>
        <time>2024-02-11T10:30:27Z</time>
      </trkpt>
      <trkpt lat="43.6449" lon="1.37962">
        <ele>149</ele>
        <time>2024-02-11T10:30:28Z</time>
      </trkpt>
      <trkpt lat="43.64492" lon="1.37963">
        <ele>149</ele>
        <time>2024-02-11T10:30:29Z</time>
      </trkpt>
      <trkpt lat="43.64495" lon="1.37964">
        <ele>149</ele>
        <time>2024-02-11T10:30:30Z</time>
      </trkpt>
      <trkpt lat="43.64497" lon="1.37965">
        <ele>148</ele>
        <time>2024-02-11T10:30:31Z</time>
      </trkpt>
      <trkpt lat="43.645" lon="1.37966">
        <ele>148</ele>
        <time>2024-02-11T10:30:32Z</time>
      </trkpt>
      <trkpt lat="43.64502" lon="1.37968">
        <ele>149</ele>
        <time>2024-02-11T10:30:33Z</time>
      </trkpt>
      <trkpt lat="43.64504" lon="1.37969">
        <ele>149</ele>
        <time>2024-02-11T10:30:34Z</time>
      </trkpt>
      <trkpt lat="43.64506" lon="1.3797">
        <ele>149</ele>
        <time>2024-02-11T10:30:35Z</time>
      </trkpt>
      <trkpt lat="43.64509" lon="1.37972">
        <ele>149</ele>
        <time>2024-02-11T10:30:36Z</time>
      </trkpt>
      <trkpt lat="43.64509" lon="1.37972">
        <ele>149</ele>
        <time>2024-02-11T10:30:37Z</time>
      </trkpt>
      <trkpt lat="43.64513" lon="1.37973">
        <ele>149</ele>
        <time>2024-02-11T10:30:38Z</time>
      </trkpt>
      <trkpt lat="43.64515" lon="1.37974">
        <ele>149</ele>
        <time>2024-02-11T10:30:39Z</time>
      </trkpt>
      <trkpt lat="43.64517" lon="1.37976">
        <ele>149</ele>
        <time>2024-02-11T10:30:40Z</time>
      </trkpt>
      <trkpt lat="43.6452" lon="1.37978">
        <ele>149</ele>
        <time>2024-02-11T10:30:41Z</time>
      </trkpt>
      <trkpt lat="43.64522" lon="1.3798">
        <ele>149</ele>
        <time>2024-02-11T10:30:42Z</time>
      </trkpt>
      <trkpt lat="43.64524" lon="1.37981">
        <ele>149</ele>
        <time>2024-02-11T10:30:43Z</time>
      </trkpt>
      <trkpt lat="43.64526" lon="1.37982">
        <ele>149</ele>
        <time>2024-02-11T10:30:44Z</time>
      </trkpt>
      <trkpt lat="43.64529" lon="1.37983">
        <ele>149</ele>
        <time>2024-02-11T10:30:45Z</time>
      </trkpt>
      <trkpt lat="43.64531" lon="1.37983">
        <ele>149</ele>
        <time>2024-02-11T10:30:46Z</time>
      </trkpt>
      <trkpt lat="43.64534" lon="1.37983">
        <ele>149</ele>
        <time>2024-02-11T10:30:47Z</time>
      </trkpt>
      <trkpt lat="43.64536" lon="1.37983">
        <ele>149</ele>
        <time>2024-02-11T10:30:48Z</time>
      </trkpt>
      <trkpt lat="43.64538" lon="1.37983">
        <ele>149</ele>
        <time>2024-02-11T10:30:49Z</time>
      </trkpt>
      <trkpt lat="43.64541" lon="1.37983">
        <ele>149</ele>
        <time>2024-02-11T10:30:50Z</time>
      </trkpt>
      <trkpt lat="43.64543" lon="1.37982">
        <ele>150</ele>
        <time>2024-02-11T10:30:51Z</time>
      </trkpt>
      <trkpt lat="43.64546" lon="1.37982">
        <ele>150</ele>
        <time>2024-02-11T10:30:52Z</time>
      </trkpt>
      <trkpt lat="43.64548" lon="1.37981">
        <ele>150</ele>
        <time>2024-02-11T10:30:53Z</time>
      </trkpt>
      <trkpt lat="43.64551" lon="1.37979">
        <ele>150</ele>
        <time>2024-02-11T10:30:54Z</time>
      </trkpt>
      <trkpt lat="43.64552" lon="1.37979">
        <ele>150</ele>
        <time>2024-02-11T10:30:55Z</time>
      </trkpt>
      <trkpt lat="43.64555" lon="1.37977">
        <ele>150</ele>
        <time>2024-02-11T10:30:56Z</time>
      </trkpt>
      <trkpt lat="43.64556" lon="1.37976">
        <ele>149</ele>
        <time>2024-02-11T10:30:57Z</time>
      </trkpt>
      <trkpt lat="43.64558" lon="1.37974">
        <ele>150</ele>
        <time>2024-02-11T10:30:58Z</time>
      </trkpt>
      <trkpt lat="43.6456" lon="1.37972">
        <ele>150</ele>
        <time>2024-02-11T10:30:59Z</time>
      </trkpt>
      <trkpt lat="43.64561" lon="1.3797">
        <ele>150</ele>
        <time>2024-02-11T10:31:00Z</time>
      </trkpt>
      <trkpt lat="43.64563" lon="1.37967">
        <ele>150</ele>
        <time>2024-02-11T10:31:01Z</time>
      </trkpt>
      <trkpt lat="43.64564" lon="1.37965">
        <ele>151</ele>
        <time>2024-02-11T10:31:02Z</time>
      </trkpt>
      <trkpt lat="43.64566" lon="1.37961">
        <ele>151</ele>
        <time>2024-02-11T10:31:03Z</time>
      </trkpt>
      <trkpt lat="43.64567" lon="1.37959">
        <ele>151</ele>
        <time>2024-02-11T10:31:04Z</time>
      </trkpt>
      <trkpt lat="43.64568" lon="1.37957">
        <ele>151</ele>
        <time>2024-02-11T10:31:05Z</time>
      </trkpt>
      <trkpt lat="43.64568" lon="1.37954">
        <ele>151</ele>
        <time>2024-02-11T10:31:06Z</time>
      </trkpt>
      <trkpt lat="43.64569" lon="1.37951">
        <ele>151</ele>
        <time>2024-02-11T10:31:07Z</time>
      </trkpt>
      <trkpt lat="43.64569" lon="1.37948">
        <ele>150</ele>
        <time>2024-02-11T10:31:08Z</time>
      </trkpt>
      <trkpt lat="43.64569" lon="1.37945">
        <ele>151</ele>
        <time>2024-02-11T10:31:09Z</time>
      </trkpt>
      <trkpt lat="43.64569" lon="1.37942">
        <ele>151</ele>
        <time>2024-02-11T10:31:10Z</time>
      </trkpt>
      <trkpt lat="43.64569" lon="1.37939">
        <ele>151</ele>
        <time>2024-02-11T10:31:11Z</time>
      </trkpt>
      <trkpt lat="43.64568" lon="1.37937">
        <ele>152</ele>
        <time>2024-02-11T10:31:12Z</time>
      </trkpt>
      <trkpt lat="43.64567" lon="1.37932">
        <ele>152</ele>
        <time>2024-02-11T10:31:13Z</time>
      </trkpt>
      <trkpt lat="43.64566" lon="1.3793">
        <ele>152</ele>
        <time>2024-02-11T10:31:14Z</time>
      </trkpt>
      <trkpt lat="43.64565" lon="1.37926">
        <ele>151</ele>
        <time>2024-02-11T10:31:15Z</time>
      </trkpt>
      <trkpt lat="43.64564" lon="1.37925">
        <ele>151</ele>
        <time>2024-02-11T10:31:16Z</time>
      </trkpt>
      <trkpt lat="43.64563" lon="1.37922">
        <ele>151</ele>
        <time>2024-02-11T10:31:17Z</time>
      </trkpt>
      <trkpt lat="43.64561" lon="1.37919">
        <ele>151</ele>
        <time>2024-02-11T10:31:18Z</time>
      </trkpt>
      <trkpt lat="43.6456" lon="1.37916">
        <ele>152</ele>
        <time>2024-02-11T10:31:19Z</time>
      </trkpt>
      <trkpt lat="43.64558" lon="1.37914">
        <ele>152</ele>
        <time>2024-02-11T10:31:20Z</time>
      </trkpt>
      <trkpt lat="43.64556" lon="1.37912">
        <ele>152</ele>
        <time>2024-02-11T10:31:21Z</time>
      </trkpt>
      <trkpt lat="43.64552" lon="1.3791">
        <ele>152</ele>
        <time>2024-02-11T10:31:22Z</time>
      </trkpt>
      <trkpt lat="43.64551" lon="1.37909">
        <ele>152</ele>
        <time>2024-02-11T10:31:23Z</time>
      </trkpt>
      <trkpt lat="43.64548" lon="1.37907">
        <ele>152</ele>
        <time>2024-02-11T10:31:24Z</time>
      </trkpt>
      <trkpt lat="43.64547" lon="1.37906">
        <ele>151</ele>
        <time>2024-02-11T10:31:25Z</time>
      </trkpt>
      <trkpt lat="43.64545" lon="1.37905">
        <ele>151</ele>
        <time>2024-02-11T10:31:26Z</time>
      </trkpt>
      <trkpt lat="43.64543" lon="1.37904">
        <ele>150</ele>
        <time>2024-02-11T10:31:27Z</time>
      </trkpt>
      <trkpt lat="43.6454" lon="1.37903">
        <ele>150</ele>
        <time>2024-02-11T10:31:28Z</time>
      </trkpt>
      <trkpt lat="43.64538" lon="1.37901">
        <ele>150</ele>
        <time>2024-02-11T10:31:29Z</time>
      </trkpt>
      <trkpt lat="43.64536" lon="1.379">
        <ele>150</ele>
        <time>2024-02-11T10:31:30Z</time>
      </trkpt>
      <trkpt lat="43.64532" lon="1.37898">
        <ele>151</ele>
        <time>2024-02-11T10:31:31Z</time>
      </trkpt>
      <trkpt lat="43.64531" lon="1.37898">
        <ele>151</ele>
        <time>2024-02-11T10:31:32Z</time>
      </trkpt>
      <trkpt lat="43.64529" lon="1.37897">
        <ele>151</ele>
        <time>2024-02-11T10:31:33Z</time>
      </trkpt>
      <trkpt lat="43.64526" lon="1.37895">
        <ele>151</ele>
        <time>2024-02-11T10:31:34Z</time>
      </trkpt>
      <trkpt lat="43.64524" lon="1.37895">
        <ele>151</ele>
        <time>2024-02-11T10:31:35Z</time>
      </trkpt>
      <trkpt lat="43.64522" lon="1.37894">
        <ele>151</ele>
        <time>2024-02-11T10:31:36Z</time>
      </trkpt>
      <trkpt lat="43.64519" lon="1.37892">
        <ele>151</ele>
        <time>2024-02-11T10:31:37Z</time>
      </trkpt>
      <trkpt lat="43.64517" lon="1.37891">
        <ele>151</ele>
        <time>2024-02-11T10:31:38Z</time>
      </trkpt>
      <trkpt lat="43.64515" lon="1.37889">
        <ele>151</ele>
        <time>2024-02-11T10:31:39Z</time>
      </trkpt>
      <trkpt lat="43.64513" lon="1.37887">
        <ele>151</ele>
        <time>2024-02-11T10:31:40Z</time>
      </trkpt>
      <trkpt lat="43.6451" lon="1.37885">
        <ele>151</ele>
        <time>2024-02-11T10:31:41Z</time>
      </trkpt>
      <trkpt lat="43.64508" lon="1.37884">
        <ele>150</ele>
        <time>2024-02-11T10:31:42Z</time>
      </trkpt>
      <trkpt lat="43.64506" lon="1.37882">
        <ele>150</ele>
        <time>2024-02-11T10:31:43Z</time>
      </trkpt>
      <trkpt lat="43.64504" lon="1.37881">
        <ele>150</ele>
        <time>2024-02-11T10:31:44Z</time>
      </trkpt>
      <trkpt lat="43.64501" lon="1.37879">
        <ele>150</ele>
        <time>2024-02-11T10:31:45Z</time>
      </trkpt>
      <trkpt lat="43.645" lon="1.37878">
        <ele>150</ele>
        <time>2024-02-11T10:31:46Z</time>
      </trkpt>
      <trkpt lat="43.64498" lon="1.37877">
        <ele>150</ele>
        <time>2024-02-11T10:31:47Z</time>
      </trkpt>
      <trkpt lat="43.64495" lon="1.37876">
        <ele>150</ele>
        <time>2024-02-11T10:31:48Z</time>
      </trkpt>
      <trkpt lat="43.64493" lon="1.37875">
        <ele>150</ele>
        <time>2024-02-11T10:31:49Z</time>
      </trkpt>
      <trkpt lat="43.64491" lon="1.37874">
        <ele>150</ele>
        <time>2024-02-11T10:31:50Z</time>
      </trkpt>
      <trkpt lat="43.64489" lon="1.37873">
        <ele>150</ele>
        <time>2024-02-11T10:31:51Z</time>
      </trkpt>
      <trkpt lat="43.64486" lon="1.37872">
        <ele>150</ele>
        <time>2024-02-11T10:31:52Z</time>
      </trkpt>
      <trkpt lat="43.64485" lon="1.37872">
        <ele>150</ele>
        <time>2024-02-11T10:31:53Z</time>
      </trkpt>
      <trkpt lat="43.64483" lon="1.37872">
        <ele>150</ele>
        <time>2024-02-11T10:31:54Z</time>
      </trkpt>
      <trkpt lat="43.64481" lon="1.37872">
        <ele>150</ele>
        <time>2024-02-11T10:31:55Z</time>
      </trkpt>
      <trkpt lat="43.64479" lon="1.37873">
        <ele>150</ele>
        <time>2024-02-11T10:31:56Z</time>
      </trkpt>
      <trkpt lat="43.64476" lon="1.37873">
        <ele>150</ele>
        <time>2024-02-11T10:31:57Z</time>
      </trkpt>
      <trkpt lat="43.64474" lon="1.37874">
        <ele>150</ele>
        <time>2024-02-11T10:31:58Z</time>
      </trkpt>
      <trkpt lat="43.64472" lon="1.37875">
        <ele>149</ele>
        <time>2024-02-11T10:31:59Z</time>
      </trkpt>
      <trkpt lat="43.6447" lon="1.37877">
        <ele>149</ele>
        <time>2024-02-11T10:32:00Z</time>
      </trkpt>
      <trkpt lat="43.64468" lon="1.37878">
        <ele>149</ele>
        <time>2024-02-11T10:32:01Z</time>
      </trkpt>
      <trkpt lat="43.64466" lon="1.3788">
        <ele>150</ele>
        <time>2024-02-11T10:32:02Z</time>
      </trkpt>
      <trkpt lat="43.64464" lon="1.37882">
        <ele>150</ele>
        <time>2024-02-11T10:32:03Z</time>
      </trkpt>
      <trkpt lat="43.64462" lon="1.37884">
        <ele>150</ele>
        <time>2024-02-11T10:32:04Z</time>
      </trkpt>
      <trkpt lat="43.64462" lon="1.37884">
        <ele>150</ele>
        <time>2024-02-11T10:32:05Z</time>
      </trkpt>
      <trkpt lat="43.6446" lon="1.37888">
        <ele>150</ele>
        <time>2024-02-11T10:32:06Z</time>
      </trkpt>
      <trkpt lat="43.64458" lon="1.37891">
        <ele>150</ele>
        <time>2024-02-11T10:32:07Z</time>
      </trkpt>
      <trkpt lat="43.64458" lon="1.37893">
        <ele>150</ele>
        <time>2024-02-11T10:32:08Z</time>
      </trkpt>
      <trkpt lat="43.64456" lon="1.37896">
        <ele>150</ele>
        <time>2024-02-11T10:32:09Z</time>
      </trkpt>
      <trkpt lat="43.64455" lon="1.37899">
        <ele>150</ele>
        <time>2024-02-11T10:32:10Z</time>
      </trkpt>
      <trkpt lat="43.64454" lon="1.37902">
        <ele>150</ele>
        <time>2024-02-11T10:32:11Z</time>
      </trkpt>
      <trkpt lat="43.64453" lon="1.37905">
        <ele>150</ele>
        <time>2024-02-11T10:32:12Z</time>
      </trkpt>
      <trkpt lat="43.64453" lon="1.37908">
        <ele>150</ele>
        <time>2024-02-11T10:32:13Z</time>
      </trkpt>
      <trkpt lat="43.64452" lon="1.37911">
        <ele>150</ele>
        <time>2024-02-11T10:32:14Z</time>
      </trkpt>
      <trkpt lat="43.64452" lon="1.37913">
        <ele>150</ele>
        <time>2024-02-11T10:32:15Z</time>
      </trkpt>
      <trkpt lat="43.64452" lon="1.37918">
        <ele>150</ele>
        <time>2024-02-11T10:32:16Z</time>
      </trkpt>
      <trkpt lat="43.64451" lon="1.37919">
        <ele>150</ele>
        <time>2024-02-11T10:32:17Z</time>
      </trkpt>
      <trkpt lat="43.64452" lon="1.37922">
        <ele>149</ele>
        <time>2024-02-11T10:32:18Z</time>
      </trkpt>
      <trkpt lat="43.64454" lon="1.37927">
        <ele>149</ele>
        <time>2024-02-11T10:32:19Z</time>
      </trkpt>
      <trkpt lat="43.64454" lon="1.37928">
        <ele>149</ele>
        <time>2024-02-11T10:32:20Z</time>
      </trkpt>
      <trkpt lat="43.64456" lon="1.37931">
        <ele>149</ele>
        <time>2024-02-11T10:32:21Z</time>
      </trkpt>
      <trkpt lat="43.64458" lon="1.37934">
        <ele>149</ele>
        <time>2024-02-11T10:32:22Z</time>
      </trkpt>
      <trkpt lat="43.6446" lon="1.37938">
        <ele>149</ele>
        <time>2024-02-11T10:32:23Z</time>
      </trkpt>
      <trkpt lat="43.64461" lon="1.3794">
        <ele>149</ele>
        <time>2024-02-11T10:32:24Z</time>
      </trkpt>
      <trkpt lat="43.64462" lon="1.37942">
        <ele>149</ele>
        <time>2024-02-11T10:32:25Z</time>
      </trkpt>
      <trkpt lat="43.64464" lon="1.37944">
        <ele>149</ele>
        <time>2024-02-11T10:32:26Z</time>
      </trkpt>
      <trkpt lat="43.64467" lon="1.37946">
        <ele>149</ele>
        <time>2024-02-11T10:32:27Z</time>
      </trkpt>
      <trkpt lat="43.64469" lon="1.37948">
        <ele>149</ele>
        <time>2024-02-11T10:32:28Z</time>
      </trkpt>
      <trkpt lat="43.64471" lon="1.37949">
        <ele>149</ele>
        <time>2024-02-11T10:32:29Z</time>
      </trkpt>
      <trkpt lat="43.64473" lon="1.37951">
        <ele>149</ele>
        <time>2024-02-11T10:32:30Z</time>
      </trkpt>
      <trkpt lat="43.64476" lon="1.37952">
        <ele>149</ele>
        <time>2024-02-11T10:32:31Z</time>
      </trkpt>
      <trkpt lat="43.64478" lon="1.37953">
        <ele>149</ele>
        <time>2024-02-11T10:32:32Z</time>
      </trkpt>
      <trkpt lat="43.6448" lon="1.37955">
        <ele>149</ele>
        <time>2024-02-11T10:32:33Z</time>
      </trkpt>
      <trkpt lat="43.64482" lon="1.37956">
        <ele>149</ele>
        <time>2024-02-11T10:32:34Z</time>
      </trkpt>
      <trkpt lat="43.64484" lon="1.37957">
        <ele>149</ele>
        <time>2024-02-11T10:32:35Z</time>
      </trkpt>
      <trkpt lat="43.64487" lon="1.37958">
        <ele>149</ele>
        <time>2024-02-11T10:32:36Z</time>
      </trkpt>
      <trkpt lat="43.64489" lon="1.37959">
        <ele>149</ele>
        <time>2024-02-11T10:32:37Z</time>
      </trkpt>
      <trkpt lat="43.64492" lon="1.37961">
        <ele>149</ele>
        <time>2024-02-11T10:32:38Z</time>
      </trkpt>
      <trkpt lat="43.64494" lon="1.37962">
        <ele>149</ele>
        <time>2024-02-11T10:32:39Z</time>
      </trkpt>
      <trkpt lat="43.64496" lon="1.37963">
        <ele>149</ele>
        <time>2024-02-11T10:32:40Z</time>
      </trkpt>
      <trkpt lat="43.64499" lon="1.37965">
        <ele>149</ele>
        <time>2024-02-11T10:32:41Z</time>
      </trkpt>
      <trkpt lat="43.64501" lon="1.37966">
        <ele>149</ele>
        <time>2024-02-11T10:32:42Z</time>
      </trkpt>
      <trkpt lat="43.64503" lon="1.37968">
        <ele>150</ele>
        <time>2024-02-11T10:32:43Z</time>
      </trkpt>
      <trkpt lat="43.64506" lon="1.3797">
        <ele>150</ele>
        <time>2024-02-11T10:32:44Z</time>
      </trkpt>
      <trkpt lat="43.64508" lon="1.37971">
        <ele>150</ele>
        <time>2024-02-11T10:32:45Z</time>
      </trkpt>
      <trkpt lat="43.6451" lon="1.37972">
        <ele>150</ele>
        <time>2024-02-11T10:32:46Z</time>
      </trkpt>
      <trkpt lat="43.64512" lon="1.37973">
        <ele>149</ele>
        <time>2024-02-11T10:32:47Z</time>
      </trkpt>
      <trkpt lat="43.64515" lon="1.37974">
        <ele>149</ele>
        <time>2024-02-11T10:32:48Z</time>
      </trkpt>
      <trkpt lat="43.64517" lon="1.37976">
        <ele>149</ele>
        <time>2024-02-11T10:32:49Z</time>
      </trkpt>
      <trkpt lat="43.64519" lon="1.37977">
        <ele>149</ele>
        <time>2024-02-11T10:32:50Z</time>
      </trkpt>
      <trkpt lat="43.64522" lon="1.37978">
        <ele>149</ele>
        <time>2024-02-11T10:32:51Z</time>
      </trkpt>
      <trkpt lat="43.64524" lon="1.37979">
        <ele>149</ele>
        <time>2024-02-11T10:32:52Z</time>
      </trkpt>
      <trkpt lat="43.64527" lon="1.37981">
        <ele>149</ele>
        <time>2024-02-11T10:32:53Z</time>
      </trkpt>
      <trkpt lat="43.64529" lon="1.37982">
        <ele>149</ele>
        <time>2024-02-11T10:32:54Z</time>
      </trkpt>
      <trkpt lat="43.64532" lon="1.37983">
        <ele>149</ele>
        <time>2024-02-11T10:32:55Z</time>
      </trkpt>
      <trkpt lat="43.64534" lon="1.37984">
        <ele>150</ele>
        <time>2024-02-11T10:32:56Z</time>
      </trkpt>
      <trkpt lat="43.64537" lon="1.37985">
        <ele>150</ele>
        <time>2024-02-11T10:32:57Z</time>
      </trkpt>
      <trkpt lat="43.64539" lon="1.37985">
        <ele>149</ele>
        <time>2024-02-11T10:32:58Z</time>
      </trkpt>
      <trkpt lat="43.64542" lon="1.37985">
        <ele>150</ele>
        <time>2024-02-11T10:32:59Z</time>
      </trkpt>
      <trkpt lat="43.64544" lon="1.37984">
        <ele>150</ele>
        <time>2024-02-11T10:33:00Z</time>
      </trkpt>
      <trkpt lat="43.64547" lon="1.37983">
        <ele>150</ele>
        <time>2024-02-11T10:33:01Z</time>
      </trkpt>
      <trkpt lat="43.64549" lon="1.37982">
        <ele>150</ele>
        <time>2024-02-11T10:33:02Z</time>
      </trkpt>
      <trkpt lat="43.64551" lon="1.37982">
        <ele>150</ele>
        <time>2024-02-11T10:33:03Z</time>
      </trkpt>
      <trkpt lat="43.64553" lon="1.37981">
        <ele>150</ele>
        <time>2024-02-11T10:33:04Z</time>
      </trkpt>
      <trkpt lat="43.64555" lon="1.37979">
        <ele>149</ele>
        <time>2024-02-11T10:33:05Z</time>
      </trkpt>
      <trkpt lat="43.64557" lon="1.37978">
        <ele>149</ele>
        <time>2024-02-11T10:33:06Z</time>
      </trkpt>
      <trkpt lat="43.64559" lon="1.37976">
        <ele>150</ele>
        <time>2024-02-11T10:33:07Z</time>
      </trkpt>
      <trkpt lat="43.6456" lon="1.37974">
        <ele>150</ele>
        <time>2024-02-11T10:33:08Z</time>
      </trkpt>
      <trkpt lat="43.64562" lon="1.37971">
        <ele>150</ele>
        <time>2024-02-11T10:33:09Z</time>
      </trkpt>
      <trkpt lat="43.64563" lon="1.37969">
        <ele>150</ele>
        <time>2024-02-11T10:33:10Z</time>
      </trkpt>
      <trkpt lat="43.64564" lon="1.37967">
        <ele>150</ele>
        <time>2024-02-11T10:33:11Z</time>
      </trkpt>
      <trkpt lat="43.64565" lon="1.37964">
        <ele>149</ele>
        <time>2024-02-11T10:33:12Z</time>
      </trkpt>
      <trkpt lat="43.64566" lon="1.37961">
        <ele>150</ele>
        <time>2024-02-11T10:33:13Z</time>
      </trkpt>
      <trkpt lat="43.64567" lon="1.37959">
        <ele>150</ele>
        <time>2024-02-11T10:33:14Z</time>
      </trkpt>
      <trkpt lat="43.64568" lon="1.37956">
        <ele>152</ele>
        <time>2024-02-11T10:33:15Z</time>
      </trkpt>
      <trkpt lat="43.64569" lon="1.37953">
        <ele>151</ele>
        <time>2024-02-11T10:33:16Z</time>
      </trkpt>
      <trkpt lat="43.6457" lon="1.3795">
        <ele>151</ele>
        <time>2024-02-11T10:33:17Z</time>
      </trkpt>
      <trkpt lat="43.64571" lon="1.37946">
        <ele>151</ele>
        <time>2024-02-11T10:33:18Z</time>
      </trkpt>
      <trkpt lat="43.64572" lon="1.37945">
        <ele>150</ele>
        <time>2024-02-11T10:33:19Z</time>
      </trkpt>
      <trkpt lat="43.64572" lon="1.37942">
        <ele>150</ele>
        <time>2024-02-11T10:33:20Z</time>
      </trkpt>
      <trkpt lat="43.64573" lon="1.37938">
        <ele>150</ele>
        <time>2024-02-11T10:33:21Z</time>
      </trkpt>
      <trkpt lat="43.64574" lon="1.37935">
        <ele>150</ele>
        <time>2024-02-11T10:33:22Z</time>
      </trkpt>
      <trkpt lat="43.64575" lon="1.37932">
        <ele>149</ele>
        <time>2024-02-11T10:33:23Z</time>
      </trkpt>
      <trkpt lat="43.64576" lon="1.37929">
        <ele>149</ele>
        <time>2024-02-11T10:33:24Z</time>
      </trkpt>
      <trkpt lat="43.64577" lon="1.37926">
        <ele>150</ele>
        <time>2024-02-11T10:33:25Z</time>
      </trkpt>
      <trkpt lat="43.64578" lon="1.37922">
        <ele>150</ele>
        <time>2024-02-11T10:33:26Z</time>
      </trkpt>
      <trkpt lat="43.64579" lon="1.37919">
        <ele>150</ele>
        <time>2024-02-11T10:33:27Z</time>
      </trkpt>
      <trkpt lat="43.64581" lon="1.37916">
        <ele>150</ele>
        <time>2024-02-11T10:33:28Z</time>
      </trkpt>
      <trkpt lat="43.64583" lon="1.37912">
        <ele>150</ele>
        <time>2024-02-11T10:33:29Z</time>
      </trkpt>
      <trkpt lat="43.64584" lon="1.3791">
        <ele>150</ele>
        <time>2024-02-11T10:33:30Z</time>
      </trkpt>
      <trkpt lat="43.64585" lon="1.37907">
        <ele>150</ele>
        <time>2024-02-11T10:33:31Z</time>
      </trkpt>
      <trkpt lat="43.64585" lon="1.37904">
        <ele>150</ele>
        <time>2024-02-11T10:33:32Z</time>
      </trkpt>
      <trkpt lat="43.64586" lon="1.37901">
        <ele>150</ele>
        <time>2024-02-11T10:33:33Z</time>
      </trkpt>
      <trkpt lat="43.64586" lon="1.37898">
        <ele>150</ele>
        <time>2024-02-11T10:33:34Z</time>
      </trkpt>
      <trkpt lat="43.64587" lon="1.37895">
        <ele>150</ele>
        <time>2024-02-11T10:33:35Z</time>
      </trkpt>
      <trkpt lat="43.64588" lon="1.37892">
        <ele>150</ele>
        <time>2024-02-11T10:33:36Z</time>
      </trkpt>
      <trkpt lat="43.64588" lon="1.37888">
        <ele>150</ele>
        <time>2024-02-11T10:33:37Z</time>
      </trkpt>
      <trkpt lat="43.64588" lon="1.37886">
        <ele>149</ele>
        <time>2024-02-11T10:33:38Z</time>
      </trkpt>
      <trkpt lat="43.64588" lon="1.37886">
        <ele>149</ele>
        <time>2024-02-11T10:33:39Z</time>
      </trkpt>
      <trkpt lat="43.64585" lon="1.37883">
        <ele>150</ele>
        <time>2024-02-11T10:33:40Z</time>
      </trkpt>
      <trkpt lat="43.64583" lon="1.37881">
        <ele>150</ele>
        <time>2024-02-11T10:33:41Z</time>
      </trkpt>
      <trkpt lat="43.64581" lon="1.37881">
        <ele>150</ele>
        <time>2024-02-11T10:33:42Z</time>
      </trkpt>
      <trkpt lat="43.64577" lon="1.37879">
        <ele>150</ele>
        <time>2024-02-11T10:33:43Z</time>
      </trkpt>
      <trkpt lat="43.64576" lon="1.37878">
        <ele>150</ele>
        <time>2024-02-11T10:33:44Z</time>
      </trkpt>
      <trkpt lat="43.64574" lon="1.37877">
        <ele>150</ele>
        <time>2024-02-11T10:33:45Z</time>
      </trkpt>
      <trkpt lat="43.64572" lon="1.37875">
        <ele>150</ele>
        <time>2024-02-11T10:33:46Z</time>
      </trkpt>
      <trkpt lat="43.64569" lon="1.37873">
        <ele>150</ele>
        <time>2024-02-11T10:33:47Z</time>
      </trkpt>
      <trkpt lat="43.64567" lon="1.37872">
        <ele>150</ele>
        <time>2024-02-11T10:33:48Z</time>
      </trkpt>
      <trkpt lat="43.64564" lon="1.3787">
        <ele>150</ele>
        <time>2024-02-11T10:33:49Z</time>
      </trkpt>
      <trkpt lat="43.64562" lon="1.37869">
        <ele>150</ele>
        <time>2024-02-11T10:33:50Z</time>
      </trkpt>
      <trkpt lat="43.6456" lon="1.37868">
        <ele>151</ele>
        <time>2024-02-11T10:33:51Z</time>
      </trkpt>
      <trkpt lat="43.64558" lon="1.37867">
        <ele>151</ele>
        <time>2024-02-11T10:33:52Z</time>
      </trkpt>
      <trkpt lat="43.64555" lon="1.37868">
        <ele>150</ele>
        <time>2024-02-11T10:33:53Z</time>
      </trkpt>
      <trkpt lat="43.64553" lon="1.37868">
        <ele>150</ele>
        <time>2024-02-11T10:33:54Z</time>
      </trkpt>
      <trkpt lat="43.6455" lon="1.37869">
        <ele>151</ele>
        <time>2024-02-11T10:33:55Z</time>
      </trkpt>
      <trkpt lat="43.64548" lon="1.3787">
        <ele>151</ele>
        <time>2024-02-11T10:33:56Z</time>
      </trkpt>
      <trkpt lat="43.64545" lon="1.37872">
        <ele>151</ele>
        <time>2024-02-11T10:33:57Z</time>
      </trkpt>
      <trkpt lat="43.64543" lon="1.37872">
        <ele>151</ele>
        <time>2024-02-11T10:33:58Z</time>
      </trkpt>
      <trkpt lat="43.64541" lon="1.37873">
        <ele>151</ele>
        <time>2024-02-11T10:33:59Z</time>
      </trkpt>
      <trkpt lat="43.64539" lon="1.37874">
        <ele>150</ele>
        <time>2024-02-11T10:34:00Z</time>
      </trkpt>
      <trkpt lat="43.64536" lon="1.37875">
        <ele>150</ele>
        <time>2024-02-11T10:34:01Z</time>
      </trkpt>
      <trkpt lat="43.64534" lon="1.37876">
        <ele>150</ele>
        <time>2024-02-11T10:34:02Z</time>
      </trkpt>
      <trkpt lat="43.64532" lon="1.37877">
        <ele>150</ele>
        <time>2024-02-11T10:34:03Z</time>
      </trkpt>
      <trkpt lat="43.6453" lon="1.37877">
        <ele>151</ele>
        <time>2024-02-11T10:34:04Z</time>
      </trkpt>
      <trkpt lat="43.64527" lon="1.37878">
        <ele>151</ele>
        <time>2024-02-11T10:34:05Z</time>
      </trkpt>
      <trkpt lat="43.64524" lon="1.37878">
        <ele>150</ele>
        <time>2024-02-11T10:34:06Z</time>
      </trkpt>
      <trkpt lat="43.64521" lon="1.37878">
        <ele>150</ele>
        <time>2024-02-11T10:34:07Z</time>
      </trkpt>
      <trkpt lat="43.64519" lon="1.37878">
        <ele>150</ele>
        <time>2024-02-11T10:34:08Z</time>
      </trkpt>
      <trkpt lat="43.64516" lon="1.37877">
        <ele>150</ele>
        <time>2024-02-11T10:34:09Z</time>
      </trkpt>
      <trkpt lat="43.64514" lon="1.37877">
        <ele>150</ele>
        <time>2024-02-11T10:34:10Z</time>
      </trkpt>
      <trkpt lat="43.64511" lon="1.37877">
        <ele>149</ele>
        <time>2024-02-11T10:34:11Z</time>
      </trkpt>
      <trkpt lat="43.64508" lon="1.37877">
        <ele>150</ele>
        <time>2024-02-11T10:34:12Z</time>
      </trkpt>
      <trkpt lat="43.64506" lon="1.37877">
        <ele>150</ele>
        <time>2024-02-11T10:34:13Z</time>
      </trkpt>
      <trkpt lat="43.64503" lon="1.37877">
        <ele>150</ele>
        <time>2024-02-11T10:34:14Z</time>
      </trkpt>
      <trkpt lat="43.645" lon="1.37876">
        <ele>150</ele>
        <time>2024-02-11T10:34:15Z</time>
      </trkpt>
      <trkpt lat="43.64497" lon="1.37875">
        <ele>150</ele>
        <time>2024-02-11T10:34:16Z</time>
      </trkpt>
      <trkpt lat="43.64495" lon="1.37873">
        <ele>150</ele>
        <time>2024-02-11T10:34:17Z</time>
      </trkpt>
      <trkpt lat="43.64492" lon="1.37873">
        <ele>150</ele>
        <time>2024-02-11T10:34:18Z</time>
      </trkpt>
      <trkpt lat="43.64489" lon="1.37872">
        <ele>150</ele>
        <time>2024-02-11T10:34:19Z</time>
      </trkpt>
      <trkpt lat="43.64487" lon="1.37872">
        <ele>150</ele>
        <time>2024-02-11T10:34:20Z</time>
      </trkpt>
      <trkpt lat="43.64484" lon="1.37873">
        <ele>150</ele>
        <time>2024-02-11T10:34:21Z</time>
      </trkpt>
      <trkpt lat="43.64482" lon="1.37874">
        <ele>150</ele>
        <time>2024-02-11T10:34:22Z</time>
      </trkpt>
      <trkpt lat="43.64479" lon="1.37875">
        <ele>150</ele>
        <time>2024-02-11T10:34:23Z</time>
      </trkpt>
      <trkpt lat="43.64477" lon="1.37875">
        <ele>150</ele>
        <time>2024-02-11T10:34:24Z</time>
      </trkpt>
      <trkpt lat="43.64475" lon="1.37876">
        <ele>150</ele>
        <time>2024-02-11T10:34:25Z</time>
      </trkpt>
      <trkpt lat="43.64472" lon="1.37877">
        <ele>150</ele>
        <time>2024-02-11T10:34:26Z</time>
      </trkpt>
      <trkpt lat="43.6447" lon="1.37879">
        <ele>150</ele>
        <time>2024-02-11T10:34:27Z</time>
      </trkpt>
      <trkpt lat="43.64468" lon="1.3788">
        <ele>150</ele>
        <time>2024-02-11T10:34:28Z</time>
      </trkpt>
      <trkpt lat="43.64466" lon="1.37882">
        <ele>150</ele>
        <time>2024-02-11T10:34:29Z</time>
      </trkpt>
      <trkpt lat="43.64465" lon="1.37883">
        <ele>150</ele>
        <time>2024-02-11T10:34:30Z</time>
      </trkpt>
      <trkpt lat="43.64463" lon="1.37885">
        <ele>150</ele>
        <time>2024-02-11T10:34:31Z</time>
      </trkpt>
      <trkpt lat="43.64461" lon="1.37888">
        <ele>150</ele>
        <time>2024-02-11T10:34:32Z</time>
      </trkpt>
      <trkpt lat="43.6446" lon="1.3789">
        <ele>150</ele>
        <time>2024-02-11T10:34:33Z</time>
      </trkpt>
      <trkpt lat="43.64459" lon="1.37893">
        <ele>150</ele>
        <time>2024-02-11T10:34:34Z</time>
      </trkpt>
      <trkpt lat="43.64457" lon="1.37896">
        <ele>150</ele>
        <time>2024-02-11T10:34:35Z</time>
      </trkpt>
      <trkpt lat="43.64456" lon="1.37899">
        <ele>150</ele>
        <time>2024-02-11T10:34:36Z</time>
      </trkpt>
      <trkpt lat="43.64455" lon="1.37901">
        <ele>149</ele>
        <time>2024-02-11T10:34:37Z</time>
      </trkpt>
      <trkpt lat="43.64454" lon="1.37905">
        <ele>149</ele>
        <time>2024-02-11T10:34:38Z</time>
      </trkpt>
      <trkpt lat="43.64454" lon="1.37907">
        <ele>148</ele>
        <time>2024-02-11T10:34:39Z</time>
      </trkpt>
      <trkpt lat="43.64453" lon="1.3791">
        <ele>148</ele>
        <time>2024-02-11T10:34:40Z</time>
      </trkpt>
      <trkpt lat="43.64453" lon="1.37913">
        <ele>148</ele>
        <time>2024-02-11T10:34:41Z</time>
      </trkpt>
      <trkpt lat="43.64453" lon="1.37916">
        <ele>148</ele>
        <time>2024-02-11T10:34:42Z</time>
      </trkpt>
      <trkpt lat="43.64453" lon="1.37919">
        <ele>148</ele>
        <time>2024-02-11T10:34:43Z</time>
      </trkpt>
      <trkpt lat="43.64454" lon="1.37923">
        <ele>148</ele>
        <time>2024-02-11T10:34:44Z</time>
      </trkpt>
      <trkpt lat="43.64455" lon="1.37925">
        <ele>148</ele>
        <time>2024-02-11T10:34:45Z</time>
      </trkpt>
      <trkpt lat="43.64456" lon="1.3793">
        <ele>148</ele>
        <time>2024-02-11T10:34:46Z</time>
      </trkpt>
      <trkpt lat="43.64457" lon="1.37931">
        <ele>149</ele>
        <time>2024-02-11T10:34:47Z</time>
      </trkpt>
      <trkpt lat="43.64458" lon="1.37934">
        <ele>149</ele>
        <time>2024-02-11T10:34:48Z</time>
      </trkpt>
      <trkpt lat="43.6446" lon="1.37937">
        <ele>148</ele>
        <time>2024-02-11T10:34:49Z</time>
      </trkpt>
      <trkpt lat="43.64461" lon="1.3794">
        <ele>148</ele>
        <time>2024-02-11T10:34:50Z</time>
      </trkpt>
      <trkpt lat="43.64461" lon="1.3794">
        <ele>148</ele>
        <time>2024-02-11T10:34:51Z</time>
      </trkpt>
      <trkpt lat="43.64462" lon="1.37943">
        <ele>148</ele>
        <time>2024-02-11T10:34:52Z</time>
      </trkpt>
      <trkpt lat="43.64462" lon="1.37943">
        <ele>149</ele>
        <time>2024-02-11T10:34:53Z</time>
      </trkpt>
      <trkpt lat="43.64462" lon="1.37943">
        <ele>149</ele>
        <time>2024-02-11T10:34:54Z</time>
      </trkpt>
      <trkpt lat="43.64464" lon="1.37946">
        <ele>149</ele>
        <time>2024-02-11T10:34:55Z</time>
      </trkpt>
      <trkpt lat="43.64464" lon="1.37946">
        <ele>149</ele>
        <time>2024-02-11T10:34:56Z</time>
      </trkpt>
      <trkpt lat="43.64466" lon="1.37948">
        <ele>149</ele>
        <time>2024-02-11T10:34:57Z</time>
      </trkpt>
      <trkpt lat="43.64466" lon="1.37948">
        <ele>149</ele>
        <time>2024-02-11T10:34:58Z</time>
      </trkpt>
      <trkpt lat="43.64469" lon="1.37949">
        <ele>149</ele>
        <time>2024-02-11T10:34:59Z</time>
      </trkpt>
      <trkpt lat="43.64469" lon="1.37949">
        <ele>148</ele>
        <time>2024-02-11T10:35:00Z</time>
      </trkpt>
      <trkpt lat="43.64471" lon="1.3795">
        <ele>148</ele>
        <time>2024-02-11T10:35:01Z</time>
      </trkpt>
      <trkpt lat="43.64471" lon="1.3795">
        <ele>149</ele>
        <time>2024-02-11T10:35:02Z</time>
      </trkpt>
      <trkpt lat="43.64474" lon="1.37952">
        <ele>149</ele>
        <time>2024-02-11T10:35:03Z</time>
      </trkpt>
      <trkpt lat="43.64474" lon="1.37952">
        <ele>149</ele>
        <time>2024-02-11T10:35:04Z</time>
      </trkpt>
      <trkpt lat="43.64476" lon="1.37954">
        <ele>149</ele>
        <time>2024-02-11T10:35:05Z</time>
      </trkpt>
      <trkpt lat="43.64476" lon="1.37954">
        <ele>149</ele>
        <time>2024-02-11T10:35:06Z</time>
      </trkpt>
      <trkpt lat="43.64478" lon="1.37955">
        <ele>149</ele>
        <time>2024-02-11T10:35:07Z</time>
      </trkpt>
      <trkpt lat="43.64478" lon="1.37955">
        <ele>149</ele>
        <time>2024-02-11T10:35:08Z</time>
      </trkpt>
      <trkpt lat="43.64481" lon="1.37956">
        <ele>149</ele>
        <time>2024-02-11T10:35:09Z</time>
      </trkpt>
      <trkpt lat="43.64481" lon="1.37956">
        <ele>149</ele>
        <time>2024-02-11T10:35:10Z</time>
      </trkpt>
      <trkpt lat="43.64483" lon="1.37957">
        <ele>149</ele>
        <time>2024-02-11T10:35:11Z</time>
      </trkpt>
      <trkpt lat="43.64483" lon="1.37957">
        <ele>149</ele>
        <time>2024-02-11T10:35:12Z</time>
      </trkpt>
      <trkpt lat="43.64486" lon="1.37958">
        <ele>148</ele>
        <time>2024-02-11T10:35:13Z</time>
      </trkpt>
      <trkpt lat="43.64486" lon="1.37958">
        <ele>148</ele>
        <time>2024-02-11T10:35:14Z</time>
      </trkpt>
      <trkpt lat="43.64488" lon="1.3796">
        <ele>148</ele>
        <time>2024-02-11T10:35:15Z</time>
      </trkpt>
      <trkpt lat="43.64488" lon="1.3796">
        <ele>148</ele>
        <time>2024-02-11T10:35:16Z</time>
      </trkpt>
      <trkpt lat="43.64491" lon="1.37961">
        <ele>148</ele>
        <time>2024-02-11T10:35:17Z</time>
      </trkpt>
      <trkpt lat="43.64491" lon="1.37961">
        <ele>148</ele>
        <time>2024-02-11T10:35:18Z</time>
      </trkpt>
      <trkpt lat="43.64493" lon="1.37962">
        <ele>148</ele>
        <time>2024-02-11T10:35:19Z</time>
      </trkpt>
      <trkpt lat="43.64493" lon="1.37962">
        <ele>148</ele>
        <time>2024-02-11T10:35:20Z</time>
      </trkpt>
      <trkpt lat="43.64495" lon="1.37964">
        <ele>148</ele>
        <time>2024-02-11T10:35:21Z</time>
      </trkpt>
      <trkpt lat="43.64495" lon="1.37964">
        <ele>148</ele>
        <time>2024-02-11T10:35:22Z</time>
      </trkpt>
      <trkpt lat="43.64498" lon="1.37965">
        <ele>148</ele>
        <time>2024-02-11T10:35:23Z</time>
      </trkpt>
      <trkpt lat="43.64498" lon="1.37965">
        <ele>148</ele>
        <time>2024-02-11T10:35:24Z</time>
      </trkpt>
      <trkpt lat="43.645" lon="1.37967">
        <ele>147</ele>
        <time>2024-02-11T10:35:25Z</time>
      </trkpt>
      <trkpt lat="43.645" lon="1.37967">
        <ele>148</ele>
        <time>2024-02-11T10:35:26Z</time>
      </trkpt>
      <trkpt lat="43.64502" lon="1.37968">
        <ele>148</ele>
        <time>2024-02-11T10:35:27Z</time>
      </trkpt>
      <trkpt lat="43.64502" lon="1.37968">
        <ele>148</ele>
        <time>2024-02-11T10:35:28Z</time>
      </trkpt>
      <trkpt lat="43.64505" lon="1.37969">
        <ele>149</ele>
        <time>2024-02-11T10:35:29Z</time>
      </trkpt>
      <trkpt lat="43.64505" lon="1.37969">
        <ele>149</ele>
        <time>2024-02-11T10:35:30Z</time>
      </trkpt>
      <trkpt lat="43.64507" lon="1.37971">
        <ele>149</ele>
        <time>2024-02-11T10:35:31Z</time>
      </trkpt>
      <trkpt lat="43.64507" lon="1.37971">
        <ele>149</ele>
        <time>2024-02-11T10:35:32Z</time>
      </trkpt>
      <trkpt lat="43.64509" lon="1.37972">
        <ele>149</ele>
        <time>2024-02-11T10:35:33Z</time>
      </trkpt>
      <trkpt lat="43.64509" lon="1.37972">
        <ele>149</ele>
        <time>2024-02-11T10:35:34Z</time>
      </trkpt>
      <trkpt lat="43.64511" lon="1.37974">
        <ele>149</ele>
        <time>2024-02-11T10:35:35Z</time>
      </trkpt>
      <trkpt lat="43.64511" lon="1.37974">
        <ele>149</ele>
        <time>2024-02-11T10:35:36Z</time>
      </trkpt>
      <trkpt lat="43.64514" lon="1.37975">
        <ele>149</ele>
        <time>2024-02-11T10:35:37Z</time>
      </trkpt>
      <trkpt lat="43.64514" lon="1.37975">
        <ele>149</ele>
        <time>2024-02-11T10:35:38Z</time>
      </trkpt>
      <trkpt lat="43.64516" lon="1.37976">
        <ele>149</ele>
        <time>2024-02-11T10:35:39Z</time>
      </trkpt>
      <trkpt lat="43.64516" lon="1.37976">
        <ele>149</ele>
        <time>2024-02-11T10:35:40Z</time>
      </trkpt>
      <trkpt lat="43.64518" lon="1.37977">
        <ele>149</ele>
        <time>2024-02-11T10:35:41Z</time>
      </trkpt>
      <trkpt lat="43.64518" lon="1.37977">
        <ele>148</ele>
        <time>2024-02-11T10:35:42Z</time>
      </trkpt>
      <trkpt lat="43.6452" lon="1.37978">
        <ele>148</ele>
        <time>2024-02-11T10:35:43Z</time>
      </trkpt>
      <trkpt lat="43.6452" lon="1.37978">
        <ele>148</ele>
        <time>2024-02-11T10:35:44Z</time>
      </trkpt>
      <trkpt lat="43.64522" lon="1.3798">
        <ele>148</ele>
        <time>2024-02-11T10:35:45Z</time>
      </trkpt>
      <trkpt lat="43.64522" lon="1.3798">
        <ele>148</ele>
        <time>2024-02-11T10:35:46Z</time>
      </trkpt>
      <trkpt lat="43.64524" lon="1.37981">
        <ele>148</ele>
        <time>2024-02-11T10:35:47Z</time>
      </trkpt>
      <trkpt lat="43.64524" lon="1.37981">
        <ele>148</ele>
        <time>2024-02-11T10:35:48Z</time>
      </trkpt>
      <trkpt lat="43.64526" lon="1.37983">
        <ele>149</ele>
        <time>2024-02-11T10:35:49Z</time>
      </trkpt>
      <trkpt lat="43.64529" lon="1.37984">
        <ele>148</ele>
        <time>2024-02-11T10:35:51Z</time>
      </trkpt>
      <trkpt lat="43.64529" lon="1.37984">
        <ele>148</ele>
        <time>2024-02-11T10:35:52Z</time>
      </trkpt>
      <trkpt lat="43.64531" lon="1.37985">
        <ele>148</ele>
        <time>2024-02-11T10:35:53Z</time>
      </trkpt>
      <trkpt lat="43.64531" lon="1.37985">
        <ele>148</ele>
        <time>2024-02-11T10:35:54Z</time>
      </trkpt>
      <trkpt lat="43.64533" lon="1.37987">
        <ele>148</ele>
        <time>2024-02-11T10:35:55Z</time>
      </trkpt>
      <trkpt lat="43.64533" lon="1.37987">
        <ele>149</ele>
        <time>2024-02-11T10:35:56Z</time>
      </trkpt>
      <trkpt lat="43.64535" lon="1.37987">
        <ele>149</ele>
        <time>2024-02-11T10:35:57Z</time>
      </trkpt>
      <trkpt lat="43.64535" lon="1.37987">
        <ele>149</ele>
        <time>2024-02-11T10:35:58Z</time>
      </trkpt>
      <trkpt lat="43.64538" lon="1.37987">
        <ele>149</ele>
        <time>2024-02-11T10:35:59Z</time>
      </trkpt>
      <trkpt lat="43.64538" lon="1.37987">
        <ele>148</ele>
        <time>2024-02-11T10:36:00Z</time>
      </trkpt>
      <trkpt lat="43.6454" lon="1.37987">
        <ele>148</ele>
        <time>2024-02-11T10:36:01Z</time>
      </trkpt>
      <trkpt lat="43.6454" lon="1.37987">
        <ele>148</ele>
        <time>2024-02-11T10:36:02Z</time>
      </trkpt>
      <trkpt lat="43.64542" lon="1.37987">
        <ele>148</ele>
        <time>2024-02-11T10:36:03Z</time>
      </trkpt>
      <trkpt lat="43.64542" lon="1.37987">
        <ele>148</ele>
        <time>2024-02-11T10:36:04Z</time>
      </trkpt>
      <trkpt lat="43.64542" lon="1.37987">
        <ele>148</ele>
        <time>2024-02-11T10:36:05Z</time>
      </trkpt>
      <trkpt lat="43.64545" lon="1.37986">
        <ele>148</ele>
        <time>2024-02-11T10:36:06Z</time>
      </trkpt>
      <trkpt lat="43.64545" lon="1.37986">
        <ele>148</ele>
        <time>2024-02-11T10:36:07Z</time>
      </trkpt>
      <trkpt lat="43.64547" lon="1.37984">
        <ele>148</ele>
        <time>2024-02-11T10:36:08Z</time>
      </trkpt>
      <trkpt lat="43.64547" lon="1.37984">
        <ele>148</ele>
        <time>2024-02-11T10:36:09Z</time>
      </trkpt>
      <trkpt lat="43.64549" lon="1.37983">
        <ele>148</ele>
        <time>2024-02-11T10:36:10Z</time>
      </trkpt>
      <trkpt lat="43.64549" lon="1.37983">
        <ele>148</ele>
        <time>2024-02-11T10:36:11Z</time>
      </trkpt>
      <trkpt lat="43.64549" lon="1.37983">
        <ele>148</ele>
        <time>2024-02-11T10:36:12Z</time>
      </trkpt>
      <trkpt lat="43.64551" lon="1.37981">
        <ele>148</ele>
        <time>2024-02-11T10:36:13Z</time>
      </trkpt>
      <trkpt lat="43.64551" lon="1.37981">
        <ele>148</ele>
        <time>2024-02-11T10:36:14Z</time>
      </trkpt>
      <trkpt lat="43.64553" lon="1.37979">
        <ele>148</ele>
        <time>2024-02-11T10:36:15Z</time>
      </trkpt>
      <trkpt lat="43.64553" lon="1.37979">
        <ele>147</ele>
        <time>2024-02-11T10:36:16Z</time>
      </trkpt>
      <trkpt lat="43.64554" lon="1.37977">
        <ele>147</ele>
        <time>2024-02-11T10:36:17Z</time>
      </trkpt>
      <trkpt lat="43.64554" lon="1.37977">
        <ele>148</ele>
        <time>2024-02-11T10:36:18Z</time>
      </trkpt>
      <trkpt lat="43.64556" lon="1.37975">
        <ele>148</ele>
        <time>2024-02-11T10:36:19Z</time>
      </trkpt>
      <trkpt lat="43.64556" lon="1.37975">
        <ele>148</ele>
        <time>2024-02-11T10:36:20Z</time>
      </trkpt>
      <trkpt lat="43.64558" lon="1.37973">
        <ele>148</ele>
        <time>2024-02-11T10:36:21Z</time>
      </trkpt>
      <trkpt lat="43.64558" lon="1.37973">
        <ele>149</ele>
        <time>2024-02-11T10:36:22Z</time>
      </trkpt>
      <trkpt lat="43.64559" lon="1.3797">
        <ele>149</ele>
        <time>2024-02-11T10:36:23Z</time>
      </trkpt>
      <trkpt lat="43.64559" lon="1.3797">
        <ele>149</ele>
        <time>2024-02-11T10:36:24Z</time>
      </trkpt>
      <trkpt lat="43.64559" lon="1.37967">
        <ele>150</ele>
        <time>2024-02-11T10:36:25Z</time>
      </trkpt>
      <trkpt lat="43.64559" lon="1.37967">
        <ele>150</ele>
        <time>2024-02-11T10:36:26Z</time>
      </trkpt>
      <trkpt lat="43.6456" lon="1.37963">
        <ele>150</ele>
        <time>2024-02-11T10:36:27Z</time>
      </trkpt>
      <trkpt lat="43.6456" lon="1.37963">
        <ele>150</ele>
        <time>2024-02-11T10:36:28Z</time>
      </trkpt>
      <trkpt lat="43.64561" lon="1.3796">
        <ele>150</ele>
        <time>2024-02-11T10:36:29Z</time>
      </trkpt>
      <trkpt lat="43.64561" lon="1.3796">
        <ele>150</ele>
        <time>2024-02-11T10:36:30Z</time>
      </trkpt>
      <trkpt lat="43.64561" lon="1.37957">
        <ele>150</ele>
        <time>2024-02-11T10:36:31Z</time>
      </trkpt>
      <trkpt lat="43.64561" lon="1.37957">
        <ele>150</ele>
        <time>2024-02-11T10:36:32Z</time>
      </trkpt>
      <trkpt lat="43.64561" lon="1.37957">
        <ele>150</ele>
        <time>2024-02-11T10:36:33Z</time>
      </trkpt>
      <trkpt lat="43.64561" lon="1.37954">
        <ele>150</ele>
        <time>2024-02-11T10:36:34Z</time>
      </trkpt>
      <trkpt lat="43.64561" lon="1.37954">
        <ele>150</ele>
        <time>2024-02-11T10:36:35Z</time>
      </trkpt>
      <trkpt lat="43.64561" lon="1.37954">
        <ele>150</ele>
        <time>2024-02-11T10:36:36Z</time>
      </trkpt>
      <trkpt lat="43.6456" lon="1.37951">
        <ele>150</ele>
        <time>2024-02-11T10:36:37Z</time>
      </trkpt>
      <trkpt lat="43.6456" lon="1.37951">
        <ele>150</ele>
        <time>2024-02-11T10:36:38Z</time>
      </trkpt>
      <trkpt lat="43.64557" lon="1.3795">
        <ele>150</ele>
        <time>2024-02-11T10:36:39Z</time>
      </trkpt>
      <trkpt lat="43.64557" lon="1.3795">
        <ele>150</ele>
        <time>2024-02-11T10:36:40Z</time>
      </trkpt>
      <trkpt lat="43.64555" lon="1.3795">
        <ele>150</ele>
        <time>2024-02-11T10:36:41Z</time>
      </trkpt>
      <trkpt lat="43.64555" lon="1.3795">
        <ele>149</ele>
        <time>2024-02-11T10:36:42Z</time>
      </trkpt>
      <trkpt lat="43.64553" lon="1.3795">
        <ele>149</ele>
        <time>2024-02-11T10:36:43Z</time>
      </trkpt>
      <trkpt lat="43.64553" lon="1.3795">
        <ele>149</ele>
        <time>2024-02-11T10:36:44Z</time>
      </trkpt>
      <trkpt lat="43.6455" lon="1.3795">
        <ele>149</ele>
        <time>2024-02-11T10:36:45Z</time>
      </trkpt>
      <trkpt lat="43.6455" lon="1.3795">
        <ele>149</ele>
        <time>2024-02-11T10:36:46Z</time>
      </trkpt>
      <trkpt lat="43.64548" lon="1.3795">
        <ele>149</ele>
        <time>2024-02-11T10:36:47Z</time>
      </trkpt>
      <trkpt lat="43.64548" lon="1.3795">
        <ele>149</ele>
        <time>2024-02-11T10:36:48Z</time>
      </trkpt>
      <trkpt lat="43.64545" lon="1.37949">
        <ele>149</ele>
        <time>2024-02-11T10:36:49Z</time>
      </trkpt>
      <trkpt lat="43.64545" lon="1.37949">
        <ele>149</ele>
        <time>2024-02-11T10:36:50Z</time>
      </trkpt>
      <trkpt lat="43.64543" lon="1.37947">
        <ele>150</ele>
        <time>2024-02-11T10:36:51Z</time>
      </trkpt>
      <trkpt lat="43.64543" lon="1.37947">
        <ele>150</ele>
        <time>2024-02-11T10:36:52Z</time>
      </trkpt>
      <trkpt lat="43.64544" lon="1.37944">
        <ele>150</ele>
        <time>2024-02-11T10:36:53Z</time>
      </trkpt>
      <trkpt lat="43.64544" lon="1.37944">
        <ele>150</ele>
        <time>2024-02-11T10:36:54Z</time>
      </trkpt>
      <trkpt lat="43.64545" lon="1.37941">
        <ele>150</ele>
        <time>2024-02-11T10:36:55Z</time>
      </trkpt>
      <trkpt lat="43.64545" lon="1.37941">
        <ele>150</ele>
        <time>2024-02-11T10:36:56Z</time>
      </trkpt>
      <trkpt lat="43.64547" lon="1.37939">
        <ele>150</ele>
        <time>2024-02-11T10:36:57Z</time>
      </trkpt>
      <trkpt lat="43.64547" lon="1.37939">
        <ele>149</ele>
        <time>2024-02-11T10:36:58Z</time>
      </trkpt>
      <trkpt lat="43.64549" lon="1.37936">
        <ele>148</ele>
        <time>2024-02-11T10:36:59Z</time>
      </trkpt>
      <trkpt lat="43.64549" lon="1.37936">
        <ele>148</ele>
        <time>2024-02-11T10:37:00Z</time>
      </trkpt>
      <trkpt lat="43.6455" lon="1.37933">
        <ele>148</ele>
        <time>2024-02-11T10:37:01Z</time>
      </trkpt>
      <trkpt lat="43.6455" lon="1.37933">
        <ele>149</ele>
        <time>2024-02-11T10:37:02Z</time>
      </trkpt>
      <trkpt lat="43.64552" lon="1.37931">
        <ele>150</ele>
        <time>2024-02-11T10:37:03Z</time>
      </trkpt>
      <trkpt lat="43.64552" lon="1.37931">
        <ele>150</ele>
        <time>2024-02-11T10:37:04Z</time>
      </trkpt>
      <trkpt lat="43.64553" lon="1.37928">
        <ele>150</ele>
        <time>2024-02-11T10:37:05Z</time>
      </trkpt>
      <trkpt lat="43.64553" lon="1.37928">
        <ele>150</ele>
        <time>2024-02-11T10:37:06Z</time>
      </trkpt>
      <trkpt lat="43.64554" lon="1.37925">
        <ele>150</ele>
        <time>2024-02-11T10:37:07Z</time>
      </trkpt>
      <trkpt lat="43.64554" lon="1.37925">
        <ele>150</ele>
        <time>2024-02-11T10:37:08Z</time>
      </trkpt>
      <trkpt lat="43.64552" lon="1.37924">
        <ele>150</ele>
        <time>2024-02-11T10:37:09Z</time>
      </trkpt>
      <trkpt lat="43.64548" lon="1.37925">
        <ele>150</ele>
        <time>2024-02-11T10:37:10Z</time>
      </trkpt>
      <trkpt lat="43.64545" lon="1.37926">
        <ele>150</ele>
        <time>2024-02-11T10:37:11Z</time>
      </trkpt>
      <trkpt lat="43.64541" lon="1.37928">
        <ele>149</ele>
        <time>2024-02-11T10:37:12Z</time>
      </trkpt>
      <trkpt lat="43.64537" lon="1.37929">
        <ele>149</ele>
        <time>2024-02-11T10:37:13Z</time>
      </trkpt>
      <trkpt lat="43.64533" lon="1.37931">
        <ele>149</ele>
        <time>2024-02-11T10:37:14Z</time>
      </trkpt>
      <trkpt lat="43.64529" lon="1.37933">
        <ele>149</ele>
        <time>2024-02-11T10:37:15Z</time>
      </trkpt>
      <trkpt lat="43.64525" lon="1.37935">
        <ele>149</ele>
        <time>2024-02-11T10:37:16Z</time>
      </trkpt>
      <trkpt lat="43.64522" lon="1.37937">
        <ele>149</ele>
        <time>2024-02-11T10:37:17Z</time>
      </trkpt>
      <trkpt lat="43.64519" lon="1.37939">
        <ele>149</ele>
        <time>2024-02-11T10:37:18Z</time>
      </trkpt>
      <trkpt lat="43.64515" lon="1.37941">
        <ele>149</ele>
        <time>2024-02-11T10:37:19Z</time>
      </trkpt>
      <trkpt lat="43.64513" lon="1.37944">
        <ele>149</ele>
        <time>2024-02-11T10:37:20Z</time>
      </trkpt>
      <trkpt lat="43.6451" lon="1.37946">
        <ele>149</ele>
        <time>2024-02-11T10:37:21Z</time>
      </trkpt>
      <trkpt lat="43.64508" lon="1.37949">
        <ele>149</ele>
        <time>2024-02-11T10:37:22Z</time>
      </trkpt>
      <trkpt lat="43.64505" lon="1.37952">
        <ele>149</ele>
        <time>2024-02-11T10:37:23Z</time>
      </trkpt>
      <trkpt lat="43.64502" lon="1.37955">
        <ele>149</ele>
        <time>2024-02-11T10:37:24Z</time>
      </trkpt>
      <trkpt lat="43.64502" lon="1.37955">
        <ele>149</ele>
        <time>2024-02-11T10:37:25Z</time>
      </trkpt>
      <trkpt lat="43.64504" lon="1.37952">
        <ele>149</ele>
        <time>2024-02-11T10:37:26Z</time>
      </trkpt>
      <trkpt lat="43.64504" lon="1.37952">
        <ele>149</ele>
        <time>2024-02-11T10:37:27Z</time>
      </trkpt>
      <trkpt lat="43.64506" lon="1.37945">
        <ele>149</ele>
        <time>2024-02-11T10:37:28Z</time>
      </trkpt>
      <trkpt lat="43.64506" lon="1.37943">
        <ele>148</ele>
        <time>2024-02-11T10:37:29Z</time>
      </trkpt>
      <trkpt lat="43.64506" lon="1.3794">
        <ele>148</ele>
        <time>2024-02-11T10:37:30Z</time>
      </trkpt>
      <trkpt lat="43.64508" lon="1.37937">
        <ele>148</ele>
        <time>2024-02-11T10:37:31Z</time>
      </trkpt>
      <trkpt lat="43.64508" lon="1.37934">
        <ele>148</ele>
        <time>2024-02-11T10:37:32Z</time>
      </trkpt>
      <trkpt lat="43.6451" lon="1.37931">
        <ele>148</ele>
        <time>2024-02-11T10:37:33Z</time>
      </trkpt>
      <trkpt lat="43.64511" lon="1.37928">
        <ele>149</ele>
        <time>2024-02-11T10:37:34Z</time>
      </trkpt>
      <trkpt lat="43.64511" lon="1.37924">
        <ele>149</ele>
        <time>2024-02-11T10:37:35Z</time>
      </trkpt>
      <trkpt lat="43.64512" lon="1.37921">
        <ele>149</ele>
        <time>2024-02-11T10:37:36Z</time>
      </trkpt>
      <trkpt lat="43.64513" lon="1.37917">
        <ele>149</ele>
        <time>2024-02-11T10:37:37Z</time>
      </trkpt>
      <trkpt lat="43.64514" lon="1.37914">
        <ele>149</ele>
        <time>2024-02-11T10:37:38Z</time>
      </trkpt>
      <trkpt lat="43.64515" lon="1.37911">
        <ele>149</ele>
        <time>2024-02-11T10:37:39Z</time>
      </trkpt>
      <trkpt lat="43.64516" lon="1.37907">
        <ele>149</ele>
        <time>2024-02-11T10:37:40Z</time>
      </trkpt>
      <trkpt lat="43.64516" lon="1.37904">
        <ele>149</ele>
        <time>2024-02-11T10:37:41Z</time>
      </trkpt>
      <trkpt lat="43.64517" lon="1.379">
        <ele>150</ele>
        <time>2024-02-11T10:37:42Z</time>
      </trkpt>
      <trkpt lat="43.64517" lon="1.379">
        <ele>150</ele>
        <time>2024-02-11T10:37:43Z</time>
      </trkpt>
      <trkpt lat="43.64517" lon="1.379">
        <ele>149</ele>
        <time>2024-02-11T10:37:44Z</time>
      </trkpt>
      <trkpt lat="43.64515" lon="1.37898">
        <ele>149</ele>
        <time>2024-02-11T10:37:45Z</time>
      </trkpt>
      <trkpt lat="43.64512" lon="1.379">
        <ele>149</ele>
        <time>2024-02-11T10:37:46Z</time>
      </trkpt>
      <trkpt lat="43.64509" lon="1.37904">
        <ele>149</ele>
        <time>2024-02-11T10:37:47Z</time>
      </trkpt>
      <trkpt lat="43.64505" lon="1.37907">
        <ele>149</ele>
        <time>2024-02-11T10:37:48Z</time>
      </trkpt>
      <trkpt lat="43.64505" lon="1.37907">
        <ele>149</ele>
        <time>2024-02-11T10:37:49Z</time>
      </trkpt>
      <trkpt lat="43.64498" lon="1.37913">
        <ele>149</ele>
        <time>2024-02-11T10:37:50Z</time>
      </trkpt>
      <trkpt lat="43.64498" lon="1.37913">
        <ele>149</ele>
        <time>2024-02-11T10:37:51Z</time>
      </trkpt>
      <trkpt lat="43.64494" lon="1.37917">
        <ele>149</ele>
        <time>2024-02-11T10:37:52Z</time>
      </trkpt>
      <trkpt lat="43.64489" lon="1.37921">
        <ele>149</ele>
        <time>2024-02-11T10:37:53Z</time>
      </trkpt>
      <trkpt lat="43.64485" lon="1.37925">
        <ele>149</ele>
        <time>2024-02-11T10:37:54Z</time>
      </trkpt>
      <trkpt lat="43.64481" lon="1.37928">
        <ele>149</ele>
        <time>2024-02-11T10:37:55Z</time>
      </trkpt>
      <trkpt lat="43.64477" lon="1.37931">
        <ele>149</ele>
        <time>2024-02-11T10:37:56Z</time>
      </trkpt>
      <trkpt lat="43.64474" lon="1.37933">
        <ele>149</ele>
        <time>2024-02-11T10:37:57Z</time>
      </trkpt>
      <trkpt lat="43.6447" lon="1.37935">
        <ele>149</ele>
        <time>2024-02-11T10:37:58Z</time>
      </trkpt>
      <trkpt lat="43.64467" lon="1.37936">
        <ele>149</ele>
        <time>2024-02-11T10:37:59Z</time>
      </trkpt>
      <trkpt lat="43.64467" lon="1.37936">
        <ele>149</ele>
        <time>2024-02-11T10:38:00Z</time>
      </trkpt>
      <trkpt lat="43.64467" lon="1.37931">
        <ele>149</ele>
        <time>2024-02-11T10:38:01Z</time>
      </trkpt>
      <trkpt lat="43.64468" lon="1.37928">
        <ele>148</ele>
        <time>2024-02-11T10:38:02Z</time>
      </trkpt>
      <trkpt lat="43.64469" lon="1.37925">
        <ele>148</ele>
        <time>2024-02-11T10:38:03Z</time>
      </trkpt>
      <trkpt lat="43.6447" lon="1.37922">
        <ele>148</ele>
        <time>2024-02-11T10:38:04Z</time>
      </trkpt>
      <trkpt lat="43.6447" lon="1.37919">
        <ele>148</ele>
        <time>2024-02-11T10:38:05Z</time>
      </trkpt>
      <trkpt lat="43.6447" lon="1.37916">
        <ele>148</ele>
        <time>2024-02-11T10:38:06Z</time>
      </trkpt>
      <trkpt lat="43.6447" lon="1.37913">
        <ele>148</ele>
        <time>2024-02-11T10:38:07Z</time>
      </trkpt>
      <trkpt lat="43.6447" lon="1.3791">
        <ele>148</ele>
        <time>2024-02-11T10:38:08Z</time>
      </trkpt>
      <trkpt lat="43.6447" lon="1.37906">
        <ele>149</ele>
        <time>2024-02-11T10:38:09Z</time>
      </trkpt>
      <trkpt lat="43.64471" lon="1.37903">
        <ele>149</ele>
        <time>2024-02-11T10:38:10Z</time>
      </trkpt>
      <trkpt lat="43.64472" lon="1.37899">
        <ele>149</ele>
        <time>2024-02-11T10:38:11Z</time>
      </trkpt>
      <trkpt lat="43.64474" lon="1.37895">
        <ele>148</ele>
        <time>2024-02-11T10:38:12Z</time>
      </trkpt>
      <trkpt lat="43.64475" lon="1.37892">
        <ele>148</ele>
        <time>2024-02-11T10:38:13Z</time>
      </trkpt>
      <trkpt lat="43.64476" lon="1.37888">
        <ele>148</ele>
        <time>2024-02-11T10:38:14Z</time>
      </trkpt>
      <trkpt lat="43.64476" lon="1.37888">
        <ele>148</ele>
        <time>2024-02-11T10:38:15Z</time>
      </trkpt>
      <trkpt lat="43.64478" lon="1.37885">
        <ele>148</ele>
        <time>2024-02-11T10:38:16Z</time>
      </trkpt>
      <trkpt lat="43.64479" lon="1.37882">
        <ele>149</ele>
        <time>2024-02-11T10:38:17Z</time>
      </trkpt>
      <trkpt lat="43.6448" lon="1.37879">
        <ele>149</ele>
        <time>2024-02-11T10:38:18Z</time>
      </trkpt>
      <trkpt lat="43.64481" lon="1.37876">
        <ele>149</ele>
        <time>2024-02-11T10:38:19Z</time>
      </trkpt>
      <trkpt lat="43.64483" lon="1.37873">
        <ele>149</ele>
        <time>2024-02-11T10:38:20Z</time>
      </trkpt>
      <trkpt lat="43.64484" lon="1.37871">
        <ele>149</ele>
        <time>2024-02-11T10:38:21Z</time>
      </trkpt>
      <trkpt lat="43.64488" lon="1.37878">
        <ele>149</ele>
        <time>2024-02-11T10:38:23Z</time>
      </trkpt>
      <trkpt lat="43.6449" lon="1.37886">
        <ele>149</ele>
        <time>2024-02-11T10:38:24Z</time>
      </trkpt>
      <trkpt lat="43.6449" lon="1.37886">
        <ele>148</ele>
        <time>2024-02-11T10:38:25Z</time>
      </trkpt>
      <trkpt lat="43.64492" lon="1.37898">
        <ele>147</ele>
        <time>2024-02-11T10:38:26Z</time>
      </trkpt>
      <trkpt lat="43.64492" lon="1.37898">
        <ele>147</ele>
        <time>2024-02-11T10:38:27Z</time>
      </trkpt>
      <trkpt lat="43.64493" lon="1.37904">
        <ele>147</ele>
        <time>2024-02-11T10:38:28Z</time>
      </trkpt>
      <trkpt lat="43.64494" lon="1.3791">
        <ele>147</ele>
        <time>2024-02-11T10:38:29Z</time>
      </trkpt>
      <trkpt lat="43.64495" lon="1.37915">
        <ele>148</ele>
        <time>2024-02-11T10:38:30Z</time>
      </trkpt>
      <trkpt lat="43.64496" lon="1.37923">
        <ele>148</ele>
        <time>2024-02-11T10:38:31Z</time>
      </trkpt>
      <trkpt lat="43.64497" lon="1.3793">
        <ele>148</ele>
        <time>2024-02-11T10:38:32Z</time>
      </trkpt>
      <trkpt lat="43.64498" lon="1.37938">
        <ele>148</ele>
        <time>2024-02-11T10:38:33Z</time>
      </trkpt>
      <trkpt lat="43.645" lon="1.37945">
        <ele>148</ele>
        <time>2024-02-11T10:38:34Z</time>
      </trkpt>
      <trkpt lat="43.645" lon="1.37948">
        <ele>148</ele>
        <time>2024-02-11T10:38:35Z</time>
      </trkpt>
      <trkpt lat="43.64502" lon="1.37952">
        <ele>148</ele>
        <time>2024-02-11T10:38:36Z</time>
      </trkpt>
      <trkpt lat="43.64502" lon="1.37952">
        <ele>148</ele>
        <time>2024-02-11T10:38:37Z</time>
      </trkpt>
      <trkpt lat="43.64504" lon="1.37954">
        <ele>148</ele>
        <time>2024-02-11T10:38:38Z</time>
      </trkpt>
      <trkpt lat="43.64504" lon="1.37954">
        <ele>148</ele>
        <time>2024-02-11T10:38:39Z</time>
      </trkpt>
      <trkpt lat="43.64505" lon="1.3795">
        <ele>148</ele>
        <time>2024-02-11T10:38:40Z</time>
      </trkpt>
      <trkpt lat="43.64506" lon="1.37948">
        <ele>148</ele>
        <time>2024-02-11T10:38:41Z</time>
      </trkpt>
      <trkpt lat="43.64506" lon="1.37945">
        <ele>148</ele>
        <time>2024-02-11T10:38:42Z</time>
      </trkpt>
      <trkpt lat="43.64507" lon="1.37942">
        <ele>148</ele>
        <time>2024-02-11T10:38:43Z</time>
      </trkpt>
      <trkpt lat="43.64508" lon="1.37938">
        <ele>148</ele>
        <time>2024-02-11T10:38:44Z</time>
      </trkpt>
      <trkpt lat="43.64509" lon="1.37935">
        <ele>148</ele>
        <time>2024-02-11T10:38:45Z</time>
      </trkpt>
      <trkpt lat="43.6451" lon="1.37932">
        <ele>149</ele>
        <time>2024-02-11T10:38:46Z</time>
      </trkpt>
      <trkpt lat="43.64511" lon="1.37928">
        <ele>149</ele>
        <time>2024-02-11T10:38:47Z</time>
      </trkpt>
      <trkpt lat="43.64512" lon="1.37924">
        <ele>149</ele>
        <time>2024-02-11T10:38:48Z</time>
      </trkpt>
      <trkpt lat="43.64512" lon="1.37921">
        <ele>149</ele>
        <time>2024-02-11T10:38:49Z</time>
      </trkpt>
      <trkpt lat="43.64513" lon="1.37917">
        <ele>148</ele>
        <time>2024-02-11T10:38:50Z</time>
      </trkpt>
      <trkpt lat="43.64514" lon="1.37914">
        <ele>149</ele>
        <time>2024-02-11T10:38:51Z</time>
      </trkpt>
      <trkpt lat="43.64515" lon="1.37911">
        <ele>149</ele>
        <time>2024-02-11T10:38:52Z</time>
      </trkpt>
      <trkpt lat="43.64515" lon="1.37908">
        <ele>149</ele>
        <time>2024-02-11T10:38:53Z</time>
      </trkpt>
      <trkpt lat="43.64516" lon="1.37904">
        <ele>149</ele>
        <time>2024-02-11T10:38:54Z</time>
      </trkpt>
      <trkpt lat="43.64516" lon="1.379">
        <ele>149</ele>
        <time>2024-02-11T10:38:55Z</time>
      </trkpt>
      <trkpt lat="43.64517" lon="1.37897">
        <ele>150</ele>
        <time>2024-02-11T10:38:56Z</time>
      </trkpt>
      <trkpt lat="43.64517" lon="1.37897">
        <ele>150</ele>
        <time>2024-02-11T10:38:57Z</time>
      </trkpt>
      <trkpt lat="43.64519" lon="1.37897">
        <ele>150</ele>
        <time>2024-02-11T10:38:58Z</time>
      </trkpt>
      <trkpt lat="43.64521" lon="1.37903">
        <ele>149</ele>
        <time>2024-02-11T10:38:59Z</time>
      </trkpt>
      <trkpt lat="43.64523" lon="1.37909">
        <ele>148</ele>
        <time>2024-02-11T10:39:00Z</time>
      </trkpt>
      <trkpt lat="43.64523" lon="1.37909">
        <ele>149</ele>
        <time>2024-02-11T10:39:01Z</time>
      </trkpt>
      <trkpt lat="43.64526" lon="1.37921">
        <ele>149</ele>
        <time>2024-02-11T10:39:02Z</time>
      </trkpt>
      <trkpt lat="43.64526" lon="1.37921">
        <ele>149</ele>
        <time>2024-02-11T10:39:03Z</time>
      </trkpt>
      <trkpt lat="43.64529" lon="1.37933">
        <ele>149</ele>
        <time>2024-02-11T10:39:04Z</time>
      </trkpt>
      <trkpt lat="43.64529" lon="1.37933">
        <ele>149</ele>
        <time>2024-02-11T10:39:05Z</time>
      </trkpt>
      <trkpt lat="43.6453" lon="1.37938">
        <ele>149</ele>
        <time>2024-02-11T10:39:06Z</time>
      </trkpt>
      <trkpt lat="43.64531" lon="1.37944">
        <ele>149</ele>
        <time>2024-02-11T10:39:07Z</time>
      </trkpt>
      <trkpt lat="43.64532" lon="1.37949">
        <ele>149</ele>
        <time>2024-02-11T10:39:08Z</time>
      </trkpt>
      <trkpt lat="43.64533" lon="1.37954">
        <ele>148</ele>
        <time>2024-02-11T10:39:09Z</time>
      </trkpt>
      <trkpt lat="43.64534" lon="1.3796">
        <ele>148</ele>
        <time>2024-02-11T10:39:10Z</time>
      </trkpt>
      <trkpt lat="43.64536" lon="1.37965">
        <ele>148</ele>
        <time>2024-02-11T10:39:11Z</time>
      </trkpt>
      <trkpt lat="43.64537" lon="1.37968">
        <ele>148</ele>
        <time>2024-02-11T10:39:12Z</time>
      </trkpt>
      <trkpt lat="43.64538" lon="1.37971">
        <ele>148</ele>
        <time>2024-02-11T10:39:13Z</time>
      </trkpt>
      <trkpt lat="43.64539" lon="1.37973">
        <ele>148</ele>
        <time>2024-02-11T10:39:14Z</time>
      </trkpt>
      <trkpt lat="43.6454" lon="1.37976">
        <ele>149</ele>
        <time>2024-02-11T10:39:15Z</time>
      </trkpt>
      <trkpt lat="43.6454" lon="1.37972">
        <ele>150</ele>
        <time>2024-02-11T10:39:16Z</time>
      </trkpt>
      <trkpt lat="43.6454" lon="1.37972">
        <ele>151</ele>
        <time>2024-02-11T10:39:17Z</time>
      </trkpt>
      <trkpt lat="43.64541" lon="1.37968">
        <ele>151</ele>
        <time>2024-02-11T10:39:18Z</time>
      </trkpt>
      <trkpt lat="43.64541" lon="1.37968">
        <ele>151</ele>
        <time>2024-02-11T10:39:19Z</time>
      </trkpt>
      <trkpt lat="43.64541" lon="1.37965">
        <ele>150</ele>
        <time>2024-02-11T10:39:20Z</time>
      </trkpt>
      <trkpt lat="43.64541" lon="1.37965">
        <ele>150</ele>
        <time>2024-02-11T10:39:21Z</time>
      </trkpt>
      <trkpt lat="43.64542" lon="1.37962">
        <ele>150</ele>
        <time>2024-02-11T10:39:22Z</time>
      </trkpt>
      <trkpt lat="43.64542" lon="1.37962">
        <ele>151</ele>
        <time>2024-02-11T10:39:23Z</time>
      </trkpt>
      <trkpt lat="43.64544" lon="1.37959">
        <ele>151</ele>
        <time>2024-02-11T10:39:24Z</time>
      </trkpt>
      <trkpt lat="43.64544" lon="1.37959">
        <ele>151</ele>
        <time>2024-02-11T10:39:25Z</time>
      </trkpt>
      <trkpt lat="43.64545" lon="1.37957">
        <ele>151</ele>
        <time>2024-02-11T10:39:26Z</time>
      </trkpt>
      <trkpt lat="43.64545" lon="1.37957">
        <ele>151</ele>
        <time>2024-02-11T10:39:27Z</time>
      </trkpt>
      <trkpt lat="43.64547" lon="1.37954">
        <ele>151</ele>
        <time>2024-02-11T10:39:28Z</time>
      </trkpt>
      <trkpt lat="43.64547" lon="1.37954">
        <ele>151</ele>
        <time>2024-02-11T10:39:29Z</time>
      </trkpt>
      <trkpt lat="43.64548" lon="1.37951">
        <ele>150</ele>
        <time>2024-02-11T10:39:30Z</time>
      </trkpt>
      <trkpt lat="43.64548" lon="1.37951">
        <ele>150</ele>
        <time>2024-02-11T10:39:31Z</time>
      </trkpt>
      <trkpt lat="43.64548" lon="1.37947">
        <ele>149</ele>
        <time>2024-02-11T10:39:32Z</time>
      </trkpt>
      <trkpt lat="43.64548" lon="1.37947">
        <ele>149</ele>
        <time>2024-02-11T10:39:33Z</time>
      </trkpt>
      <trkpt lat="43.64549" lon="1.37944">
        <ele>149</ele>
        <time>2024-02-11T10:39:34Z</time>
      </trkpt>
      <trkpt lat="43.64549" lon="1.37944">
        <ele>149</ele>
        <time>2024-02-11T10:39:35Z</time>
      </trkpt>
      <trkpt lat="43.6455" lon="1.37941">
        <ele>149</ele>
        <time>2024-02-11T10:39:36Z</time>
      </trkpt>
      <trkpt lat="43.6455" lon="1.37941">
        <ele>149</ele>
        <time>2024-02-11T10:39:37Z</time>
      </trkpt>
      <trkpt lat="43.64551" lon="1.37938">
        <ele>149</ele>
        <time>2024-02-11T10:39:38Z</time>
      </trkpt>
      <trkpt lat="43.64551" lon="1.37938">
        <ele>149</ele>
        <time>2024-02-11T10:39:39Z</time>
      </trkpt>
      <trkpt lat="43.64552" lon="1.37934">
        <ele>149</ele>
        <time>2024-02-11T10:39:40Z</time>
      </trkpt>
      <trkpt lat="43.64552" lon="1.37934">
        <ele>150</ele>
        <time>2024-02-11T10:39:41Z</time>
      </trkpt>
      <trkpt lat="43.64553" lon="1.37931">
        <ele>150</ele>
        <time>2024-02-11T10:39:42Z</time>
      </trkpt>
      <trkpt lat="43.64553" lon="1.37931">
        <ele>150</ele>
        <time>2024-02-11T10:39:43Z</time>
      </trkpt>
      <trkpt lat="43.64554" lon="1.37928">
        <ele>150</ele>
        <time>2024-02-11T10:39:44Z</time>
      </trkpt>
      <trkpt lat="43.64554" lon="1.37928">
        <ele>150</ele>
        <time>2024-02-11T10:39:45Z</time>
      </trkpt>
      <trkpt lat="43.64555" lon="1.37925">
        <ele>150</ele>
        <time>2024-02-11T10:39:46Z</time>
      </trkpt>
      <trkpt lat="43.64555" lon="1.37925">
        <ele>151</ele>
        <time>2024-02-11T10:39:47Z</time>
      </trkpt>
      <trkpt lat="43.64556" lon="1.37922">
        <ele>151</ele>
        <time>2024-02-11T10:39:48Z</time>
      </trkpt>
      <trkpt lat="43.64556" lon="1.37922">
        <ele>151</ele>
        <time>2024-02-11T10:39:49Z</time>
      </trkpt>
      <trkpt lat="43.64556" lon="1.37919">
        <ele>151</ele>
        <time>2024-02-11T10:39:50Z</time>
      </trkpt>
      <trkpt lat="43.64556" lon="1.37919">
        <ele>150</ele>
        <time>2024-02-11T10:39:51Z</time>
      </trkpt>
      <trkpt lat="43.64557" lon="1.37916">
        <ele>150</ele>
        <time>2024-02-11T10:39:52Z</time>
      </trkpt>
      <trkpt lat="43.64557" lon="1.37916">
        <ele>150</ele>
        <time>2024-02-11T10:39:53Z</time>
      </trkpt>
      <trkpt lat="43.64557" lon="1.37913">
        <ele>150</ele>
        <time>2024-02-11T10:39:54Z</time>
      </trkpt>
      <trkpt lat="43.64557" lon="1.37913">
        <ele>150</ele>
        <time>2024-02-11T10:39:55Z</time>
      </trkpt>
      <trkpt lat="43.64556" lon="1.3791">
        <ele>150</ele>
        <time>2024-02-11T10:39:56Z</time>
      </trkpt>
      <trkpt lat="43.64556" lon="1.3791">
        <ele>149</ele>
        <time>2024-02-11T10:39:57Z</time>
      </trkpt>
      <trkpt lat="43.64555" lon="1.37909">
        <ele>149</ele>
        <time>2024-02-11T10:39:58Z</time>
      </trkpt>
      <trkpt lat="43.64555" lon="1.37909">
        <ele>149</ele>
        <time>2024-02-11T10:39:59Z</time>
      </trkpt>
      <trkpt lat="43.64555" lon="1.37909">
        <ele>149</ele>
        <time>2024-02-11T10:40:00Z</time>
      </trkpt>
      <trkpt lat="43.64554" lon="1.37906">
        <ele>149</ele>
        <time>2024-02-11T10:40:01Z</time>
      </trkpt>
      <trkpt lat="43.64554" lon="1.37906">
        <ele>149</ele>
        <time>2024-02-11T10:40:02Z</time>
      </trkpt>
      <trkpt lat="43.64554" lon="1.37906">
        <ele>149</ele>
        <time>2024-02-11T10:40:03Z</time>
      </trkpt>
      <trkpt lat="43.64552" lon="1.37904">
        <ele>149</ele>
        <time>2024-02-11T10:40:04Z</time>
      </trkpt>
      <trkpt lat="43.64552" lon="1.37904">
        <ele>149</ele>
        <time>2024-02-11T10:40:05Z</time>
      </trkpt>
      <trkpt lat="43.64552" lon="1.37904">
        <ele>149</ele>
        <time>2024-02-11T10:40:06Z</time>
      </trkpt>
      <trkpt lat="43.6455" lon="1.37904">
        <ele>149</ele>
        <time>2024-02-11T10:40:07Z</time>
      </trkpt>
      <trkpt lat="43.6455" lon="1.37904">
        <ele>149</ele>
        <time>2024-02-11T10:40:08Z</time>
      </trkpt>
      <trkpt lat="43.6455" lon="1.37904">
        <ele>148</ele>
        <time>2024-02-11T10:40:09Z</time>
      </trkpt>
      <trkpt lat="43.64548" lon="1.37905">
        <ele>148</ele>
        <time>2024-02-11T10:40:10Z</time>
      </trkpt>
      <trkpt lat="43.64548" lon="1.37905">
        <ele>148</ele>
        <time>2024-02-11T10:40:11Z</time>
      </trkpt>
      <trkpt lat="43.64548" lon="1.37905">
        <ele>148</ele>
        <time>2024-02-11T10:40:12Z</time>
      </trkpt>
      <trkpt lat="43.64545" lon="1.37905">
        <ele>148</ele>
        <time>2024-02-11T10:40:13Z</time>
      </trkpt>
      <trkpt lat="43.64545" lon="1.37905">
        <ele>148</ele>
        <time>2024-02-11T10:40:14Z</time>
      </trkpt>
      <trkpt lat="43.64543" lon="1.37904">
        <ele>149</ele>
        <time>2024-02-11T10:40:15Z</time>
      </trkpt>
      <trkpt lat="43.64543" lon="1.37904">
        <ele>149</ele>
        <time>2024-02-11T10:40:16Z</time>
      </trkpt>
      <trkpt lat="43.64541" lon="1.37903">
        <ele>148</ele>
        <time>2024-02-11T10:40:17Z</time>
      </trkpt>
      <trkpt lat="43.64541" lon="1.37903">
        <ele>148</ele>
        <time>2024-02-11T10:40:18Z</time>
      </trkpt>
      <trkpt lat="43.64538" lon="1.37901">
        <ele>148</ele>
        <time>2024-02-11T10:40:19Z</time>
      </trkpt>
      <trkpt lat="43.64538" lon="1.37901">
        <ele>148</ele>
        <time>2024-02-11T10:40:20Z</time>
      </trkpt>
      <trkpt lat="43.64537" lon="1.379">
        <ele>148</ele>
        <time>2024-02-11T10:40:21Z</time>
      </trkpt>
      <trkpt lat="43.64537" lon="1.379">
        <ele>148</ele>
        <time>2024-02-11T10:40:22Z</time>
      </trkpt>
      <trkpt lat="43.64537" lon="1.379">
        <ele>148</ele>
        <time>2024-02-11T10:40:23Z</time>
      </trkpt>
      <trkpt lat="43.64535" lon="1.37898">
        <ele>149</ele>
        <time>2024-02-11T10:40:24Z</time>
      </trkpt>
      <trkpt lat="43.64535" lon="1.37898">
        <ele>149</ele>
        <time>2024-02-11T10:40:25Z</time>
      </trkpt>
      <trkpt lat="43.64535" lon="1.37898">
        <ele>149</ele>
        <time>2024-02-11T10:40:26Z</time>
      </trkpt>
      <trkpt lat="43.64532" lon="1.37897">
        <ele>149</ele>
        <time>2024-02-11T10:40:27Z</time>
      </trkpt>
      <trkpt lat="43.64532" lon="1.37897">
        <ele>149</ele>
        <time>2024-02-11T10:40:28Z</time>
      </trkpt>
      <trkpt lat="43.6453" lon="1.37896">
        <ele>149</ele>
        <time>2024-02-11T10:40:29Z</time>
      </trkpt>
      <trkpt lat="43.6453" lon="1.37896">
        <ele>149</ele>
        <time>2024-02-11T10:40:30Z</time>
      </trkpt>
      <trkpt lat="43.64527" lon="1.37895">
        <ele>149</ele>
        <time>2024-02-11T10:40:31Z</time>
      </trkpt>
      <trkpt lat="43.64527" lon="1.37895">
        <ele>149</ele>
        <time>2024-02-11T10:40:32Z</time>
      </trkpt>
      <trkpt lat="43.64525" lon="1.37893">
        <ele>149</ele>
        <time>2024-02-11T10:40:33Z</time>
      </trkpt>
      <trkpt lat="43.64525" lon="1.37893">
        <ele>149</ele>
        <time>2024-02-11T10:40:34Z</time>
      </trkpt>
      <trkpt lat="43.64523" lon="1.37891">
        <ele>149</ele>
        <time>2024-02-11T10:40:35Z</time>
      </trkpt>
      <trkpt lat="43.64523" lon="1.37891">
        <ele>149</ele>
        <time>2024-02-11T10:40:36Z</time>
      </trkpt>
      <trkpt lat="43.64521" lon="1.3789">
        <ele>149</ele>
        <time>2024-02-11T10:40:37Z</time>
      </trkpt>
      <trkpt lat="43.64521" lon="1.3789">
        <ele>149</ele>
        <time>2024-02-11T10:40:38Z</time>
      </trkpt>
      <trkpt lat="43.64519" lon="1.37888">
        <ele>148</ele>
        <time>2024-02-11T10:40:39Z</time>
      </trkpt>
      <trkpt lat="43.64519" lon="1.37888">
        <ele>149</ele>
        <time>2024-02-11T10:40:40Z</time>
      </trkpt>
      <trkpt lat="43.64517" lon="1.37887">
        <ele>149</ele>
        <time>2024-02-11T10:40:41Z</time>
      </trkpt>
      <trkpt lat="43.64517" lon="1.37887">
        <ele>149</ele>
        <time>2024-02-11T10:40:42Z</time>
      </trkpt>
      <trkpt lat="43.64514" lon="1.37887">
        <ele>149</ele>
        <time>2024-02-11T10:40:43Z</time>
      </trkpt>
      <trkpt lat="43.64514" lon="1.37887">
        <ele>149</ele>
        <time>2024-02-11T10:40:44Z</time>
      </trkpt>
      <trkpt lat="43.64512" lon="1.37886">
        <ele>150</ele>
        <time>2024-02-11T10:40:45Z</time>
      </trkpt>
      <trkpt lat="43.64512" lon="1.37886">
        <ele>150</ele>
        <time>2024-02-11T10:40:46Z</time>
      </trkpt>
      <trkpt lat="43.64509" lon="1.37886">
        <ele>150</ele>
        <time>2024-02-11T10:40:47Z</time>
      </trkpt>
      <trkpt lat="43.64509" lon="1.37886">
        <ele>149</ele>
        <time>2024-02-11T10:40:48Z</time>
      </trkpt>
      <trkpt lat="43.64507" lon="1.37885">
        <ele>149</ele>
        <time>2024-02-11T10:40:49Z</time>
      </trkpt>
      <trkpt lat="43.64507" lon="1.37885">
        <ele>149</ele>
        <time>2024-02-11T10:40:50Z</time>
      </trkpt>
      <trkpt lat="43.64504" lon="1.37884">
        <ele>149</ele>
        <time>2024-02-11T10:40:51Z</time>
      </trkpt>
      <trkpt lat="43.64504" lon="1.37884">
        <ele>150</ele>
        <time>2024-02-11T10:40:52Z</time>
      </trkpt>
      <trkpt lat="43.64502" lon="1.37883">
        <ele>150</ele>
        <time>2024-02-11T10:40:53Z</time>
      </trkpt>
      <trkpt lat="43.64502" lon="1.37883">
        <ele>149</ele>
        <time>2024-02-11T10:40:54Z</time>
      </trkpt>
      <trkpt lat="43.645" lon="1.37881">
        <ele>149</ele>
        <time>2024-02-11T10:40:55Z</time>
      </trkpt>
      <trkpt lat="43.645" lon="1.37881">
        <ele>149</ele>
        <time>2024-02-11T10:40:56Z</time>
      </trkpt>
      <trkpt lat="43.64498" lon="1.3788">
        <ele>149</ele>
        <time>2024-02-11T10:40:57Z</time>
      </trkpt>
      <trkpt lat="43.64498" lon="1.3788">
        <ele>150</ele>
        <time>2024-02-11T10:40:58Z</time>
      </trkpt>
      <trkpt lat="43.64496" lon="1.37878">
        <ele>150</ele>
        <time>2024-02-11T10:40:59Z</time>
      </trkpt>
      <trkpt lat="43.64496" lon="1.37878">
        <ele>150</ele>
        <time>2024-02-11T10:41:00Z</time>
      </trkpt>
      <trkpt lat="43.64493" lon="1.37877">
        <ele>150</ele>
        <time>2024-02-11T10:41:01Z</time>
      </trkpt>
      <trkpt lat="43.64493" lon="1.37877">
        <ele>149</ele>
        <time>2024-02-11T10:41:02Z</time>
      </trkpt>
      <trkpt lat="43.64491" lon="1.37876">
        <ele>149</ele>
        <time>2024-02-11T10:41:03Z</time>
      </trkpt>
      <trkpt lat="43.64491" lon="1.37876">
        <ele>149</ele>
        <time>2024-02-11T10:41:04Z</time>
      </trkpt>
      <trkpt lat="43.64488" lon="1.37875">
        <ele>149</ele>
        <time>2024-02-11T10:41:05Z</time>
      </trkpt>
      <trkpt lat="43.64488" lon="1.37875">
        <ele>149</ele>
        <time>2024-02-11T10:41:06Z</time>
      </trkpt>
      <trkpt lat="43.64486" lon="1.37875">
        <ele>149</ele>
        <time>2024-02-11T10:41:07Z</time>
      </trkpt>
      <trkpt lat="43.64486" lon="1.37875">
        <ele>149</ele>
        <time>2024-02-11T10:41:08Z</time>
      </trkpt>
      <trkpt lat="43.64483" lon="1.37875">
        <ele>149</ele>
        <time>2024-02-11T10:41:09Z</time>
      </trkpt>
      <trkpt lat="43.64483" lon="1.37875">
        <ele>149</ele>
        <time>2024-02-11T10:41:10Z</time>
      </trkpt>
      <trkpt lat="43.64481" lon="1.37875">
        <ele>149</ele>
        <time>2024-02-11T10:41:11Z</time>
      </trkpt>
      <trkpt lat="43.64481" lon="1.37875">
        <ele>149</ele>
        <time>2024-02-11T10:41:12Z</time>
      </trkpt>
      <trkpt lat="43.64478" lon="1.37876">
        <ele>149</ele>
        <time>2024-02-11T10:41:13Z</time>
      </trkpt>
      <trkpt lat="43.64478" lon="1.37876">
        <ele>149</ele>
        <time>2024-02-11T10:41:14Z</time>
      </trkpt>
      <trkpt lat="43.64476" lon="1.37876">
        <ele>149</ele>
        <time>2024-02-11T10:41:15Z</time>
      </trkpt>
      <trkpt lat="43.64476" lon="1.37876">
        <ele>149</ele>
        <time>2024-02-11T10:41:16Z</time>
      </trkpt>
      <trkpt lat="43.64474" lon="1.37877">
        <ele>149</ele>
        <time>2024-02-11T10:41:17Z</time>
      </trkpt>
      <trkpt lat="43.64474" lon="1.37877">
        <ele>149</ele>
        <time>2024-02-11T10:41:18Z</time>
      </trkpt>
      <trkpt lat="43.64472" lon="1.37878">
        <ele>149</ele>
        <time>2024-02-11T10:41:19Z</time>
      </trkpt>
      <trkpt lat="43.64472" lon="1.37878">
        <ele>149</ele>
        <time>2024-02-11T10:41:20Z</time>
      </trkpt>
      <trkpt lat="43.6447" lon="1.37879">
        <ele>149</ele>
        <time>2024-02-11T10:41:21Z</time>
      </trkpt>
      <trkpt lat="43.6447" lon="1.37879">
        <ele>149</ele>
        <time>2024-02-11T10:41:22Z</time>
      </trkpt>
      <trkpt lat="43.64468" lon="1.37882">
        <ele>149</ele>
        <time>2024-02-11T10:41:23Z</time>
      </trkpt>
      <trkpt lat="43.64468" lon="1.37882">
        <ele>149</ele>
        <time>2024-02-11T10:41:24Z</time>
      </trkpt>
      <trkpt lat="43.64466" lon="1.37884">
        <ele>149</ele>
        <time>2024-02-11T10:41:25Z</time>
      </trkpt>
      <trkpt lat="43.64466" lon="1.37884">
        <ele>149</ele>
        <time>2024-02-11T10:41:26Z</time>
      </trkpt>
      <trkpt lat="43.64464" lon="1.37887">
        <ele>149</ele>
        <time>2024-02-11T10:41:27Z</time>
      </trkpt>
      <trkpt lat="43.64464" lon="1.37887">
        <ele>148</ele>
        <time>2024-02-11T10:41:28Z</time>
      </trkpt>
      <trkpt lat="43.64462" lon="1.37889">
        <ele>148</ele>
        <time>2024-02-11T10:41:29Z</time>
      </trkpt>
      <trkpt lat="43.64462" lon="1.37889">
        <ele>148</ele>
        <time>2024-02-11T10:41:30Z</time>
      </trkpt>
      <trkpt lat="43.64461" lon="1.37891">
        <ele>148</ele>
        <time>2024-02-11T10:41:31Z</time>
      </trkpt>
      <trkpt lat="43.64461" lon="1.37891">
        <ele>148</ele>
        <time>2024-02-11T10:41:32Z</time>
      </trkpt>
      <trkpt lat="43.6446" lon="1.37893">
        <ele>148</ele>
        <time>2024-02-11T10:41:33Z</time>
      </trkpt>
      <trkpt lat="43.6446" lon="1.37893">
        <ele>148</ele>
        <time>2024-02-11T10:41:34Z</time>
      </trkpt>
      <trkpt lat="43.64459" lon="1.37896">
        <ele>148</ele>
        <time>2024-02-11T10:41:35Z</time>
      </trkpt>
      <trkpt lat="43.64459" lon="1.37896">
        <ele>148</ele>
        <time>2024-02-11T10:41:36Z</time>
      </trkpt>
      <trkpt lat="43.64459" lon="1.37896">
        <ele>148</ele>
        <time>2024-02-11T10:41:37Z</time>
      </trkpt>
      <trkpt lat="43.64459" lon="1.37896">
        <ele>148</ele>
        <time>2024-02-11T10:41:38Z</time>
      </trkpt>
      <trkpt lat="43.64459" lon="1.37896">
        <ele>148</ele>
        <time>2024-02-11T10:41:39Z</time>
      </trkpt>
      <trkpt lat="43.64459" lon="1.37896">
        <ele>148</ele>
        <time>2024-02-11T10:41:40Z</time>
      </trkpt>
      <trkpt lat="43.64459" lon="1.37896">
        <ele>148</ele>
        <time>2024-02-11T10:41:41Z</time>
      </trkpt>
      <trkpt lat="43.64459" lon="1.37896">
        <ele>148</ele>
        <time>2024-02-11T10:41:42Z</time>
      </trkpt>
      <trkpt lat="43.64459" lon="1.37896">
        <ele>148</ele>
        <time>2024-02-11T10:41:43Z</time>
      </trkpt>
      <trkpt lat="43.64459" lon="1.37899">
        <ele>148</ele>
        <time>2024-02-11T10:41:44Z</time>
      </trkpt>
      <trkpt lat="43.64459" lon="1.37899">
        <ele>148</ele>
        <time>2024-02-11T10:41:45Z</time>
      </trkpt>
      <trkpt lat="43.64459" lon="1.37899">
        <ele>148</ele>
        <time>2024-02-11T10:41:46Z</time>
      </trkpt>
      <trkpt lat="43.64458" lon="1.37903">
        <ele>148</ele>
        <time>2024-02-11T10:41:47Z</time>
      </trkpt>
      <trkpt lat="43.64458" lon="1.37903">
        <ele>148</ele>
        <time>2024-02-11T10:41:48Z</time>
      </trkpt>
      <trkpt lat="43.64458" lon="1.37906">
        <ele>148</ele>
        <time>2024-02-11T10:41:49Z</time>
      </trkpt>
      <trkpt lat="43.64458" lon="1.37906">
        <ele>148</ele>
        <time>2024-02-11T10:41:50Z</time>
      </trkpt>
      <trkpt lat="43.64458" lon="1.37908">
        <ele>148</ele>
        <time>2024-02-11T10:41:51Z</time>
      </trkpt>
      <trkpt lat="43.64458" lon="1.37908">
        <ele>148</ele>
        <time>2024-02-11T10:41:52Z</time>
      </trkpt>
      <trkpt lat="43.64456" lon="1.37912">
        <ele>148</ele>
        <time>2024-02-11T10:41:53Z</time>
      </trkpt>
      <trkpt lat="43.64456" lon="1.37912">
        <ele>148</ele>
        <time>2024-02-11T10:41:54Z</time>
      </trkpt>
      <trkpt lat="43.64455" lon="1.37915">
        <ele>148</ele>
        <time>2024-02-11T10:41:55Z</time>
      </trkpt>
      <trkpt lat="43.64455" lon="1.37915">
        <ele>148</ele>
        <time>2024-02-11T10:41:56Z</time>
      </trkpt>
      <trkpt lat="43.64455" lon="1.37918">
        <ele>148</ele>
        <time>2024-02-11T10:41:57Z</time>
      </trkpt>
      <trkpt lat="43.64455" lon="1.37918">
        <ele>148</ele>
        <time>2024-02-11T10:41:58Z</time>
      </trkpt>
      <trkpt lat="43.64455" lon="1.37922">
        <ele>149</ele>
        <time>2024-02-11T10:41:59Z</time>
      </trkpt>
      <trkpt lat="43.64455" lon="1.37922">
        <ele>149</ele>
        <time>2024-02-11T10:42:00Z</time>
      </trkpt>
      <trkpt lat="43.64456" lon="1.37925">
        <ele>149</ele>
        <time>2024-02-11T10:42:01Z</time>
      </trkpt>
      <trkpt lat="43.64456" lon="1.37925">
        <ele>149</ele>
        <time>2024-02-11T10:42:02Z</time>
      </trkpt>
      <trkpt lat="43.64456" lon="1.37929">
        <ele>149</ele>
        <time>2024-02-11T10:42:03Z</time>
      </trkpt>
      <trkpt lat="43.64456" lon="1.37929">
        <ele>149</ele>
        <time>2024-02-11T10:42:04Z</time>
      </trkpt>
      <trkpt lat="43.64457" lon="1.37932">
        <ele>149</ele>
        <time>2024-02-11T10:42:05Z</time>
      </trkpt>
      <trkpt lat="43.64457" lon="1.37932">
        <ele>148</ele>
        <time>2024-02-11T10:42:06Z</time>
      </trkpt>
      <trkpt lat="43.64459" lon="1.37936">
        <ele>148</ele>
        <time>2024-02-11T10:42:07Z</time>
      </trkpt>
      <trkpt lat="43.64459" lon="1.37936">
        <ele>148</ele>
        <time>2024-02-11T10:42:08Z</time>
      </trkpt>
      <trkpt lat="43.64461" lon="1.37939">
        <ele>148</ele>
        <time>2024-02-11T10:42:09Z</time>
      </trkpt>
      <trkpt lat="43.64464" lon="1.37942">
        <ele>149</ele>
        <time>2024-02-11T10:42:10Z</time>
      </trkpt>
      <trkpt lat="43.64467" lon="1.37944">
        <ele>149</ele>
        <time>2024-02-11T10:42:11Z</time>
      </trkpt>
      <trkpt lat="43.6447" lon="1.37947">
        <ele>149</ele>
        <time>2024-02-11T10:42:12Z</time>
      </trkpt>
      <trkpt lat="43.64474" lon="1.37949">
        <ele>149</ele>
        <time>2024-02-11T10:42:13Z</time>
      </trkpt>
      <trkpt lat="43.64477" lon="1.37951">
        <ele>149</ele>
        <time>2024-02-11T10:42:14Z</time>
      </trkpt>
      <trkpt lat="43.64481" lon="1.37954">
        <ele>149</ele>
        <time>2024-02-11T10:42:15Z</time>
      </trkpt>
      <trkpt lat="43.64484" lon="1.37957">
        <ele>148</ele>
        <time>2024-02-11T10:42:16Z</time>
      </trkpt>
      <trkpt lat="43.64489" lon="1.37959">
        <ele>148</ele>
        <time>2024-02-11T10:42:17Z</time>
      </trkpt>
      <trkpt lat="43.64493" lon="1.37962">
        <ele>148</ele>
        <time>2024-02-11T10:42:18Z</time>
      </trkpt>
      <trkpt lat="43.64497" lon="1.37964">
        <ele>148</ele>
        <time>2024-02-11T10:42:19Z</time>
      </trkpt>
      <trkpt lat="43.64501" lon="1.37966">
        <ele>148</ele>
        <time>2024-02-11T10:42:20Z</time>
      </trkpt>
      <trkpt lat="43.64505" lon="1.37969">
        <ele>148</ele>
        <time>2024-02-11T10:42:21Z</time>
      </trkpt>
      <trkpt lat="43.64509" lon="1.3797">
        <ele>148</ele>
        <time>2024-02-11T10:42:22Z</time>
      </trkpt>
      <trkpt lat="43.64513" lon="1.37974">
        <ele>148</ele>
        <time>2024-02-11T10:42:23Z</time>
      </trkpt>
      <trkpt lat="43.64517" lon="1.37976">
        <ele>148</ele>
        <time>2024-02-11T10:42:24Z</time>
      </trkpt>
      <trkpt lat="43.64521" lon="1.37977">
        <ele>148</ele>
        <time>2024-02-11T10:42:25Z</time>
      </trkpt>
      <trkpt lat="43.64525" lon="1.37978">
        <ele>148</ele>
        <time>2024-02-11T10:42:26Z</time>
      </trkpt>
      <trkpt lat="43.64529" lon="1.3798">
        <ele>148</ele>
        <time>2024-02-11T10:42:27Z</time>
      </trkpt>
      <trkpt lat="43.64533" lon="1.37982">
        <ele>148</ele>
        <time>2024-02-11T10:42:28Z</time>
      </trkpt>
      <trkpt lat="43.64536" lon="1.37983">
        <ele>148</ele>
        <time>2024-02-11T10:42:29Z</time>
      </trkpt>
      <trkpt lat="43.64539" lon="1.37984">
        <ele>148</ele>
        <time>2024-02-11T10:42:30Z</time>
      </trkpt>
      <trkpt lat="43.64539" lon="1.37984">
        <ele>148</ele>
        <time>2024-02-11T10:42:31Z</time>
      </trkpt>
      <trkpt lat="43.64544" lon="1.37983">
        <ele>148</ele>
        <time>2024-02-11T10:42:32Z</time>
      </trkpt>
      <trkpt lat="43.64546" lon="1.37982">
        <ele>148</ele>
        <time>2024-02-11T10:42:33Z</time>
      </trkpt>
      <trkpt lat="43.64548" lon="1.37982">
        <ele>148</ele>
        <time>2024-02-11T10:42:34Z</time>
      </trkpt>
      <trkpt lat="43.6455" lon="1.37981">
        <ele>148</ele>
        <time>2024-02-11T10:42:35Z</time>
      </trkpt>
      <trkpt lat="43.64552" lon="1.37981">
        <ele>148</ele>
        <time>2024-02-11T10:42:36Z</time>
      </trkpt>
      <trkpt lat="43.64552" lon="1.37981">
        <ele>148</ele>
        <time>2024-02-11T10:42:37Z</time>
      </trkpt>
      <trkpt lat="43.64555" lon="1.3798">
        <ele>148</ele>
        <time>2024-02-11T10:42:38Z</time>
      </trkpt>
      <trkpt lat="43.64557" lon="1.37979">
        <ele>148</ele>
        <time>2024-02-11T10:42:39Z</time>
      </trkpt>
      <trkpt lat="43.64557" lon="1.37979">
        <ele>148</ele>
        <time>2024-02-11T10:42:40Z</time>
      </trkpt>
      <trkpt lat="43.6456" lon="1.37976">
        <ele>148</ele>
        <time>2024-02-11T10:42:41Z</time>
      </trkpt>
      <trkpt lat="43.6456" lon="1.37976">
        <ele>148</ele>
        <time>2024-02-11T10:42:42Z</time>
      </trkpt>
      <trkpt lat="43.64562" lon="1.37973">
        <ele>150</ele>
        <time>2024-02-11T10:42:43Z</time>
      </trkpt>
      <trkpt lat="43.64564" lon="1.37971">
        <ele>150</ele>
        <time>2024-02-11T10:42:44Z</time>
      </trkpt>
      <trkpt lat="43.64565" lon="1.3797">
        <ele>150</ele>
        <time>2024-02-11T10:42:45Z</time>
      </trkpt>
      <trkpt lat="43.64566" lon="1.37967">
        <ele>150</ele>
        <time>2024-02-11T10:42:46Z</time>
      </trkpt>
      <trkpt lat="43.64567" lon="1.37965">
        <ele>150</ele>
        <time>2024-02-11T10:42:47Z</time>
      </trkpt>
      <trkpt lat="43.64568" lon="1.37962">
        <ele>150</ele>
        <time>2024-02-11T10:42:48Z</time>
      </trkpt>
      <trkpt lat="43.64569" lon="1.3796">
        <ele>150</ele>
        <time>2024-02-11T10:42:49Z</time>
      </trkpt>
      <trkpt lat="43.64569" lon="1.37957">
        <ele>150</ele>
        <time>2024-02-11T10:42:50Z</time>
      </trkpt>
      <trkpt lat="43.64569" lon="1.37954">
        <ele>149</ele>
        <time>2024-02-11T10:42:51Z</time>
      </trkpt>
      <trkpt lat="43.6457" lon="1.37952">
        <ele>149</ele>
        <time>2024-02-11T10:42:52Z</time>
      </trkpt>
      <trkpt lat="43.6457" lon="1.37949">
        <ele>148</ele>
        <time>2024-02-11T10:42:53Z</time>
      </trkpt>
      <trkpt lat="43.6457" lon="1.37946">
        <ele>148</ele>
        <time>2024-02-11T10:42:54Z</time>
      </trkpt>
      <trkpt lat="43.6457" lon="1.37943">
        <ele>148</ele>
        <time>2024-02-11T10:42:55Z</time>
      </trkpt>
      <trkpt lat="43.64569" lon="1.3794">
        <ele>148</ele>
        <time>2024-02-11T10:42:56Z</time>
      </trkpt>
      <trkpt lat="43.64569" lon="1.37937">
        <ele>149</ele>
        <time>2024-02-11T10:42:57Z</time>
      </trkpt>
      <trkpt lat="43.64568" lon="1.37934">
        <ele>149</ele>
        <time>2024-02-11T10:42:58Z</time>
      </trkpt>
      <trkpt lat="43.64567" lon="1.37931">
        <ele>150</ele>
        <time>2024-02-11T10:42:59Z</time>
      </trkpt>
      <trkpt lat="43.64566" lon="1.37928">
        <ele>150</ele>
        <time>2024-02-11T10:43:00Z</time>
      </trkpt>
      <trkpt lat="43.64565" lon="1.37925">
        <ele>150</ele>
        <time>2024-02-11T10:43:01Z</time>
      </trkpt>
      <trkpt lat="43.64563" lon="1.37922">
        <ele>150</ele>
        <time>2024-02-11T10:43:02Z</time>
      </trkpt>
      <trkpt lat="43.64561" lon="1.37919">
        <ele>150</ele>
        <time>2024-02-11T10:43:03Z</time>
      </trkpt>
      <trkpt lat="43.64559" lon="1.37917">
        <ele>150</ele>
        <time>2024-02-11T10:43:04Z</time>
      </trkpt>
      <trkpt lat="43.64557" lon="1.37914">
        <ele>151</ele>
        <time>2024-02-11T10:43:05Z</time>
      </trkpt>
      <trkpt lat="43.64554" lon="1.37911">
        <ele>151</ele>
        <time>2024-02-11T10:43:06Z</time>
      </trkpt>
      <trkpt lat="43.6455" lon="1.37908">
        <ele>151</ele>
        <time>2024-02-11T10:43:07Z</time>
      </trkpt>
      <trkpt lat="43.64546" lon="1.37906">
        <ele>151</ele>
        <time>2024-02-11T10:43:08Z</time>
      </trkpt>
      <trkpt lat="43.64542" lon="1.37904">
        <ele>151</ele>
        <time>2024-02-11T10:43:09Z</time>
      </trkpt>
      <trkpt lat="43.64538" lon="1.37902">
        <ele>150</ele>
        <time>2024-02-11T10:43:10Z</time>
      </trkpt>
      <trkpt lat="43.64534" lon="1.37899">
        <ele>149</ele>
        <time>2024-02-11T10:43:11Z</time>
      </trkpt>
      <trkpt lat="43.64534" lon="1.37899">
        <ele>149</ele>
        <time>2024-02-11T10:43:12Z</time>
      </trkpt>
      <trkpt lat="43.64526" lon="1.37893">
        <ele>149</ele>
        <time>2024-02-11T10:43:13Z</time>
      </trkpt>
      <trkpt lat="43.64526" lon="1.37893">
        <ele>150</ele>
        <time>2024-02-11T10:43:14Z</time>
      </trkpt>
      <trkpt lat="43.64522" lon="1.37891">
        <ele>150</ele>
        <time>2024-02-11T10:43:15Z</time>
      </trkpt>
      <trkpt lat="43.64518" lon="1.37889">
        <ele>150</ele>
        <time>2024-02-11T10:43:16Z</time>
      </trkpt>
      <trkpt lat="43.64514" lon="1.37886">
        <ele>150</ele>
        <time>2024-02-11T10:43:17Z</time>
      </trkpt>
      <trkpt lat="43.64509" lon="1.37884">
        <ele>150</ele>
        <time>2024-02-11T10:43:18Z</time>
      </trkpt>
      <trkpt lat="43.64504" lon="1.37881">
        <ele>150</ele>
        <time>2024-02-11T10:43:19Z</time>
      </trkpt>
      <trkpt lat="43.64499" lon="1.37879">
        <ele>150</ele>
        <time>2024-02-11T10:43:20Z</time>
      </trkpt>
      <trkpt lat="43.64493" lon="1.37876">
        <ele>150</ele>
        <time>2024-02-11T10:43:21Z</time>
      </trkpt>
      <trkpt lat="43.64491" lon="1.37875">
        <ele>149</ele>
        <time>2024-02-11T10:43:22Z</time>
      </trkpt>
      <trkpt lat="43.64488" lon="1.37874">
        <ele>149</ele>
        <time>2024-02-11T10:43:23Z</time>
      </trkpt>
      <trkpt lat="43.64484" lon="1.37873">
        <ele>149</ele>
        <time>2024-02-11T10:43:24Z</time>
      </trkpt>
      <trkpt lat="43.64481" lon="1.37873">
        <ele>149</ele>
        <time>2024-02-11T10:43:25Z</time>
      </trkpt>
      <trkpt lat="43.64481" lon="1.37873">
        <ele>149</ele>
        <time>2024-02-11T10:43:26Z</time>
      </trkpt>
      <trkpt lat="43.64477" lon="1.37874">
        <ele>149</ele>
        <time>2024-02-11T10:43:27Z</time>
      </trkpt>
      <trkpt lat="43.64475" lon="1.37874">
        <ele>149</ele>
        <time>2024-02-11T10:43:28Z</time>
      </trkpt>
      <trkpt lat="43.64473" lon="1.37875">
        <ele>149</ele>
        <time>2024-02-11T10:43:29Z</time>
      </trkpt>
      <trkpt lat="43.64471" lon="1.37876">
        <ele>148</ele>
        <time>2024-02-11T10:43:30Z</time>
      </trkpt>
      <trkpt lat="43.6447" lon="1.37878">
        <ele>148</ele>
        <time>2024-02-11T10:43:31Z</time>
      </trkpt>
      <trkpt lat="43.64468" lon="1.37879">
        <ele>148</ele>
        <time>2024-02-11T10:43:32Z</time>
      </trkpt>
      <trkpt lat="43.64467" lon="1.3788">
        <ele>149</ele>
        <time>2024-02-11T10:43:33Z</time>
      </trkpt>
      <trkpt lat="43.64465" lon="1.37882">
        <ele>149</ele>
        <time>2024-02-11T10:43:34Z</time>
      </trkpt>
      <trkpt lat="43.64464" lon="1.37884">
        <ele>149</ele>
        <time>2024-02-11T10:43:35Z</time>
      </trkpt>
      <trkpt lat="43.64462" lon="1.37886">
        <ele>148</ele>
        <time>2024-02-11T10:43:36Z</time>
      </trkpt>
      <trkpt lat="43.64461" lon="1.37889">
        <ele>148</ele>
        <time>2024-02-11T10:43:37Z</time>
      </trkpt>
      <trkpt lat="43.6446" lon="1.3789">
        <ele>148</ele>
        <time>2024-02-11T10:43:38Z</time>
      </trkpt>
      <trkpt lat="43.64459" lon="1.37893">
        <ele>148</ele>
        <time>2024-02-11T10:43:39Z</time>
      </trkpt>
      <trkpt lat="43.64458" lon="1.37895">
        <ele>148</ele>
        <time>2024-02-11T10:43:40Z</time>
      </trkpt>
      <trkpt lat="43.64457" lon="1.37898">
        <ele>148</ele>
        <time>2024-02-11T10:43:41Z</time>
      </trkpt>
      <trkpt lat="43.64457" lon="1.37901">
        <ele>148</ele>
        <time>2024-02-11T10:43:42Z</time>
      </trkpt>
      <trkpt lat="43.64456" lon="1.37903">
        <ele>148</ele>
        <time>2024-02-11T10:43:43Z</time>
      </trkpt>
      <trkpt lat="43.64456" lon="1.37906">
        <ele>148</ele>
        <time>2024-02-11T10:43:44Z</time>
      </trkpt>
      <trkpt lat="43.64456" lon="1.37909">
        <ele>148</ele>
        <time>2024-02-11T10:43:45Z</time>
      </trkpt>
      <trkpt lat="43.64455" lon="1.37911">
        <ele>148</ele>
        <time>2024-02-11T10:43:46Z</time>
      </trkpt>
      <trkpt lat="43.64455" lon="1.37914">
        <ele>148</ele>
        <time>2024-02-11T10:43:47Z</time>
      </trkpt>
      <trkpt lat="43.64455" lon="1.37914">
        <ele>148</ele>
        <time>2024-02-11T10:43:48Z</time>
      </trkpt>
      <trkpt lat="43.64455" lon="1.37919">
        <ele>148</ele>
        <time>2024-02-11T10:43:49Z</time>
      </trkpt>
      <trkpt lat="43.64455" lon="1.37919">
        <ele>148</ele>
        <time>2024-02-11T10:43:50Z</time>
      </trkpt>
      <trkpt lat="43.64455" lon="1.37924">
        <ele>148</ele>
        <time>2024-02-11T10:43:51Z</time>
      </trkpt>
      <trkpt lat="43.64455" lon="1.37927">
        <ele>148</ele>
        <time>2024-02-11T10:43:52Z</time>
      </trkpt>
      <trkpt lat="43.64455" lon="1.37927">
        <ele>148</ele>
        <time>2024-02-11T10:43:53Z</time>
      </trkpt>
      <trkpt lat="43.64458" lon="1.37931">
        <ele>148</ele>
        <time>2024-02-11T10:43:54Z</time>
      </trkpt>
      <trkpt lat="43.64459" lon="1.37934">
        <ele>148</ele>
        <time>2024-02-11T10:43:55Z</time>
      </trkpt>
      <trkpt lat="43.64461" lon="1.37936">
        <ele>148</ele>
        <time>2024-02-11T10:43:56Z</time>
      </trkpt>
      <trkpt lat="43.64463" lon="1.37938">
        <ele>148</ele>
        <time>2024-02-11T10:43:57Z</time>
      </trkpt>
      <trkpt lat="43.64466" lon="1.37941">
        <ele>148</ele>
        <time>2024-02-11T10:43:58Z</time>
      </trkpt>
      <trkpt lat="43.6447" lon="1.37944">
        <ele>148</ele>
        <time>2024-02-11T10:43:59Z</time>
      </trkpt>
      <trkpt lat="43.64474" lon="1.37947">
        <ele>148</ele>
        <time>2024-02-11T10:44:00Z</time>
      </trkpt>
      <trkpt lat="43.64478" lon="1.3795">
        <ele>148</ele>
        <time>2024-02-11T10:44:01Z</time>
      </trkpt>
      <trkpt lat="43.64482" lon="1.37952">
        <ele>148</ele>
        <time>2024-02-11T10:44:02Z</time>
      </trkpt>
      <trkpt lat="43.64487" lon="1.37955">
        <ele>148</ele>
        <time>2024-02-11T10:44:03Z</time>
      </trkpt>
      <trkpt lat="43.64491" lon="1.37958">
        <ele>148</ele>
        <time>2024-02-11T10:44:04Z</time>
      </trkpt>
      <trkpt lat="43.64495" lon="1.3796">
        <ele>148</ele>
        <time>2024-02-11T10:44:05Z</time>
      </trkpt>
      <trkpt lat="43.64499" lon="1.37963">
        <ele>148</ele>
        <time>2024-02-11T10:44:06Z</time>
      </trkpt>
      <trkpt lat="43.64504" lon="1.37965">
        <ele>148</ele>
        <time>2024-02-11T10:44:07Z</time>
      </trkpt>
      <trkpt lat="43.64508" lon="1.37967">
        <ele>148</ele>
        <time>2024-02-11T10:44:08Z</time>
      </trkpt>
      <trkpt lat="43.64511" lon="1.37969">
        <ele>148</ele>
        <time>2024-02-11T10:44:09Z</time>
      </trkpt>
      <trkpt lat="43.64515" lon="1.37971">
        <ele>148</ele>
        <time>2024-02-11T10:44:10Z</time>
      </trkpt>
      <trkpt lat="43.64519" lon="1.37972">
        <ele>148</ele>
        <time>2024-02-11T10:44:11Z</time>
      </trkpt>
      <trkpt lat="43.64523" lon="1.37975">
        <ele>148</ele>
        <time>2024-02-11T10:44:12Z</time>
      </trkpt>
      <trkpt lat="43.64527" lon="1.37977">
        <ele>148</ele>
        <time>2024-02-11T10:44:13Z</time>
      </trkpt>
      <trkpt lat="43.64531" lon="1.37979">
        <ele>148</ele>
        <time>2024-02-11T10:44:14Z</time>
      </trkpt>
      <trkpt lat="43.64535" lon="1.3798">
        <ele>148</ele>
        <time>2024-02-11T10:44:15Z</time>
      </trkpt>
      <trkpt lat="43.64538" lon="1.3798">
        <ele>148</ele>
        <time>2024-02-11T10:44:16Z</time>
      </trkpt>
      <trkpt lat="43.6454" lon="1.3798">
        <ele>148</ele>
        <time>2024-02-11T10:44:17Z</time>
      </trkpt>
      <trkpt lat="43.6454" lon="1.3798">
        <ele>148</ele>
        <time>2024-02-11T10:44:18Z</time>
      </trkpt>
      <trkpt lat="43.64544" lon="1.37978">
        <ele>148</ele>
        <time>2024-02-11T10:44:19Z</time>
      </trkpt>
      <trkpt lat="43.64546" lon="1.37977">
        <ele>148</ele>
        <time>2024-02-11T10:44:20Z</time>
      </trkpt>
      <trkpt lat="43.64548" lon="1.37976">
        <ele>149</ele>
        <time>2024-02-11T10:44:21Z</time>
      </trkpt>
      <trkpt lat="43.64549" lon="1.37975">
        <ele>149</ele>
        <time>2024-02-11T10:44:22Z</time>
      </trkpt>
      <trkpt lat="43.64549" lon="1.37975">
        <ele>149</ele>
        <time>2024-02-11T10:44:23Z</time>
      </trkpt>
      <trkpt lat="43.64553" lon="1.37972">
        <ele>149</ele>
        <time>2024-02-11T10:44:24Z</time>
      </trkpt>
      <trkpt lat="43.64555" lon="1.37971">
        <ele>149</ele>
        <time>2024-02-11T10:44:25Z</time>
      </trkpt>
      <trkpt lat="43.64556" lon="1.3797">
        <ele>148</ele>
        <time>2024-02-11T10:44:26Z</time>
      </trkpt>
      <trkpt lat="43.64558" lon="1.37968">
        <ele>148</ele>
        <time>2024-02-11T10:44:27Z</time>
      </trkpt>
      <trkpt lat="43.64558" lon="1.37968">
        <ele>148</ele>
        <time>2024-02-11T10:44:28Z</time>
      </trkpt>
      <trkpt lat="43.6456" lon="1.37964">
        <ele>148</ele>
        <time>2024-02-11T10:44:29Z</time>
      </trkpt>
      <trkpt lat="43.6456" lon="1.37964">
        <ele>148</ele>
        <time>2024-02-11T10:44:30Z</time>
      </trkpt>
      <trkpt lat="43.64561" lon="1.3796">
        <ele>149</ele>
        <time>2024-02-11T10:44:31Z</time>
      </trkpt>
      <trkpt lat="43.64561" lon="1.3796">
        <ele>149</ele>
        <time>2024-02-11T10:44:32Z</time>
      </trkpt>
      <trkpt lat="43.64563" lon="1.37956">
        <ele>150</ele>
        <time>2024-02-11T10:44:33Z</time>
      </trkpt>
      <trkpt lat="43.64563" lon="1.37953">
        <ele>150</ele>
        <time>2024-02-11T10:44:34Z</time>
      </trkpt>
      <trkpt lat="43.64563" lon="1.37953">
        <ele>149</ele>
        <time>2024-02-11T10:44:35Z</time>
      </trkpt>
      <trkpt lat="43.64564" lon="1.37948">
        <ele>150</ele>
        <time>2024-02-11T10:44:36Z</time>
      </trkpt>
      <trkpt lat="43.64564" lon="1.37946">
        <ele>150</ele>
        <time>2024-02-11T10:44:37Z</time>
      </trkpt>
      <trkpt lat="43.64564" lon="1.37946">
        <ele>150</ele>
        <time>2024-02-11T10:44:38Z</time>
      </trkpt>
      <trkpt lat="43.64565" lon="1.37941">
        <ele>150</ele>
        <time>2024-02-11T10:44:39Z</time>
      </trkpt>
      <trkpt lat="43.64565" lon="1.37941">
        <ele>150</ele>
        <time>2024-02-11T10:44:40Z</time>
      </trkpt>
      <trkpt lat="43.64565" lon="1.37936">
        <ele>151</ele>
        <time>2024-02-11T10:44:41Z</time>
      </trkpt>
      <trkpt lat="43.64564" lon="1.37934">
        <ele>151</ele>
        <time>2024-02-11T10:44:43Z</time>
      </trkpt>
      <trkpt lat="43.64563" lon="1.37929">
        <ele>151</ele>
        <time>2024-02-11T10:44:44Z</time>
      </trkpt>
      <trkpt lat="43.64562" lon="1.37926">
        <ele>151</ele>
        <time>2024-02-11T10:44:45Z</time>
      </trkpt>
      <trkpt lat="43.64561" lon="1.37924">
        <ele>151</ele>
        <time>2024-02-11T10:44:46Z</time>
      </trkpt>
      <trkpt lat="43.64559" lon="1.37922">
        <ele>151</ele>
        <time>2024-02-11T10:44:47Z</time>
      </trkpt>
      <trkpt lat="43.64558" lon="1.3792">
        <ele>151</ele>
        <time>2024-02-11T10:44:48Z</time>
      </trkpt>
      <trkpt lat="43.64556" lon="1.37917">
        <ele>150</ele>
        <time>2024-02-11T10:44:49Z</time>
      </trkpt>
      <trkpt lat="43.64553" lon="1.37914">
        <ele>150</ele>
        <time>2024-02-11T10:44:50Z</time>
      </trkpt>
      <trkpt lat="43.64549" lon="1.37911">
        <ele>149</ele>
        <time>2024-02-11T10:44:51Z</time>
      </trkpt>
      <trkpt lat="43.64545" lon="1.37908">
        <ele>149</ele>
        <time>2024-02-11T10:44:52Z</time>
      </trkpt>
      <trkpt lat="43.64541" lon="1.37905">
        <ele>149</ele>
        <time>2024-02-11T10:44:53Z</time>
      </trkpt>
      <trkpt lat="43.64537" lon="1.37903">
        <ele>149</ele>
        <time>2024-02-11T10:44:54Z</time>
      </trkpt>
      <trkpt lat="43.64533" lon="1.37901">
        <ele>149</ele>
        <time>2024-02-11T10:44:55Z</time>
      </trkpt>
      <trkpt lat="43.64529" lon="1.37899">
        <ele>148</ele>
        <time>2024-02-11T10:44:56Z</time>
      </trkpt>
      <trkpt lat="43.64529" lon="1.37899">
        <ele>149</ele>
        <time>2024-02-11T10:44:57Z</time>
      </trkpt>
      <trkpt lat="43.64524" lon="1.37895">
        <ele>149</ele>
        <time>2024-02-11T10:44:58Z</time>
      </trkpt>
      <trkpt lat="43.64519" lon="1.37892">
        <ele>150</ele>
        <time>2024-02-11T10:44:59Z</time>
      </trkpt>
      <trkpt lat="43.64514" lon="1.37888">
        <ele>150</ele>
        <time>2024-02-11T10:45:00Z</time>
      </trkpt>
      <trkpt lat="43.64508" lon="1.37885">
        <ele>150</ele>
        <time>2024-02-11T10:45:01Z</time>
      </trkpt>
      <trkpt lat="43.64506" lon="1.37884">
        <ele>150</ele>
        <time>2024-02-11T10:45:02Z</time>
      </trkpt>
      <trkpt lat="43.64502" lon="1.37881">
        <ele>149</ele>
        <time>2024-02-11T10:45:03Z</time>
      </trkpt>
      <trkpt lat="43.64498" lon="1.37879">
        <ele>149</ele>
        <time>2024-02-11T10:45:04Z</time>
      </trkpt>
      <trkpt lat="43.64498" lon="1.37879">
        <ele>149</ele>
        <time>2024-02-11T10:45:05Z</time>
      </trkpt>
      <trkpt lat="43.64488" lon="1.37875">
        <ele>149</ele>
        <time>2024-02-11T10:45:06Z</time>
      </trkpt>
      <trkpt lat="43.64487" lon="1.37875">
        <ele>149</ele>
        <time>2024-02-11T10:45:07Z</time>
      </trkpt>
      <trkpt lat="43.64484" lon="1.37874">
        <ele>149</ele>
        <time>2024-02-11T10:45:08Z</time>
      </trkpt>
      <trkpt lat="43.64481" lon="1.37874">
        <ele>149</ele>
        <time>2024-02-11T10:45:09Z</time>
      </trkpt>
      <trkpt lat="43.64479" lon="1.37875">
        <ele>148</ele>
        <time>2024-02-11T10:45:10Z</time>
      </trkpt>
      <trkpt lat="43.64477" lon="1.37876">
        <ele>148</ele>
        <time>2024-02-11T10:45:11Z</time>
      </trkpt>
      <trkpt lat="43.64475" lon="1.37877">
        <ele>148</ele>
        <time>2024-02-11T10:45:12Z</time>
      </trkpt>
      <trkpt lat="43.64473" lon="1.37878">
        <ele>148</ele>
        <time>2024-02-11T10:45:13Z</time>
      </trkpt>
      <trkpt lat="43.64471" lon="1.37879">
        <ele>148</ele>
        <time>2024-02-11T10:45:14Z</time>
      </trkpt>
      <trkpt lat="43.64469" lon="1.3788">
        <ele>148</ele>
        <time>2024-02-11T10:45:15Z</time>
      </trkpt>
      <trkpt lat="43.64467" lon="1.37882">
        <ele>148</ele>
        <time>2024-02-11T10:45:16Z</time>
      </trkpt>
      <trkpt lat="43.64466" lon="1.37883">
        <ele>148</ele>
        <time>2024-02-11T10:45:17Z</time>
      </trkpt>
      <trkpt lat="43.64465" lon="1.37886">
        <ele>149</ele>
        <time>2024-02-11T10:45:18Z</time>
      </trkpt>
      <trkpt lat="43.64465" lon="1.37886">
        <ele>149</ele>
        <time>2024-02-11T10:45:19Z</time>
      </trkpt>
      <trkpt lat="43.64462" lon="1.37891">
        <ele>148</ele>
        <time>2024-02-11T10:45:20Z</time>
      </trkpt>
      <trkpt lat="43.64461" lon="1.37892">
        <ele>148</ele>
        <time>2024-02-11T10:45:21Z</time>
      </trkpt>
      <trkpt lat="43.6446" lon="1.37895">
        <ele>148</ele>
        <time>2024-02-11T10:45:22Z</time>
      </trkpt>
      <trkpt lat="43.64459" lon="1.37897">
        <ele>149</ele>
        <time>2024-02-11T10:45:23Z</time>
      </trkpt>
      <trkpt lat="43.64458" lon="1.37899">
        <ele>149</ele>
        <time>2024-02-11T10:45:24Z</time>
      </trkpt>
      <trkpt lat="43.64458" lon="1.37902">
        <ele>149</ele>
        <time>2024-02-11T10:45:25Z</time>
      </trkpt>
      <trkpt lat="43.64457" lon="1.37905">
        <ele>149</ele>
        <time>2024-02-11T10:45:26Z</time>
      </trkpt>
      <trkpt lat="43.64457" lon="1.37908">
        <ele>149</ele>
        <time>2024-02-11T10:45:27Z</time>
      </trkpt>
      <trkpt lat="43.64457" lon="1.37908">
        <ele>148</ele>
        <time>2024-02-11T10:45:28Z</time>
      </trkpt>
      <trkpt lat="43.64457" lon="1.37913">
        <ele>148</ele>
        <time>2024-02-11T10:45:29Z</time>
      </trkpt>
      <trkpt lat="43.64457" lon="1.37915">
        <ele>148</ele>
        <time>2024-02-11T10:45:30Z</time>
      </trkpt>
      <trkpt lat="43.64457" lon="1.37915">
        <ele>148</ele>
        <time>2024-02-11T10:45:31Z</time>
      </trkpt>
      <trkpt lat="43.64458" lon="1.3792">
        <ele>148</ele>
        <time>2024-02-11T10:45:32Z</time>
      </trkpt>
      <trkpt lat="43.64458" lon="1.3792">
        <ele>148</ele>
        <time>2024-02-11T10:45:33Z</time>
      </trkpt>
      <trkpt lat="43.64459" lon="1.37925">
        <ele>148</ele>
        <time>2024-02-11T10:45:34Z</time>
      </trkpt>
      <trkpt lat="43.64459" lon="1.37925">
        <ele>148</ele>
        <time>2024-02-11T10:45:35Z</time>
      </trkpt>
      <trkpt lat="43.6446" lon="1.37929">
        <ele>148</ele>
        <time>2024-02-11T10:45:36Z</time>
      </trkpt>
      <trkpt lat="43.6446" lon="1.37929">
        <ele>148</ele>
        <time>2024-02-11T10:45:37Z</time>
      </trkpt>
      <trkpt lat="43.64462" lon="1.37933">
        <ele>148</ele>
        <time>2024-02-11T10:45:38Z</time>
      </trkpt>
      <trkpt lat="43.64464" lon="1.37936">
        <ele>147</ele>
        <time>2024-02-11T10:45:39Z</time>
      </trkpt>
      <trkpt lat="43.64467" lon="1.37938">
        <ele>148</ele>
        <time>2024-02-11T10:45:40Z</time>
      </trkpt>
      <trkpt lat="43.6447" lon="1.37941">
        <ele>148</ele>
        <time>2024-02-11T10:45:41Z</time>
      </trkpt>
      <trkpt lat="43.64474" lon="1.37943">
        <ele>148</ele>
        <time>2024-02-11T10:45:42Z</time>
      </trkpt>
      <trkpt lat="43.64478" lon="1.37946">
        <ele>147</ele>
        <time>2024-02-11T10:45:43Z</time>
      </trkpt>
      <trkpt lat="43.64482" lon="1.37949">
        <ele>147</ele>
        <time>2024-02-11T10:45:44Z</time>
      </trkpt>
      <trkpt lat="43.64486" lon="1.37951">
        <ele>147</ele>
        <time>2024-02-11T10:45:45Z</time>
      </trkpt>
      <trkpt lat="43.64491" lon="1.37954">
        <ele>147</ele>
        <time>2024-02-11T10:45:46Z</time>
      </trkpt>
      <trkpt lat="43.64495" lon="1.37957">
        <ele>147</ele>
        <time>2024-02-11T10:45:47Z</time>
      </trkpt>
      <trkpt lat="43.645" lon="1.3796">
        <ele>147</ele>
        <time>2024-02-11T10:45:48Z</time>
      </trkpt>
      <trkpt lat="43.64504" lon="1.37962">
        <ele>147</ele>
        <time>2024-02-11T10:45:49Z</time>
      </trkpt>
      <trkpt lat="43.64509" lon="1.37965">
        <ele>148</ele>
        <time>2024-02-11T10:45:50Z</time>
      </trkpt>
      <trkpt lat="43.64513" lon="1.37969">
        <ele>148</ele>
        <time>2024-02-11T10:45:51Z</time>
      </trkpt>
      <trkpt lat="43.64518" lon="1.37971">
        <ele>148</ele>
        <time>2024-02-11T10:45:52Z</time>
      </trkpt>
      <trkpt lat="43.64522" lon="1.37974">
        <ele>148</ele>
        <time>2024-02-11T10:45:53Z</time>
      </trkpt>
      <trkpt lat="43.64526" lon="1.37977">
        <ele>148</ele>
        <time>2024-02-11T10:45:54Z</time>
      </trkpt>
      <trkpt lat="43.6453" lon="1.37979">
        <ele>148</ele>
        <time>2024-02-11T10:45:55Z</time>
      </trkpt>
      <trkpt lat="43.64534" lon="1.37981">
        <ele>148</ele>
        <time>2024-02-11T10:45:56Z</time>
      </trkpt>
      <trkpt lat="43.64537" lon="1.37982">
        <ele>148</ele>
        <time>2024-02-11T10:45:57Z</time>
      </trkpt>
      <trkpt lat="43.6454" lon="1.37983">
        <ele>148</ele>
        <time>2024-02-11T10:45:58Z</time>
      </trkpt>
      <trkpt lat="43.64542" lon="1.37983">
        <ele>148</ele>
        <time>2024-02-11T10:45:59Z</time>
      </trkpt>
      <trkpt lat="43.64544" lon="1.37982">
        <ele>148</ele>
        <time>2024-02-11T10:46:00Z</time>
      </trkpt>
      <trkpt lat="43.64546" lon="1.37982">
        <ele>148</ele>
        <time>2024-02-11T10:46:01Z</time>
      </trkpt>
      <trkpt lat="43.64548" lon="1.37981">
        <ele>148</ele>
        <time>2024-02-11T10:46:02Z</time>
      </trkpt>
      <trkpt lat="43.6455" lon="1.3798">
        <ele>148</ele>
        <time>2024-02-11T10:46:03Z</time>
      </trkpt>
      <trkpt lat="43.64551" lon="1.37979">
        <ele>148</ele>
        <time>2024-02-11T10:46:04Z</time>
      </trkpt>
      <trkpt lat="43.64553" lon="1.37977">
        <ele>148</ele>
        <time>2024-02-11T10:46:05Z</time>
      </trkpt>
      <trkpt lat="43.64553" lon="1.37977">
        <ele>148</ele>
        <time>2024-02-11T10:46:06Z</time>
      </trkpt>
      <trkpt lat="43.64555" lon="1.37974">
        <ele>148</ele>
        <time>2024-02-11T10:46:07Z</time>
      </trkpt>
      <trkpt lat="43.64556" lon="1.37972">
        <ele>148</ele>
        <time>2024-02-11T10:46:08Z</time>
      </trkpt>
      <trkpt lat="43.64558" lon="1.37971">
        <ele>148</ele>
        <time>2024-02-11T10:46:09Z</time>
      </trkpt>
      <trkpt lat="43.64559" lon="1.37969">
        <ele>148</ele>
        <time>2024-02-11T10:46:10Z</time>
      </trkpt>
      <trkpt lat="43.64561" lon="1.37967">
        <ele>148</ele>
        <time>2024-02-11T10:46:11Z</time>
      </trkpt>
      <trkpt lat="43.64561" lon="1.37967">
        <ele>148</ele>
        <time>2024-02-11T10:46:12Z</time>
      </trkpt>
      <trkpt lat="43.64563" lon="1.37963">
        <ele>148</ele>
        <time>2024-02-11T10:46:13Z</time>
      </trkpt>
      <trkpt lat="43.64563" lon="1.37963">
        <ele>148</ele>
        <time>2024-02-11T10:46:14Z</time>
      </trkpt>
      <trkpt lat="43.64565" lon="1.37959">
        <ele>148</ele>
        <time>2024-02-11T10:46:15Z</time>
      </trkpt>
      <trkpt lat="43.64565" lon="1.37956">
        <ele>148</ele>
        <time>2024-02-11T10:46:16Z</time>
      </trkpt>
      <trkpt lat="43.64565" lon="1.37956">
        <ele>148</ele>
        <time>2024-02-11T10:46:17Z</time>
      </trkpt>
      <trkpt lat="43.64566" lon="1.37951">
        <ele>148</ele>
        <time>2024-02-11T10:46:18Z</time>
      </trkpt>
      <trkpt lat="43.64566" lon="1.37951">
        <ele>148</ele>
        <time>2024-02-11T10:46:19Z</time>
      </trkpt>
      <trkpt lat="43.64567" lon="1.37946">
        <ele>148</ele>
        <time>2024-02-11T10:46:20Z</time>
      </trkpt>
      <trkpt lat="43.64567" lon="1.37944">
        <ele>148</ele>
        <time>2024-02-11T10:46:21Z</time>
      </trkpt>
      <trkpt lat="43.64567" lon="1.37941">
        <ele>148</ele>
        <time>2024-02-11T10:46:22Z</time>
      </trkpt>
      <trkpt lat="43.64566" lon="1.37938">
        <ele>149</ele>
        <time>2024-02-11T10:46:23Z</time>
      </trkpt>
      <trkpt lat="43.64566" lon="1.37935">
        <ele>149</ele>
        <time>2024-02-11T10:46:24Z</time>
      </trkpt>
      <trkpt lat="43.64566" lon="1.37932">
        <ele>149</ele>
        <time>2024-02-11T10:46:25Z</time>
      </trkpt>
      <trkpt lat="43.64565" lon="1.37929">
        <ele>149</ele>
        <time>2024-02-11T10:46:26Z</time>
      </trkpt>
      <trkpt lat="43.64564" lon="1.37926">
        <ele>149</ele>
        <time>2024-02-11T10:46:27Z</time>
      </trkpt>
      <trkpt lat="43.64563" lon="1.37923">
        <ele>148</ele>
        <time>2024-02-11T10:46:28Z</time>
      </trkpt>
      <trkpt lat="43.64561" lon="1.37921">
        <ele>148</ele>
        <time>2024-02-11T10:46:29Z</time>
      </trkpt>
      <trkpt lat="43.64559" lon="1.37919">
        <ele>148</ele>
        <time>2024-02-11T10:46:30Z</time>
      </trkpt>
      <trkpt lat="43.64556" lon="1.37916">
        <ele>148</ele>
        <time>2024-02-11T10:46:31Z</time>
      </trkpt>
      <trkpt lat="43.64553" lon="1.37913">
        <ele>148</ele>
        <time>2024-02-11T10:46:32Z</time>
      </trkpt>
      <trkpt lat="43.64549" lon="1.3791">
        <ele>148</ele>
        <time>2024-02-11T10:46:33Z</time>
      </trkpt>
      <trkpt lat="43.64544" lon="1.37908">
        <ele>149</ele>
        <time>2024-02-11T10:46:34Z</time>
      </trkpt>
      <trkpt lat="43.6454" lon="1.37905">
        <ele>149</ele>
        <time>2024-02-11T10:46:35Z</time>
      </trkpt>
      <trkpt lat="43.64535" lon="1.37903">
        <ele>149</ele>
        <time>2024-02-11T10:46:36Z</time>
      </trkpt>
      <trkpt lat="43.64531" lon="1.379">
        <ele>149</ele>
        <time>2024-02-11T10:46:37Z</time>
      </trkpt>
      <trkpt lat="43.64526" lon="1.37898">
        <ele>149</ele>
        <time>2024-02-11T10:46:38Z</time>
      </trkpt>
      <trkpt lat="43.64522" lon="1.37895">
        <ele>149</ele>
        <time>2024-02-11T10:46:39Z</time>
      </trkpt>
      <trkpt lat="43.64518" lon="1.37893">
        <ele>149</ele>
        <time>2024-02-11T10:46:40Z</time>
      </trkpt>
      <trkpt lat="43.64514" lon="1.3789">
        <ele>149</ele>
        <time>2024-02-11T10:46:41Z</time>
      </trkpt>
      <trkpt lat="43.6451" lon="1.37887">
        <ele>149</ele>
        <time>2024-02-11T10:46:42Z</time>
      </trkpt>
      <trkpt lat="43.64507" lon="1.37884">
        <ele>149</ele>
        <time>2024-02-11T10:46:43Z</time>
      </trkpt>
      <trkpt lat="43.64503" lon="1.37881">
        <ele>149</ele>
        <time>2024-02-11T10:46:44Z</time>
      </trkpt>
      <trkpt lat="43.645" lon="1.37879">
        <ele>149</ele>
        <time>2024-02-11T10:46:45Z</time>
      </trkpt>
      <trkpt lat="43.64496" lon="1.37876">
        <ele>148</ele>
        <time>2024-02-11T10:46:46Z</time>
      </trkpt>
      <trkpt lat="43.64492" lon="1.37874">
        <ele>148</ele>
        <time>2024-02-11T10:46:47Z</time>
      </trkpt>
      <trkpt lat="43.64489" lon="1.37874">
        <ele>149</ele>
        <time>2024-02-11T10:46:48Z</time>
      </trkpt>
      <trkpt lat="43.64486" lon="1.37874">
        <ele>149</ele>
        <time>2024-02-11T10:46:49Z</time>
      </trkpt>
      <trkpt lat="43.64484" lon="1.37874">
        <ele>149</ele>
        <time>2024-02-11T10:46:50Z</time>
      </trkpt>
      <trkpt lat="43.64484" lon="1.37874">
        <ele>149</ele>
        <time>2024-02-11T10:46:51Z</time>
      </trkpt>
      <trkpt lat="43.64481" lon="1.37875">
        <ele>149</ele>
        <time>2024-02-11T10:46:52Z</time>
      </trkpt>
      <trkpt lat="43.64479" lon="1.37876">
        <ele>149</ele>
        <time>2024-02-11T10:46:53Z</time>
      </trkpt>
      <trkpt lat="43.64479" lon="1.37876">
        <ele>149</ele>
        <time>2024-02-11T10:46:54Z</time>
      </trkpt>
      <trkpt lat="43.64479" lon="1.37876">
        <ele>149</ele>
        <time>2024-02-11T10:46:55Z</time>
      </trkpt>
      <trkpt lat="43.64477" lon="1.37876">
        <ele>149</ele>
        <time>2024-02-11T10:46:56Z</time>
      </trkpt>
      <trkpt lat="43.64474" lon="1.37878">
        <ele>149</ele>
        <time>2024-02-11T10:46:57Z</time>
      </trkpt>
      <trkpt lat="43.64474" lon="1.37878">
        <ele>150</ele>
        <time>2024-02-11T10:46:58Z</time>
      </trkpt>
      <trkpt lat="43.64472" lon="1.3788">
        <ele>150</ele>
        <time>2024-02-11T10:46:59Z</time>
      </trkpt>
      <trkpt lat="43.64472" lon="1.3788">
        <ele>149</ele>
        <time>2024-02-11T10:47:00Z</time>
      </trkpt>
      <trkpt lat="43.6447" lon="1.37881">
        <ele>150</ele>
        <time>2024-02-11T10:47:01Z</time>
      </trkpt>
      <trkpt lat="43.6447" lon="1.37881">
        <ele>150</ele>
        <time>2024-02-11T10:47:02Z</time>
      </trkpt>
      <trkpt lat="43.64469" lon="1.37883">
        <ele>150</ele>
        <time>2024-02-11T10:47:03Z</time>
      </trkpt>
      <trkpt lat="43.64469" lon="1.37883">
        <ele>150</ele>
        <time>2024-02-11T10:47:04Z</time>
      </trkpt>
      <trkpt lat="43.64467" lon="1.37885">
        <ele>149</ele>
        <time>2024-02-11T10:47:05Z</time>
      </trkpt>
      <trkpt lat="43.64467" lon="1.37885">
        <ele>149</ele>
        <time>2024-02-11T10:47:06Z</time>
      </trkpt>
      <trkpt lat="43.64467" lon="1.37885">
        <ele>149</ele>
        <time>2024-02-11T10:47:07Z</time>
      </trkpt>
      <trkpt lat="43.64467" lon="1.37885">
        <ele>149</ele>
        <time>2024-02-11T10:47:08Z</time>
      </trkpt>
      <trkpt lat="43.64466" lon="1.37887">
        <ele>149</ele>
        <time>2024-02-11T10:47:09Z</time>
      </trkpt>
      <trkpt lat="43.64466" lon="1.37887">
        <ele>149</ele>
        <time>2024-02-11T10:47:10Z</time>
      </trkpt>
      <trkpt lat="43.64465" lon="1.3789">
        <ele>149</ele>
        <time>2024-02-11T10:47:11Z</time>
      </trkpt>
      <trkpt lat="43.64465" lon="1.3789">
        <ele>149</ele>
        <time>2024-02-11T10:47:12Z</time>
      </trkpt>
      <trkpt lat="43.64463" lon="1.37892">
        <ele>149</ele>
        <time>2024-02-11T10:47:13Z</time>
      </trkpt>
      <trkpt lat="43.64463" lon="1.37892">
        <ele>149</ele>
        <time>2024-02-11T10:47:14Z</time>
      </trkpt>
      <trkpt lat="43.64462" lon="1.37895">
        <ele>148</ele>
        <time>2024-02-11T10:47:15Z</time>
      </trkpt>
      <trkpt lat="43.64462" lon="1.37895">
        <ele>148</ele>
        <time>2024-02-11T10:47:16Z</time>
      </trkpt>
      <trkpt lat="43.64461" lon="1.37898">
        <ele>148</ele>
        <time>2024-02-11T10:47:17Z</time>
      </trkpt>
      <trkpt lat="43.64461" lon="1.37898">
        <ele>148</ele>
        <time>2024-02-11T10:47:18Z</time>
      </trkpt>
      <trkpt lat="43.6446" lon="1.37901">
        <ele>148</ele>
        <time>2024-02-11T10:47:19Z</time>
      </trkpt>
      <trkpt lat="43.6446" lon="1.37901">
        <ele>148</ele>
        <time>2024-02-11T10:47:20Z</time>
      </trkpt>
      <trkpt lat="43.6446" lon="1.37904">
        <ele>148</ele>
        <time>2024-02-11T10:47:21Z</time>
      </trkpt>
      <trkpt lat="43.6446" lon="1.37904">
        <ele>148</ele>
        <time>2024-02-11T10:47:22Z</time>
      </trkpt>
      <trkpt lat="43.6446" lon="1.37907">
        <ele>148</ele>
        <time>2024-02-11T10:47:23Z</time>
      </trkpt>
      <trkpt lat="43.6446" lon="1.37907">
        <ele>148</ele>
        <time>2024-02-11T10:47:24Z</time>
      </trkpt>
      <trkpt lat="43.6446" lon="1.3791">
        <ele>148</ele>
        <time>2024-02-11T10:47:25Z</time>
      </trkpt>
      <trkpt lat="43.6446" lon="1.3791">
        <ele>148</ele>
        <time>2024-02-11T10:47:26Z</time>
      </trkpt>
      <trkpt lat="43.64459" lon="1.37912">
        <ele>148</ele>
        <time>2024-02-11T10:47:27Z</time>
      </trkpt>
      <trkpt lat="43.64459" lon="1.37912">
        <ele>148</ele>
        <time>2024-02-11T10:47:28Z</time>
      </trkpt>
      <trkpt lat="43.64459" lon="1.37916">
        <ele>148</ele>
        <time>2024-02-11T10:47:29Z</time>
      </trkpt>
      <trkpt lat="43.64459" lon="1.37916">
        <ele>148</ele>
        <time>2024-02-11T10:47:30Z</time>
      </trkpt>
      <trkpt lat="43.64459" lon="1.37919">
        <ele>148</ele>
        <time>2024-02-11T10:47:31Z</time>
      </trkpt>
      <trkpt lat="43.64459" lon="1.37919">
        <ele>148</ele>
        <time>2024-02-11T10:47:32Z</time>
      </trkpt>
      <trkpt lat="43.6446" lon="1.37922">
        <ele>148</ele>
        <time>2024-02-11T10:47:33Z</time>
      </trkpt>
      <trkpt lat="43.6446" lon="1.37922">
        <ele>148</ele>
        <time>2024-02-11T10:47:34Z</time>
      </trkpt>
      <trkpt lat="43.64461" lon="1.37925">
        <ele>148</ele>
        <time>2024-02-11T10:47:35Z</time>
      </trkpt>
      <trkpt lat="43.64461" lon="1.37925">
        <ele>148</ele>
        <time>2024-02-11T10:47:36Z</time>
      </trkpt>
      <trkpt lat="43.64462" lon="1.37928">
        <ele>148</ele>
        <time>2024-02-11T10:47:37Z</time>
      </trkpt>
      <trkpt lat="43.64462" lon="1.37928">
        <ele>148</ele>
        <time>2024-02-11T10:47:38Z</time>
      </trkpt>
      <trkpt lat="43.64463" lon="1.37931">
        <ele>148</ele>
        <time>2024-02-11T10:47:39Z</time>
      </trkpt>
      <trkpt lat="43.64463" lon="1.37931">
        <ele>148</ele>
        <time>2024-02-11T10:47:40Z</time>
      </trkpt>
      <trkpt lat="43.64464" lon="1.37933">
        <ele>148</ele>
        <time>2024-02-11T10:47:41Z</time>
      </trkpt>
      <trkpt lat="43.64464" lon="1.37933">
        <ele>148</ele>
        <time>2024-02-11T10:47:42Z</time>
      </trkpt>
      <trkpt lat="43.64466" lon="1.37935">
        <ele>148</ele>
        <time>2024-02-11T10:47:43Z</time>
      </trkpt>
      <trkpt lat="43.64466" lon="1.37935">
        <ele>148</ele>
        <time>2024-02-11T10:47:44Z</time>
      </trkpt>
      <trkpt lat="43.64468" lon="1.37938">
        <ele>148</ele>
        <time>2024-02-11T10:47:45Z</time>
      </trkpt>
      <trkpt lat="43.64468" lon="1.37938">
        <ele>148</ele>
        <time>2024-02-11T10:47:46Z</time>
      </trkpt>
      <trkpt lat="43.6447" lon="1.3794">
        <ele>148</ele>
        <time>2024-02-11T10:47:47Z</time>
      </trkpt>
      <trkpt lat="43.6447" lon="1.3794">
        <ele>148</ele>
        <time>2024-02-11T10:47:48Z</time>
      </trkpt>
      <trkpt lat="43.64472" lon="1.37941">
        <ele>148</ele>
        <time>2024-02-11T10:47:49Z</time>
      </trkpt>
      <trkpt lat="43.64472" lon="1.37941">
        <ele>149</ele>
        <time>2024-02-11T10:47:50Z</time>
      </trkpt>
      <trkpt lat="43.64474" lon="1.37943">
        <ele>149</ele>
        <time>2024-02-11T10:47:51Z</time>
      </trkpt>
      <trkpt lat="43.64474" lon="1.37943">
        <ele>149</ele>
        <time>2024-02-11T10:47:52Z</time>
      </trkpt>
      <trkpt lat="43.64477" lon="1.37944">
        <ele>149</ele>
        <time>2024-02-11T10:47:53Z</time>
      </trkpt>
      <trkpt lat="43.64477" lon="1.37944">
        <ele>149</ele>
        <time>2024-02-11T10:47:54Z</time>
      </trkpt>
      <trkpt lat="43.64479" lon="1.37945">
        <ele>149</ele>
        <time>2024-02-11T10:47:55Z</time>
      </trkpt>
      <trkpt lat="43.64479" lon="1.37945">
        <ele>149</ele>
        <time>2024-02-11T10:47:56Z</time>
      </trkpt>
      <trkpt lat="43.64481" lon="1.37946">
        <ele>149</ele>
        <time>2024-02-11T10:47:57Z</time>
      </trkpt>
      <trkpt lat="43.64481" lon="1.37946">
        <ele>148</ele>
        <time>2024-02-11T10:47:58Z</time>
      </trkpt>
      <trkpt lat="43.64484" lon="1.37947">
        <ele>148</ele>
        <time>2024-02-11T10:47:59Z</time>
      </trkpt>
      <trkpt lat="43.64484" lon="1.37947">
        <ele>148</ele>
        <time>2024-02-11T10:48:00Z</time>
      </trkpt>
      <trkpt lat="43.64486" lon="1.37949">
        <ele>148</ele>
        <time>2024-02-11T10:48:01Z</time>
      </trkpt>
      <trkpt lat="43.64486" lon="1.37949">
        <ele>148</ele>
        <time>2024-02-11T10:48:02Z</time>
      </trkpt>
      <trkpt lat="43.64488" lon="1.3795">
        <ele>148</ele>
        <time>2024-02-11T10:48:03Z</time>
      </trkpt>
      <trkpt lat="43.64488" lon="1.3795">
        <ele>148</ele>
        <time>2024-02-11T10:48:04Z</time>
      </trkpt>
      <trkpt lat="43.6449" lon="1.37951">
        <ele>148</ele>
        <time>2024-02-11T10:48:05Z</time>
      </trkpt>
      <trkpt lat="43.6449" lon="1.37951">
        <ele>148</ele>
        <time>2024-02-11T10:48:06Z</time>
      </trkpt>
      <trkpt lat="43.64492" lon="1.37953">
        <ele>148</ele>
        <time>2024-02-11T10:48:07Z</time>
      </trkpt>
      <trkpt lat="43.64492" lon="1.37953">
        <ele>148</ele>
        <time>2024-02-11T10:48:08Z</time>
      </trkpt>
      <trkpt lat="43.64494" lon="1.37954">
        <ele>148</ele>
        <time>2024-02-11T10:48:09Z</time>
      </trkpt>
      <trkpt lat="43.64494" lon="1.37954">
        <ele>148</ele>
        <time>2024-02-11T10:48:10Z</time>
      </trkpt>
      <trkpt lat="43.64497" lon="1.37956">
        <ele>148</ele>
        <time>2024-02-11T10:48:11Z</time>
      </trkpt>
      <trkpt lat="43.64497" lon="1.37956">
        <ele>148</ele>
        <time>2024-02-11T10:48:12Z</time>
      </trkpt>
      <trkpt lat="43.64499" lon="1.37957">
        <ele>148</ele>
        <time>2024-02-11T10:48:13Z</time>
      </trkpt>
      <trkpt lat="43.64499" lon="1.37957">
        <ele>148</ele>
        <time>2024-02-11T10:48:14Z</time>
      </trkpt>
      <trkpt lat="43.64501" lon="1.37958">
        <ele>148</ele>
        <time>2024-02-11T10:48:15Z</time>
      </trkpt>
      <trkpt lat="43.64501" lon="1.37958">
        <ele>148</ele>
        <time>2024-02-11T10:48:16Z</time>
      </trkpt>
      <trkpt lat="43.64503" lon="1.3796">
        <ele>149</ele>
        <time>2024-02-11T10:48:17Z</time>
      </trkpt>
      <trkpt lat="43.64503" lon="1.3796">
        <ele>149</ele>
        <time>2024-02-11T10:48:18Z</time>
      </trkpt>
      <trkpt lat="43.64506" lon="1.37962">
        <ele>149</ele>
        <time>2024-02-11T10:48:19Z</time>
      </trkpt>
      <trkpt lat="43.64506" lon="1.37962">
        <ele>149</ele>
        <time>2024-02-11T10:48:20Z</time>
      </trkpt>
      <trkpt lat="43.64508" lon="1.37963">
        <ele>149</ele>
        <time>2024-02-11T10:48:21Z</time>
      </trkpt>
      <trkpt lat="43.64508" lon="1.37963">
        <ele>150</ele>
        <time>2024-02-11T10:48:22Z</time>
      </trkpt>
      <trkpt lat="43.64511" lon="1.37965">
        <ele>150</ele>
        <time>2024-02-11T10:48:23Z</time>
      </trkpt>
      <trkpt lat="43.64511" lon="1.37965">
        <ele>150</ele>
        <time>2024-02-11T10:48:24Z</time>
      </trkpt>
      <trkpt lat="43.64513" lon="1.37967">
        <ele>150</ele>
        <time>2024-02-11T10:48:25Z</time>
      </trkpt>
      <trkpt lat="43.64513" lon="1.37967">
        <ele>150</ele>
        <time>2024-02-11T10:48:26Z</time>
      </trkpt>
      <trkpt lat="43.64515" lon="1.37968">
        <ele>150</ele>
        <time>2024-02-11T10:48:27Z</time>
      </trkpt>
      <trkpt lat="43.64515" lon="1.37968">
        <ele>149</ele>
        <time>2024-02-11T10:48:28Z</time>
      </trkpt>
      <trkpt lat="43.64517" lon="1.3797">
        <ele>148</ele>
        <time>2024-02-11T10:48:29Z</time>
      </trkpt>
      <trkpt lat="43.64517" lon="1.3797">
        <ele>148</ele>
        <time>2024-02-11T10:48:30Z</time>
      </trkpt>
      <trkpt lat="43.6452" lon="1.37972">
        <ele>148</ele>
        <time>2024-02-11T10:48:31Z</time>
      </trkpt>
      <trkpt lat="43.6452" lon="1.37972">
        <ele>148</ele>
        <time>2024-02-11T10:48:32Z</time>
      </trkpt>
      <trkpt lat="43.64522" lon="1.37973">
        <ele>148</ele>
        <time>2024-02-11T10:48:33Z</time>
      </trkpt>
      <trkpt lat="43.64522" lon="1.37973">
        <ele>148</ele>
        <time>2024-02-11T10:48:34Z</time>
      </trkpt>
      <trkpt lat="43.64524" lon="1.37975">
        <ele>149</ele>
        <time>2024-02-11T10:48:35Z</time>
      </trkpt>
      <trkpt lat="43.64524" lon="1.37975">
        <ele>149</ele>
        <time>2024-02-11T10:48:36Z</time>
      </trkpt>
      <trkpt lat="43.64527" lon="1.37976">
        <ele>149</ele>
        <time>2024-02-11T10:48:37Z</time>
      </trkpt>
      <trkpt lat="43.64527" lon="1.37976">
        <ele>149</ele>
        <time>2024-02-11T10:48:38Z</time>
      </trkpt>
      <trkpt lat="43.64529" lon="1.37978">
        <ele>149</ele>
        <time>2024-02-11T10:48:39Z</time>
      </trkpt>
      <trkpt lat="43.64529" lon="1.37978">
        <ele>149</ele>
        <time>2024-02-11T10:48:40Z</time>
      </trkpt>
      <trkpt lat="43.64531" lon="1.37979">
        <ele>149</ele>
        <time>2024-02-11T10:48:41Z</time>
      </trkpt>
      <trkpt lat="43.64531" lon="1.37979">
        <ele>148</ele>
        <time>2024-02-11T10:48:42Z</time>
      </trkpt>
      <trkpt lat="43.64533" lon="1.37979">
        <ele>148</ele>
        <time>2024-02-11T10:48:43Z</time>
      </trkpt>
      <trkpt lat="43.64533" lon="1.37979">
        <ele>148</ele>
        <time>2024-02-11T10:48:44Z</time>
      </trkpt>
      <trkpt lat="43.64535" lon="1.3798">
        <ele>148</ele>
        <time>2024-02-11T10:48:45Z</time>
      </trkpt>
      <trkpt lat="43.64535" lon="1.3798">
        <ele>148</ele>
        <time>2024-02-11T10:48:46Z</time>
      </trkpt>
      <trkpt lat="43.64537" lon="1.37981">
        <ele>148</ele>
        <time>2024-02-11T10:48:47Z</time>
      </trkpt>
      <trkpt lat="43.64537" lon="1.37981">
        <ele>148</ele>
        <time>2024-02-11T10:48:48Z</time>
      </trkpt>
      <trkpt lat="43.6454" lon="1.37982">
        <ele>148</ele>
        <time>2024-02-11T10:48:49Z</time>
      </trkpt>
      <trkpt lat="43.6454" lon="1.37982">
        <ele>148</ele>
        <time>2024-02-11T10:48:50Z</time>
      </trkpt>
      <trkpt lat="43.64542" lon="1.37981">
        <ele>148</ele>
        <time>2024-02-11T10:48:51Z</time>
      </trkpt>
      <trkpt lat="43.64542" lon="1.37981">
        <ele>148</ele>
        <time>2024-02-11T10:48:52Z</time>
      </trkpt>
      <trkpt lat="43.64544" lon="1.3798">
        <ele>148</ele>
        <time>2024-02-11T10:48:53Z</time>
      </trkpt>
      <trkpt lat="43.64544" lon="1.3798">
        <ele>148</ele>
        <time>2024-02-11T10:48:54Z</time>
      </trkpt>
      <trkpt lat="43.64547" lon="1.37979">
        <ele>148</ele>
        <time>2024-02-11T10:48:55Z</time>
      </trkpt>
      <trkpt lat="43.64547" lon="1.37979">
        <ele>148</ele>
        <time>2024-02-11T10:48:56Z</time>
      </trkpt>
      <trkpt lat="43.64549" lon="1.37978">
        <ele>148</ele>
        <time>2024-02-11T10:48:57Z</time>
      </trkpt>
      <trkpt lat="43.64549" lon="1.37978">
        <ele>148</ele>
        <time>2024-02-11T10:48:58Z</time>
      </trkpt>
      <trkpt lat="43.64551" lon="1.37976">
        <ele>148</ele>
        <time>2024-02-11T10:48:59Z</time>
      </trkpt>
      <trkpt lat="43.64551" lon="1.37976">
        <ele>148</ele>
        <time>2024-02-11T10:49:00Z</time>
      </trkpt>
      <trkpt lat="43.64553" lon="1.37975">
        <ele>148</ele>
        <time>2024-02-11T10:49:01Z</time>
      </trkpt>
      <trkpt lat="43.64553" lon="1.37975">
        <ele>148</ele>
        <time>2024-02-11T10:49:02Z</time>
      </trkpt>
      <trkpt lat="43.64555" lon="1.37973">
        <ele>148</ele>
        <time>2024-02-11T10:49:03Z</time>
      </trkpt>
      <trkpt lat="43.64555" lon="1.37973">
        <ele>149</ele>
        <time>2024-02-11T10:49:04Z</time>
      </trkpt>
      <trkpt lat="43.64557" lon="1.37972">
        <ele>149</ele>
        <time>2024-02-11T10:49:05Z</time>
      </trkpt>
      <trkpt lat="43.64557" lon="1.37972">
        <ele>149</ele>
        <time>2024-02-11T10:49:06Z</time>
      </trkpt>
      <trkpt lat="43.64559" lon="1.3797">
        <ele>150</ele>
        <time>2024-02-11T10:49:07Z</time>
      </trkpt>
      <trkpt lat="43.6456" lon="1.37968">
        <ele>147</ele>
        <time>2024-02-11T10:49:09Z</time>
      </trkpt>
      <trkpt lat="43.6456" lon="1.37968">
        <ele>147</ele>
        <time>2024-02-11T10:49:10Z</time>
      </trkpt>
      <trkpt lat="43.64561" lon="1.37966">
        <ele>147</ele>
        <time>2024-02-11T10:49:11Z</time>
      </trkpt>
      <trkpt lat="43.64561" lon="1.37966">
        <ele>148</ele>
        <time>2024-02-11T10:49:12Z</time>
      </trkpt>
      <trkpt lat="43.64562" lon="1.37964">
        <ele>148</ele>
        <time>2024-02-11T10:49:13Z</time>
      </trkpt>
      <trkpt lat="43.64562" lon="1.37964">
        <ele>149</ele>
        <time>2024-02-11T10:49:14Z</time>
      </trkpt>
      <trkpt lat="43.64564" lon="1.37961">
        <ele>149</ele>
        <time>2024-02-11T10:49:15Z</time>
      </trkpt>
      <trkpt lat="43.64564" lon="1.37961">
        <ele>148</ele>
        <time>2024-02-11T10:49:16Z</time>
      </trkpt>
      <trkpt lat="43.64565" lon="1.37958">
        <ele>148</ele>
        <time>2024-02-11T10:49:17Z</time>
      </trkpt>
      <trkpt lat="43.64565" lon="1.37958">
        <ele>148</ele>
        <time>2024-02-11T10:49:18Z</time>
      </trkpt>
      <trkpt lat="43.64565" lon="1.37955">
        <ele>148</ele>
        <time>2024-02-11T10:49:19Z</time>
      </trkpt>
      <trkpt lat="43.64565" lon="1.37955">
        <ele>148</ele>
        <time>2024-02-11T10:49:20Z</time>
      </trkpt>
      <trkpt lat="43.64566" lon="1.37951">
        <ele>149</ele>
        <time>2024-02-11T10:49:21Z</time>
      </trkpt>
      <trkpt lat="43.64566" lon="1.37951">
        <ele>149</ele>
        <time>2024-02-11T10:49:22Z</time>
      </trkpt>
      <trkpt lat="43.64566" lon="1.37948">
        <ele>149</ele>
        <time>2024-02-11T10:49:23Z</time>
      </trkpt>
      <trkpt lat="43.64566" lon="1.37948">
        <ele>149</ele>
        <time>2024-02-11T10:49:24Z</time>
      </trkpt>
      <trkpt lat="43.64566" lon="1.37945">
        <ele>149</ele>
        <time>2024-02-11T10:49:25Z</time>
      </trkpt>
      <trkpt lat="43.64566" lon="1.37945">
        <ele>149</ele>
        <time>2024-02-11T10:49:26Z</time>
      </trkpt>
      <trkpt lat="43.64567" lon="1.37941">
        <ele>149</ele>
        <time>2024-02-11T10:49:27Z</time>
      </trkpt>
      <trkpt lat="43.64567" lon="1.37941">
        <ele>149</ele>
        <time>2024-02-11T10:49:28Z</time>
      </trkpt>
      <trkpt lat="43.64566" lon="1.37938">
        <ele>149</ele>
        <time>2024-02-11T10:49:29Z</time>
      </trkpt>
      <trkpt lat="43.64566" lon="1.37938">
        <ele>149</ele>
        <time>2024-02-11T10:49:30Z</time>
      </trkpt>
      <trkpt lat="43.64566" lon="1.37934">
        <ele>149</ele>
        <time>2024-02-11T10:49:31Z</time>
      </trkpt>
      <trkpt lat="43.64566" lon="1.37934">
        <ele>149</ele>
        <time>2024-02-11T10:49:32Z</time>
      </trkpt>
      <trkpt lat="43.64565" lon="1.37931">
        <ele>149</ele>
        <time>2024-02-11T10:49:33Z</time>
      </trkpt>
      <trkpt lat="43.64565" lon="1.37931">
        <ele>149</ele>
        <time>2024-02-11T10:49:34Z</time>
      </trkpt>
      <trkpt lat="43.64563" lon="1.37927">
        <ele>149</ele>
        <time>2024-02-11T10:49:35Z</time>
      </trkpt>
      <trkpt lat="43.64563" lon="1.37927">
        <ele>149</ele>
        <time>2024-02-11T10:49:36Z</time>
      </trkpt>
      <trkpt lat="43.64562" lon="1.37924">
        <ele>149</ele>
        <time>2024-02-11T10:49:37Z</time>
      </trkpt>
      <trkpt lat="43.64562" lon="1.37924">
        <ele>149</ele>
        <time>2024-02-11T10:49:38Z</time>
      </trkpt>
      <trkpt lat="43.6456" lon="1.37921">
        <ele>149</ele>
        <time>2024-02-11T10:49:39Z</time>
      </trkpt>
      <trkpt lat="43.6456" lon="1.37921">
        <ele>149</ele>
        <time>2024-02-11T10:49:40Z</time>
      </trkpt>
      <trkpt lat="43.64558" lon="1.37918">
        <ele>149</ele>
        <time>2024-02-11T10:49:41Z</time>
      </trkpt>
      <trkpt lat="43.64558" lon="1.37918">
        <ele>149</ele>
        <time>2024-02-11T10:49:42Z</time>
      </trkpt>
      <trkpt lat="43.64557" lon="1.37915">
        <ele>148</ele>
        <time>2024-02-11T10:49:43Z</time>
      </trkpt>
      <trkpt lat="43.64558" lon="1.37912">
        <ele>148</ele>
        <time>2024-02-11T10:49:44Z</time>
      </trkpt>
      <trkpt lat="43.64558" lon="1.37912">
        <ele>148</ele>
        <time>2024-02-11T10:49:45Z</time>
      </trkpt>
      <trkpt lat="43.64559" lon="1.3791">
        <ele>148</ele>
        <time>2024-02-11T10:49:46Z</time>
      </trkpt>
      <trkpt lat="43.64559" lon="1.3791">
        <ele>149</ele>
        <time>2024-02-11T10:49:47Z</time>
      </trkpt>
      <trkpt lat="43.64554" lon="1.37911">
        <ele>149</ele>
        <time>2024-02-11T10:49:48Z</time>
      </trkpt>
      <trkpt lat="43.64554" lon="1.37911">
        <ele>149</ele>
        <time>2024-02-11T10:49:49Z</time>
      </trkpt>
      <trkpt lat="43.64547" lon="1.37908">
        <ele>149</ele>
        <time>2024-02-11T10:49:50Z</time>
      </trkpt>
      <trkpt lat="43.64543" lon="1.37906">
        <ele>149</ele>
        <time>2024-02-11T10:49:51Z</time>
      </trkpt>
      <trkpt lat="43.64538" lon="1.37904">
        <ele>149</ele>
        <time>2024-02-11T10:49:52Z</time>
      </trkpt>
      <trkpt lat="43.64534" lon="1.37901">
        <ele>149</ele>
        <time>2024-02-11T10:49:53Z</time>
      </trkpt>
      <trkpt lat="43.64529" lon="1.37898">
        <ele>149</ele>
        <time>2024-02-11T10:49:54Z</time>
      </trkpt>
      <trkpt lat="43.64524" lon="1.37896">
        <ele>149</ele>
        <time>2024-02-11T10:49:55Z</time>
      </trkpt>
      <trkpt lat="43.64521" lon="1.37894">
        <ele>149</ele>
        <time>2024-02-11T10:49:56Z</time>
      </trkpt>
      <trkpt lat="43.64517" lon="1.37892">
        <ele>149</ele>
        <time>2024-02-11T10:49:57Z</time>
      </trkpt>
      <trkpt lat="43.64512" lon="1.3789">
        <ele>149</ele>
        <time>2024-02-11T10:49:58Z</time>
      </trkpt>
      <trkpt lat="43.64508" lon="1.37887">
        <ele>148</ele>
        <time>2024-02-11T10:49:59Z</time>
      </trkpt>
      <trkpt lat="43.64508" lon="1.37887">
        <ele>148</ele>
        <time>2024-02-11T10:50:00Z</time>
      </trkpt>
      <trkpt lat="43.645" lon="1.37882">
        <ele>148</ele>
        <time>2024-02-11T10:50:01Z</time>
      </trkpt>
      <trkpt lat="43.64496" lon="1.3788">
        <ele>148</ele>
        <time>2024-02-11T10:50:02Z</time>
      </trkpt>
      <trkpt lat="43.64491" lon="1.37878">
        <ele>148</ele>
        <time>2024-02-11T10:50:03Z</time>
      </trkpt>
      <trkpt lat="43.64487" lon="1.37877">
        <ele>148</ele>
        <time>2024-02-11T10:50:04Z</time>
      </trkpt>
      <trkpt lat="43.64483" lon="1.37877">
        <ele>148</ele>
        <time>2024-02-11T10:50:05Z</time>
      </trkpt>
      <trkpt lat="43.64479" lon="1.37878">
        <ele>148</ele>
        <time>2024-02-11T10:50:06Z</time>
      </trkpt>
      <trkpt lat="43.64475" lon="1.37879">
        <ele>148</ele>
        <time>2024-02-11T10:50:07Z</time>
      </trkpt>
      <trkpt lat="43.64471" lon="1.37881">
        <ele>148</ele>
        <time>2024-02-11T10:50:08Z</time>
      </trkpt>
      <trkpt lat="43.64468" lon="1.37883">
        <ele>148</ele>
        <time>2024-02-11T10:50:09Z</time>
      </trkpt>
      <trkpt lat="43.64465" lon="1.37886">
        <ele>148</ele>
        <time>2024-02-11T10:50:10Z</time>
      </trkpt>
      <trkpt lat="43.64463" lon="1.3789">
        <ele>148</ele>
        <time>2024-02-11T10:50:11Z</time>
      </trkpt>
      <trkpt lat="43.64461" lon="1.37895">
        <ele>148</ele>
        <time>2024-02-11T10:50:12Z</time>
      </trkpt>
      <trkpt lat="43.64458" lon="1.379">
        <ele>148</ele>
        <time>2024-02-11T10:50:13Z</time>
      </trkpt>
      <trkpt lat="43.64457" lon="1.37906">
        <ele>148</ele>
        <time>2024-02-11T10:50:14Z</time>
      </trkpt>
      <trkpt lat="43.64455" lon="1.37912">
        <ele>148</ele>
        <time>2024-02-11T10:50:15Z</time>
      </trkpt>
      <trkpt lat="43.64455" lon="1.37917">
        <ele>148</ele>
        <time>2024-02-11T10:50:16Z</time>
      </trkpt>
      <trkpt lat="43.64455" lon="1.37923">
        <ele>148</ele>
        <time>2024-02-11T10:50:17Z</time>
      </trkpt>
      <trkpt lat="43.64455" lon="1.37928">
        <ele>148</ele>
        <time>2024-02-11T10:50:18Z</time>
      </trkpt>
      <trkpt lat="43.64457" lon="1.37933">
        <ele>148</ele>
        <time>2024-02-11T10:50:19Z</time>
      </trkpt>
      <trkpt lat="43.6446" lon="1.37938">
        <ele>148</ele>
        <time>2024-02-11T10:50:20Z</time>
      </trkpt>
      <trkpt lat="43.64463" lon="1.37942">
        <ele>148</ele>
        <time>2024-02-11T10:50:21Z</time>
      </trkpt>
      <trkpt lat="43.64468" lon="1.37945">
        <ele>148</ele>
        <time>2024-02-11T10:50:22Z</time>
      </trkpt>
      <trkpt lat="43.64472" lon="1.37947">
        <ele>147</ele>
        <time>2024-02-11T10:50:23Z</time>
      </trkpt>
      <trkpt lat="43.64476" lon="1.3795">
        <ele>147</ele>
        <time>2024-02-11T10:50:24Z</time>
      </trkpt>
      <trkpt lat="43.64481" lon="1.37952">
        <ele>147</ele>
        <time>2024-02-11T10:50:25Z</time>
      </trkpt>
      <trkpt lat="43.64485" lon="1.37953">
        <ele>147</ele>
        <time>2024-02-11T10:50:26Z</time>
      </trkpt>
      <trkpt lat="43.6449" lon="1.37955">
        <ele>147</ele>
        <time>2024-02-11T10:50:27Z</time>
      </trkpt>
      <trkpt lat="43.64495" lon="1.37958">
        <ele>147</ele>
        <time>2024-02-11T10:50:28Z</time>
      </trkpt>
      <trkpt lat="43.64499" lon="1.3796">
        <ele>147</ele>
        <time>2024-02-11T10:50:29Z</time>
      </trkpt>
      <trkpt lat="43.64504" lon="1.37963">
        <ele>147</ele>
        <time>2024-02-11T10:50:30Z</time>
      </trkpt>
      <trkpt lat="43.64508" lon="1.37966">
        <ele>147</ele>
        <time>2024-02-11T10:50:31Z</time>
      </trkpt>
      <trkpt lat="43.64512" lon="1.37969">
        <ele>147</ele>
        <time>2024-02-11T10:50:32Z</time>
      </trkpt>
      <trkpt lat="43.64517" lon="1.37972">
        <ele>147</ele>
        <time>2024-02-11T10:50:33Z</time>
      </trkpt>
      <trkpt lat="43.64521" lon="1.37975">
        <ele>147</ele>
        <time>2024-02-11T10:50:34Z</time>
      </trkpt>
      <trkpt lat="43.64525" lon="1.37977">
        <ele>148</ele>
        <time>2024-02-11T10:50:35Z</time>
      </trkpt>
      <trkpt lat="43.64528" lon="1.37979">
        <ele>148</ele>
        <time>2024-02-11T10:50:36Z</time>
      </trkpt>
      <trkpt lat="43.64531" lon="1.37981">
        <ele>148</ele>
        <time>2024-02-11T10:50:37Z</time>
      </trkpt>
      <trkpt lat="43.64535" lon="1.37982">
        <ele>148</ele>
        <time>2024-02-11T10:50:38Z</time>
      </trkpt>
      <trkpt lat="43.64539" lon="1.37982">
        <ele>148</ele>
        <time>2024-02-11T10:50:39Z</time>
      </trkpt>
      <trkpt lat="43.64544" lon="1.37981">
        <ele>148</ele>
        <time>2024-02-11T10:50:40Z</time>
      </trkpt>
      <trkpt lat="43.64547" lon="1.37979">
        <ele>148</ele>
        <time>2024-02-11T10:50:41Z</time>
      </trkpt>
      <trkpt lat="43.64551" lon="1.37977">
        <ele>148</ele>
        <time>2024-02-11T10:50:42Z</time>
      </trkpt>
      <trkpt lat="43.64555" lon="1.37973">
        <ele>149</ele>
        <time>2024-02-11T10:50:43Z</time>
      </trkpt>
      <trkpt lat="43.64558" lon="1.3797">
        <ele>149</ele>
        <time>2024-02-11T10:50:44Z</time>
      </trkpt>
      <trkpt lat="43.64561" lon="1.37966">
        <ele>149</ele>
        <time>2024-02-11T10:50:45Z</time>
      </trkpt>
      <trkpt lat="43.64563" lon="1.37961">
        <ele>148</ele>
        <time>2024-02-11T10:50:46Z</time>
      </trkpt>
      <trkpt lat="43.64565" lon="1.37957">
        <ele>148</ele>
        <time>2024-02-11T10:50:47Z</time>
      </trkpt>
      <trkpt lat="43.64566" lon="1.37952">
        <ele>149</ele>
        <time>2024-02-11T10:50:48Z</time>
      </trkpt>
      <trkpt lat="43.64566" lon="1.37947">
        <ele>150</ele>
        <time>2024-02-11T10:50:49Z</time>
      </trkpt>
      <trkpt lat="43.64566" lon="1.37941">
        <ele>150</ele>
        <time>2024-02-11T10:50:50Z</time>
      </trkpt>
      <trkpt lat="43.64565" lon="1.37935">
        <ele>150</ele>
        <time>2024-02-11T10:50:51Z</time>
      </trkpt>
      <trkpt lat="43.64564" lon="1.3793">
        <ele>150</ele>
        <time>2024-02-11T10:50:52Z</time>
      </trkpt>
      <trkpt lat="43.64562" lon="1.37925">
        <ele>150</ele>
        <time>2024-02-11T10:50:53Z</time>
      </trkpt>
      <trkpt lat="43.6456" lon="1.3792">
        <ele>150</ele>
        <time>2024-02-11T10:50:54Z</time>
      </trkpt>
      <trkpt lat="43.64557" lon="1.37917">
        <ele>150</ele>
        <time>2024-02-11T10:50:55Z</time>
      </trkpt>
      <trkpt lat="43.64555" lon="1.37914">
        <ele>150</ele>
        <time>2024-02-11T10:50:56Z</time>
      </trkpt>
      <trkpt lat="43.64554" lon="1.37912">
        <ele>149</ele>
        <time>2024-02-11T10:50:57Z</time>
      </trkpt>
      <trkpt lat="43.64554" lon="1.37912">
        <ele>148</ele>
        <time>2024-02-11T10:50:58Z</time>
      </trkpt>
      <trkpt lat="43.64551" lon="1.37911">
        <ele>148</ele>
        <time>2024-02-11T10:50:59Z</time>
      </trkpt>
      <trkpt lat="43.64551" lon="1.37911">
        <ele>148</ele>
        <time>2024-02-11T10:51:00Z</time>
      </trkpt>
      <trkpt lat="43.64549" lon="1.3791">
        <ele>148</ele>
        <time>2024-02-11T10:51:01Z</time>
      </trkpt>
      <trkpt lat="43.64546" lon="1.37909">
        <ele>148</ele>
        <time>2024-02-11T10:51:03Z</time>
      </trkpt>
      <trkpt lat="43.64546" lon="1.37909">
        <ele>148</ele>
        <time>2024-02-11T10:51:04Z</time>
      </trkpt>
      <trkpt lat="43.64544" lon="1.37908">
        <ele>148</ele>
        <time>2024-02-11T10:51:05Z</time>
      </trkpt>
      <trkpt lat="43.64544" lon="1.37908">
        <ele>147</ele>
        <time>2024-02-11T10:51:06Z</time>
      </trkpt>
      <trkpt lat="43.64541" lon="1.37907">
        <ele>148</ele>
        <time>2024-02-11T10:51:07Z</time>
      </trkpt>
      <trkpt lat="43.64541" lon="1.37907">
        <ele>148</ele>
        <time>2024-02-11T10:51:08Z</time>
      </trkpt>
      <trkpt lat="43.64539" lon="1.37905">
        <ele>148</ele>
        <time>2024-02-11T10:51:09Z</time>
      </trkpt>
      <trkpt lat="43.64539" lon="1.37905">
        <ele>148</ele>
        <time>2024-02-11T10:51:10Z</time>
      </trkpt>
      <trkpt lat="43.64537" lon="1.37904">
        <ele>148</ele>
        <time>2024-02-11T10:51:11Z</time>
      </trkpt>
      <trkpt lat="43.64537" lon="1.37904">
        <ele>148</ele>
        <time>2024-02-11T10:51:12Z</time>
      </trkpt>
      <trkpt lat="43.64534" lon="1.37903">
        <ele>148</ele>
        <time>2024-02-11T10:51:13Z</time>
      </trkpt>
      <trkpt lat="43.64534" lon="1.37903">
        <ele>148</ele>
        <time>2024-02-11T10:51:14Z</time>
      </trkpt>
      <trkpt lat="43.64532" lon="1.37902">
        <ele>148</ele>
        <time>2024-02-11T10:51:15Z</time>
      </trkpt>
      <trkpt lat="43.64532" lon="1.37902">
        <ele>148</ele>
        <time>2024-02-11T10:51:16Z</time>
      </trkpt>
      <trkpt lat="43.6453" lon="1.37901">
        <ele>148</ele>
        <time>2024-02-11T10:51:17Z</time>
      </trkpt>
      <trkpt lat="43.6453" lon="1.37901">
        <ele>148</ele>
        <time>2024-02-11T10:51:18Z</time>
      </trkpt>
      <trkpt lat="43.64528" lon="1.379">
        <ele>148</ele>
        <time>2024-02-11T10:51:19Z</time>
      </trkpt>
      <trkpt lat="43.64528" lon="1.379">
        <ele>147</ele>
        <time>2024-02-11T10:51:20Z</time>
      </trkpt>
      <trkpt lat="43.64526" lon="1.37898">
        <ele>147</ele>
        <time>2024-02-11T10:51:21Z</time>
      </trkpt>
      <trkpt lat="43.64526" lon="1.37898">
        <ele>147</ele>
        <time>2024-02-11T10:51:22Z</time>
      </trkpt>
      <trkpt lat="43.64524" lon="1.37897">
        <ele>147</ele>
        <time>2024-02-11T10:51:23Z</time>
      </trkpt>
      <trkpt lat="43.64524" lon="1.37897">
        <ele>147</ele>
        <time>2024-02-11T10:51:24Z</time>
      </trkpt>
      <trkpt lat="43.64522" lon="1.37896">
        <ele>147</ele>
        <time>2024-02-11T10:51:25Z</time>
      </trkpt>
      <trkpt lat="43.64522" lon="1.37896">
        <ele>147</ele>
        <time>2024-02-11T10:51:26Z</time>
      </trkpt>
      <trkpt lat="43.6452" lon="1.37895">
        <ele>147</ele>
        <time>2024-02-11T10:51:27Z</time>
      </trkpt>
      <trkpt lat="43.6452" lon="1.37895">
        <ele>147</ele>
        <time>2024-02-11T10:51:28Z</time>
      </trkpt>
      <trkpt lat="43.64518" lon="1.37893">
        <ele>148</ele>
        <time>2024-02-11T10:51:29Z</time>
      </trkpt>
      <trkpt lat="43.64518" lon="1.37893">
        <ele>148</ele>
        <time>2024-02-11T10:51:30Z</time>
      </trkpt>
      <trkpt lat="43.64518" lon="1.3789">
        <ele>148</ele>
        <time>2024-02-11T10:51:31Z</time>
      </trkpt>
      <trkpt lat="43.64518" lon="1.3789">
        <ele>148</ele>
        <time>2024-02-11T10:51:32Z</time>
      </trkpt>
      <trkpt lat="43.64518" lon="1.3789">
        <ele>148</ele>
        <time>2024-02-11T10:51:33Z</time>
      </trkpt>
      <trkpt lat="43.64518" lon="1.37886">
        <ele>148</ele>
        <time>2024-02-11T10:51:34Z</time>
      </trkpt>
      <trkpt lat="43.64518" lon="1.37886">
        <ele>148</ele>
        <time>2024-02-11T10:51:35Z</time>
      </trkpt>
      <trkpt lat="43.64516" lon="1.37885">
        <ele>148</ele>
        <time>2024-02-11T10:51:36Z</time>
      </trkpt>
      <trkpt lat="43.64516" lon="1.37885">
        <ele>148</ele>
        <time>2024-02-11T10:51:37Z</time>
      </trkpt>
      <trkpt lat="43.64514" lon="1.37883">
        <ele>148</ele>
        <time>2024-02-11T10:51:38Z</time>
      </trkpt>
      <trkpt lat="43.64514" lon="1.37883">
        <ele>148</ele>
        <time>2024-02-11T10:51:39Z</time>
      </trkpt>
      <trkpt lat="43.64514" lon="1.37883">
        <ele>148</ele>
        <time>2024-02-11T10:51:40Z</time>
      </trkpt>
      <trkpt lat="43.64512" lon="1.37881">
        <ele>148</ele>
        <time>2024-02-11T10:51:41Z</time>
      </trkpt>
      <trkpt lat="43.64512" lon="1.37881">
        <ele>148</ele>
        <time>2024-02-11T10:51:42Z</time>
      </trkpt>
      <trkpt lat="43.6451" lon="1.3788">
        <ele>148</ele>
        <time>2024-02-11T10:51:43Z</time>
      </trkpt>
      <trkpt lat="43.6451" lon="1.3788">
        <ele>148</ele>
        <time>2024-02-11T10:51:44Z</time>
      </trkpt>
      <trkpt lat="43.64508" lon="1.37879">
        <ele>147</ele>
        <time>2024-02-11T10:51:45Z</time>
      </trkpt>
      <trkpt lat="43.64508" lon="1.37879">
        <ele>147</ele>
        <time>2024-02-11T10:51:46Z</time>
      </trkpt>
      <trkpt lat="43.64506" lon="1.37878">
        <ele>147</ele>
        <time>2024-02-11T10:51:47Z</time>
      </trkpt>
      <trkpt lat="43.64506" lon="1.37878">
        <ele>147</ele>
        <time>2024-02-11T10:51:48Z</time>
      </trkpt>
      <trkpt lat="43.64504" lon="1.37877">
        <ele>147</ele>
        <time>2024-02-11T10:51:49Z</time>
      </trkpt>
      <trkpt lat="43.64504" lon="1.37877">
        <ele>147</ele>
        <time>2024-02-11T10:51:50Z</time>
      </trkpt>
      <trkpt lat="43.64502" lon="1.37876">
        <ele>147</ele>
        <time>2024-02-11T10:51:51Z</time>
      </trkpt>
      <trkpt lat="43.64502" lon="1.37876">
        <ele>147</ele>
        <time>2024-02-11T10:51:52Z</time>
      </trkpt>
      <trkpt lat="43.645" lon="1.37874">
        <ele>147</ele>
        <time>2024-02-11T10:51:53Z</time>
      </trkpt>
      <trkpt lat="43.645" lon="1.37874">
        <ele>147</ele>
        <time>2024-02-11T10:51:54Z</time>
      </trkpt>
      <trkpt lat="43.64498" lon="1.37874">
        <ele>147</ele>
        <time>2024-02-11T10:51:55Z</time>
      </trkpt>
      <trkpt lat="43.64498" lon="1.37874">
        <ele>147</ele>
        <time>2024-02-11T10:51:56Z</time>
      </trkpt>
      <trkpt lat="43.64496" lon="1.37872">
        <ele>147</ele>
        <time>2024-02-11T10:51:57Z</time>
      </trkpt>
      <trkpt lat="43.64496" lon="1.37872">
        <ele>147</ele>
        <time>2024-02-11T10:51:58Z</time>
      </trkpt>
      <trkpt lat="43.64494" lon="1.37871">
        <ele>147</ele>
        <time>2024-02-11T10:51:59Z</time>
      </trkpt>
      <trkpt lat="43.64494" lon="1.37871">
        <ele>147</ele>
        <time>2024-02-11T10:52:00Z</time>
      </trkpt>
      <trkpt lat="43.64492" lon="1.37871">
        <ele>147</ele>
        <time>2024-02-11T10:52:01Z</time>
      </trkpt>
      <trkpt lat="43.64492" lon="1.37871">
        <ele>147</ele>
        <time>2024-02-11T10:52:02Z</time>
      </trkpt>
      <trkpt lat="43.6449" lon="1.3787">
        <ele>147</ele>
        <time>2024-02-11T10:52:03Z</time>
      </trkpt>
      <trkpt lat="43.6449" lon="1.3787">
        <ele>147</ele>
        <time>2024-02-11T10:52:04Z</time>
      </trkpt>
      <trkpt lat="43.6449" lon="1.3787">
        <ele>147</ele>
        <time>2024-02-11T10:52:05Z</time>
      </trkpt>
      <trkpt lat="43.6449" lon="1.3787">
        <ele>146</ele>
        <time>2024-02-11T10:52:06Z</time>
      </trkpt>
      <trkpt lat="43.6449" lon="1.3787">
        <ele>146</ele>
        <time>2024-02-11T10:52:07Z</time>
      </trkpt>
      <trkpt lat="43.64488" lon="1.37869">
        <ele>146</ele>
        <time>2024-02-11T10:52:08Z</time>
      </trkpt>
      <trkpt lat="43.64488" lon="1.37869">
        <ele>146</ele>
        <time>2024-02-11T10:52:09Z</time>
      </trkpt>
      <trkpt lat="43.64486" lon="1.37869">
        <ele>146</ele>
        <time>2024-02-11T10:52:10Z</time>
      </trkpt>
      <trkpt lat="43.64486" lon="1.37869">
        <ele>146</ele>
        <time>2024-02-11T10:52:11Z</time>
      </trkpt>
      <trkpt lat="43.64484" lon="1.3787">
        <ele>146</ele>
        <time>2024-02-11T10:52:12Z</time>
      </trkpt>
      <trkpt lat="43.64484" lon="1.3787">
        <ele>146</ele>
        <time>2024-02-11T10:52:13Z</time>
      </trkpt>
      <trkpt lat="43.64482" lon="1.3787">
        <ele>146</ele>
        <time>2024-02-11T10:52:14Z</time>
      </trkpt>
      <trkpt lat="43.64482" lon="1.3787">
        <ele>146</ele>
        <time>2024-02-11T10:52:15Z</time>
      </trkpt>
      <trkpt lat="43.64482" lon="1.3787">
        <ele>146</ele>
        <time>2024-02-11T10:52:16Z</time>
      </trkpt>
      <trkpt lat="43.64482" lon="1.3787">
        <ele>146</ele>
        <time>2024-02-11T10:52:17Z</time>
      </trkpt>
      <trkpt lat="43.64482" lon="1.3787">
        <ele>146</ele>
        <time>2024-02-11T10:52:18Z</time>
      </trkpt>
      <trkpt lat="43.6448" lon="1.37871">
        <ele>146</ele>
        <time>2024-02-11T10:52:19Z</time>
      </trkpt>
      <trkpt lat="43.6448" lon="1.37871">
        <ele>146</ele>
        <time>2024-02-11T10:52:20Z</time>
      </trkpt>
      <trkpt lat="43.6448" lon="1.37871">
        <ele>147</ele>
        <time>2024-02-11T10:52:21Z</time>
      </trkpt>
      <trkpt lat="43.6448" lon="1.37871">
        <ele>147</ele>
        <time>2024-02-11T10:52:22Z</time>
      </trkpt>
      <trkpt lat="43.64481" lon="1.37874">
        <ele>146</ele>
        <time>2024-02-11T10:52:23Z</time>
      </trkpt>
      <trkpt lat="43.64481" lon="1.37874">
        <ele>146</ele>
        <time>2024-02-11T10:52:24Z</time>
      </trkpt>
      <trkpt lat="43.64481" lon="1.37874">
        <ele>146</ele>
        <time>2024-02-11T10:52:25Z</time>
      </trkpt>
      <trkpt lat="43.64483" lon="1.37874">
        <ele>146</ele>
        <time>2024-02-11T10:52:26Z</time>
      </trkpt>
      <trkpt lat="43.64483" lon="1.37874">
        <ele>146</ele>
        <time>2024-02-11T10:52:27Z</time>
      </trkpt>
      <trkpt lat="43.64483" lon="1.37874">
        <ele>146</ele>
        <time>2024-02-11T10:52:28Z</time>
      </trkpt>
      <trkpt lat="43.64485" lon="1.37872">
        <ele>146</ele>
        <time>2024-02-11T10:52:29Z</time>
      </trkpt>
      <trkpt lat="43.64485" lon="1.37872">
        <ele>146</ele>
        <time>2024-02-11T10:52:30Z</time>
      </trkpt>
      <trkpt lat="43.64485" lon="1.37872">
        <ele>146</ele>
        <time>2024-02-11T10:52:31Z</time>
      </trkpt>
      <trkpt lat="43.64486" lon="1.3787">
        <ele>146</ele>
        <time>2024-02-11T10:52:32Z</time>
      </trkpt>
      <trkpt lat="43.64486" lon="1.3787">
        <ele>146</ele>
        <time>2024-02-11T10:52:33Z</time>
      </trkpt>
      <trkpt lat="43.64486" lon="1.3787">
        <ele>146</ele>
        <time>2024-02-11T10:52:34Z</time>
      </trkpt>
      <trkpt lat="43.64486" lon="1.3787">
        <ele>146</ele>
        <time>2024-02-11T10:52:35Z</time>
      </trkpt>
      <trkpt lat="43.64486" lon="1.3787">
        <ele>146</ele>
        <time>2024-02-11T10:52:36Z</time>
      </trkpt>
      <trkpt lat="43.64486" lon="1.37868">
        <ele>146</ele>
        <time>2024-02-11T10:52:37Z</time>
      </trkpt>
      <trkpt lat="43.64486" lon="1.37868">
        <ele>146</ele>
        <time>2024-02-11T10:52:38Z</time>
      </trkpt>
      <trkpt lat="43.64486" lon="1.37868">
        <ele>146</ele>
        <time>2024-02-11T10:52:39Z</time>
      </trkpt>
      <trkpt lat="43.64486" lon="1.37868">
        <ele>146</ele>
        <time>2024-02-11T10:52:40Z</time>
      </trkpt>
      <trkpt lat="43.64486" lon="1.37868">
        <ele>146</ele>
        <time>2024-02-11T10:52:41Z</time>
      </trkpt>
      <trkpt lat="43.64486" lon="1.37868">
        <ele>146</ele>
        <time>2024-02-11T10:52:42Z</time>
      </trkpt>
      <trkpt lat="43.64486" lon="1.37868">
        <ele>146</ele>
        <time>2024-02-11T10:52:43Z</time>
      </trkpt>
      <trkpt lat="43.64486" lon="1.37868">
        <ele>146</ele>
        <time>2024-02-11T10:52:44Z</time>
      </trkpt>
      <trkpt lat="43.64486" lon="1.37868">
        <ele>146</ele>
        <time>2024-02-11T10:52:45Z</time>
      </trkpt>
      <trkpt lat="43.64486" lon="1.37868">
        <ele>146</ele>
        <time>2024-02-11T10:52:46Z</time>
      </trkpt>
      <trkpt lat="43.64484" lon="1.37869">
        <ele>146</ele>
        <time>2024-02-11T10:52:47Z</time>
      </trkpt>
      <trkpt lat="43.64484" lon="1.37869">
        <ele>146</ele>
        <time>2024-02-11T10:52:48Z</time>
      </trkpt>
      <trkpt lat="43.64484" lon="1.37869">
        <ele>146</ele>
        <time>2024-02-11T10:52:49Z</time>
      </trkpt>
      <trkpt lat="43.64484" lon="1.37869">
        <ele>146</ele>
        <time>2024-02-11T10:52:50Z</time>
      </trkpt>
      <trkpt lat="43.64484" lon="1.37869">
        <ele>146</ele>
        <time>2024-02-11T10:52:51Z</time>
      </trkpt>
      <trkpt lat="43.64484" lon="1.37869">
        <ele>146</ele>
        <time>2024-02-11T10:52:52Z</time>
      </trkpt>
      <trkpt lat="43.64484" lon="1.37869">
        <ele>146</ele>
        <time>2024-02-11T10:52:53Z</time>
      </trkpt>
      <trkpt lat="43.64484" lon="1.37869">
        <ele>146</ele>
        <time>2024-02-11T10:52:54Z</time>
      </trkpt>
      <trkpt lat="43.64484" lon="1.37869">
        <ele>146</ele>
        <time>2024-02-11T10:52:55Z</time>
      </trkpt>
      <trkpt lat="43.64484" lon="1.37869">
        <ele>146</ele>
        <time>2024-02-11T10:52:56Z</time>
      </trkpt>
      <trkpt lat="43.64484" lon="1.37869">
        <ele>146</ele>
        <time>2024-02-11T10:52:57Z</time>
      </trkpt>
      <trkpt lat="43.64484" lon="1.37869">
        <ele>146</ele>
        <time>2024-02-11T10:52:58Z</time>
      </trkpt>
      <trkpt lat="43.64484" lon="1.37869">
        <ele>146</ele>
        <time>2024-02-11T10:52:59Z</time>
      </trkpt>
      <trkpt lat="43.64484" lon="1.37869">
        <ele>146</ele>
        <time>2024-02-11T10:53:00Z</time>
      </trkpt>
      <trkpt lat="43.64486" lon="1.37867">
        <ele>146</ele>
        <time>2024-02-11T10:53:01Z</time>
      </trkpt>
      <trkpt lat="43.64486" lon="1.37867">
        <ele>146</ele>
        <time>2024-02-11T10:53:02Z</time>
      </trkpt>
      <trkpt lat="43.64486" lon="1.37867">
        <ele>146</ele>
        <time>2024-02-11T10:53:03Z</time>
      </trkpt>
      <trkpt lat="43.64486" lon="1.37867">
        <ele>146</ele>
        <time>2024-02-11T10:53:04Z</time>
      </trkpt>
      <trkpt lat="43.64486" lon="1.37867">
        <ele>146</ele>
        <time>2024-02-11T10:53:05Z</time>
      </trkpt>
      <trkpt lat="43.64486" lon="1.37867">
        <ele>146</ele>
        <time>2024-02-11T10:53:06Z</time>
      </trkpt>
      <trkpt lat="43.64486" lon="1.37867">
        <ele>146</ele>
        <time>2024-02-11T10:53:07Z</time>
      </trkpt>
      <trkpt lat="43.64486" lon="1.37864">
        <ele>146</ele>
        <time>2024-02-11T10:53:08Z</time>
      </trkpt>
      <trkpt lat="43.64486" lon="1.37864">
        <ele>146</ele>
        <time>2024-02-11T10:53:09Z</time>
      </trkpt>
      <trkpt lat="43.64486" lon="1.37864">
        <ele>146</ele>
        <time>2024-02-11T10:53:10Z</time>
      </trkpt>
      <trkpt lat="43.64486" lon="1.37864">
        <ele>146</ele>
        <time>2024-02-11T10:53:11Z</time>
      </trkpt>
      <trkpt lat="43.64486" lon="1.37864">
        <ele>146</ele>
        <time>2024-02-11T10:53:12Z</time>
      </trkpt>
      <trkpt lat="43.64486" lon="1.37864">
        <ele>146</ele>
        <time>2024-02-11T10:53:13Z</time>
      </trkpt>
      <trkpt lat="43.64486" lon="1.37864">
        <ele>146</ele>
        <time>2024-02-11T10:53:14Z</time>
      </trkpt>
      <trkpt lat="43.64486" lon="1.37864">
        <ele>146</ele>
        <time>2024-02-11T10:53:15Z</time>
      </trkpt>
      <trkpt lat="43.64486" lon="1.37864">
        <ele>146</ele>
        <time>2024-02-11T10:53:16Z</time>
      </trkpt>
      <trkpt lat="43.64486" lon="1.37864">
        <ele>146</ele>
        <time>2024-02-11T10:53:17Z</time>
      </trkpt>
      <trkpt lat="43.64486" lon="1.37864">
        <ele>146</ele>
        <time>2024-02-11T10:53:18Z</time>
      </trkpt>
      <trkpt lat="43.64486" lon="1.37864">
        <ele>146</ele>
        <time>2024-02-11T10:53:19Z</time>
      </trkpt>
      <trkpt lat="43.64486" lon="1.37864">
        <ele>146</ele>
        <time>2024-02-11T10:53:20Z</time>
      </trkpt>
      <trkpt lat="43.64486" lon="1.37864">
        <ele>146</ele>
        <time>2024-02-11T10:53:21Z</time>
      </trkpt>
      <trkpt lat="43.64486" lon="1.37864">
        <ele>146</ele>
        <time>2024-02-11T10:53:22Z</time>
      </trkpt>
      <trkpt lat="43.64486" lon="1.37864">
        <ele>146</ele>
        <time>2024-02-11T10:53:23Z</time>
      </trkpt>
      <trkpt lat="43.64486" lon="1.37864">
        <ele>146</ele>
        <time>2024-02-11T10:53:24Z</time>
      </trkpt>
      <trkpt lat="43.64486" lon="1.37864">
        <ele>146</ele>
        <time>2024-02-11T10:53:25Z</time>
      </trkpt>
      <trkpt lat="43.64486" lon="1.37864">
        <ele>147</ele>
        <time>2024-02-11T10:53:26Z</time>
      </trkpt>
      <trkpt lat="43.64488" lon="1.37863">
        <ele>147</ele>
        <time>2024-02-11T10:53:27Z</time>
      </trkpt>
      <trkpt lat="43.64488" lon="1.37863">
        <ele>147</ele>
        <time>2024-02-11T10:53:28Z</time>
      </trkpt>
      <trkpt lat="43.64491" lon="1.37865">
        <ele>147</ele>
        <time>2024-02-11T10:53:29Z</time>
      </trkpt>
      <trkpt lat="43.64495" lon="1.37868">
        <ele>146</ele>
        <time>2024-02-11T10:53:30Z</time>
      </trkpt>
      <trkpt lat="43.64499" lon="1.37871">
        <ele>147</ele>
        <time>2024-02-11T10:53:31Z</time>
      </trkpt>
      <trkpt lat="43.64504" lon="1.37874">
        <ele>147</ele>
        <time>2024-02-11T10:53:32Z</time>
      </trkpt>
      <trkpt lat="43.64509" lon="1.37876">
        <ele>146</ele>
        <time>2024-02-11T10:53:33Z</time>
      </trkpt>
      <trkpt lat="43.64515" lon="1.3788">
        <ele>147</ele>
        <time>2024-02-11T10:53:34Z</time>
      </trkpt>
      <trkpt lat="43.6452" lon="1.37883">
        <ele>147</ele>
        <time>2024-02-11T10:53:35Z</time>
      </trkpt>
      <trkpt lat="43.64526" lon="1.37888">
        <ele>147</ele>
        <time>2024-02-11T10:53:36Z</time>
      </trkpt>
      <trkpt lat="43.64533" lon="1.37891">
        <ele>147</ele>
        <time>2024-02-11T10:53:37Z</time>
      </trkpt>
      <trkpt lat="43.64538" lon="1.37895">
        <ele>146</ele>
        <time>2024-02-11T10:53:38Z</time>
      </trkpt>
      <trkpt lat="43.64544" lon="1.37898">
        <ele>146</ele>
        <time>2024-02-11T10:53:39Z</time>
      </trkpt>
      <trkpt lat="43.6455" lon="1.37901">
        <ele>146</ele>
        <time>2024-02-11T10:53:40Z</time>
      </trkpt>
      <trkpt lat="43.64555" lon="1.37904">
        <ele>146</ele>
        <time>2024-02-11T10:53:41Z</time>
      </trkpt>
      <trkpt lat="43.6456" lon="1.37905">
        <ele>146</ele>
        <time>2024-02-11T10:53:42Z</time>
      </trkpt>
      <trkpt lat="43.64564" lon="1.37907">
        <ele>146</ele>
        <time>2024-02-11T10:53:43Z</time>
      </trkpt>
      <trkpt lat="43.64567" lon="1.37909">
        <ele>146</ele>
        <time>2024-02-11T10:53:44Z</time>
      </trkpt>
      <trkpt lat="43.6457" lon="1.3791">
        <ele>146</ele>
        <time>2024-02-11T10:53:45Z</time>
      </trkpt>
      <trkpt lat="43.6457" lon="1.3791">
        <ele>146</ele>
        <time>2024-02-11T10:53:46Z</time>
      </trkpt>
      <trkpt lat="43.64572" lon="1.37913">
        <ele>146</ele>
        <time>2024-02-11T10:53:47Z</time>
      </trkpt>
      <trkpt lat="43.64572" lon="1.37913">
        <ele>146</ele>
        <time>2024-02-11T10:53:48Z</time>
      </trkpt>
      <trkpt lat="43.64575" lon="1.37915">
        <ele>146</ele>
        <time>2024-02-11T10:53:49Z</time>
      </trkpt>
      <trkpt lat="43.64575" lon="1.37915">
        <ele>146</ele>
        <time>2024-02-11T10:53:50Z</time>
      </trkpt>
      <trkpt lat="43.64578" lon="1.37917">
        <ele>146</ele>
        <time>2024-02-11T10:53:51Z</time>
      </trkpt>
      <trkpt lat="43.64578" lon="1.37917">
        <ele>146</ele>
        <time>2024-02-11T10:53:52Z</time>
      </trkpt>
      <trkpt lat="43.6458" lon="1.37919">
        <ele>146</ele>
        <time>2024-02-11T10:53:53Z</time>
      </trkpt>
      <trkpt lat="43.6458" lon="1.37919">
        <ele>146</ele>
        <time>2024-02-11T10:53:54Z</time>
      </trkpt>
      <trkpt lat="43.6458" lon="1.37919">
        <ele>146</ele>
        <time>2024-02-11T10:53:55Z</time>
      </trkpt>
      <trkpt lat="43.6458" lon="1.37919">
        <ele>146</ele>
        <time>2024-02-11T10:53:56Z</time>
      </trkpt>
      <trkpt lat="43.64581" lon="1.37921">
        <ele>146</ele>
        <time>2024-02-11T10:53:57Z</time>
      </trkpt>
      <trkpt lat="43.64581" lon="1.37921">
        <ele>146</ele>
        <time>2024-02-11T10:53:58Z</time>
      </trkpt>
      <trkpt lat="43.6458" lon="1.37923">
        <ele>146</ele>
        <time>2024-02-11T10:53:59Z</time>
      </trkpt>
      <trkpt lat="43.6458" lon="1.37923">
        <ele>146</ele>
        <time>2024-02-11T10:54:00Z</time>
      </trkpt>
      <trkpt lat="43.64577" lon="1.37922">
        <ele>146</ele>
        <time>2024-02-11T10:54:01Z</time>
      </trkpt>
      <trkpt lat="43.64577" lon="1.37922">
        <ele>147</ele>
        <time>2024-02-11T10:54:02Z</time>
      </trkpt>
      <trkpt lat="43.64575" lon="1.37922">
        <ele>147</ele>
        <time>2024-02-11T10:54:03Z</time>
      </trkpt>
      <trkpt lat="43.64575" lon="1.37922">
        <ele>147</ele>
        <time>2024-02-11T10:54:04Z</time>
      </trkpt>
      <trkpt lat="43.64572" lon="1.37922">
        <ele>147</ele>
        <time>2024-02-11T10:54:05Z</time>
      </trkpt>
      <trkpt lat="43.64572" lon="1.37922">
        <ele>146</ele>
        <time>2024-02-11T10:54:06Z</time>
      </trkpt>
      <trkpt lat="43.64569" lon="1.37922">
        <ele>146</ele>
        <time>2024-02-11T10:54:07Z</time>
      </trkpt>
      <trkpt lat="43.64569" lon="1.37922">
        <ele>146</ele>
        <time>2024-02-11T10:54:08Z</time>
      </trkpt>
      <trkpt lat="43.64567" lon="1.37921">
        <ele>147</ele>
        <time>2024-02-11T10:54:09Z</time>
      </trkpt>
      <trkpt lat="43.64567" lon="1.37921">
        <ele>147</ele>
        <time>2024-02-11T10:54:10Z</time>
      </trkpt>
      <trkpt lat="43.64565" lon="1.3792">
        <ele>147</ele>
        <time>2024-02-11T10:54:11Z</time>
      </trkpt>
      <trkpt lat="43.64565" lon="1.3792">
        <ele>147</ele>
        <time>2024-02-11T10:54:12Z</time>
      </trkpt>
      <trkpt lat="43.64563" lon="1.37919">
        <ele>147</ele>
        <time>2024-02-11T10:54:13Z</time>
      </trkpt>
      <trkpt lat="43.64563" lon="1.37919">
        <ele>147</ele>
        <time>2024-02-11T10:54:14Z</time>
      </trkpt>
      <trkpt lat="43.64561" lon="1.37917">
        <ele>147</ele>
        <time>2024-02-11T10:54:15Z</time>
      </trkpt>
      <trkpt lat="43.64561" lon="1.37917">
        <ele>147</ele>
        <time>2024-02-11T10:54:16Z</time>
      </trkpt>
      <trkpt lat="43.64559" lon="1.37916">
        <ele>147</ele>
        <time>2024-02-11T10:54:17Z</time>
      </trkpt>
      <trkpt lat="43.64559" lon="1.37916">
        <ele>147</ele>
        <time>2024-02-11T10:54:18Z</time>
      </trkpt>
      <trkpt lat="43.64558" lon="1.37914">
        <ele>148</ele>
        <time>2024-02-11T10:54:19Z</time>
      </trkpt>
      <trkpt lat="43.64558" lon="1.37914">
        <ele>148</ele>
        <time>2024-02-11T10:54:20Z</time>
      </trkpt>
      <trkpt lat="43.64558" lon="1.37914">
        <ele>148</ele>
        <time>2024-02-11T10:54:21Z</time>
      </trkpt>
      <trkpt lat="43.64558" lon="1.37914">
        <ele>147</ele>
        <time>2024-02-11T10:54:22Z</time>
      </trkpt>
      <trkpt lat="43.64558" lon="1.37914">
        <ele>147</ele>
        <time>2024-02-11T10:54:23Z</time>
      </trkpt>
      <trkpt lat="43.64556" lon="1.37913">
        <ele>147</ele>
        <time>2024-02-11T10:54:24Z</time>
      </trkpt>
      <trkpt lat="43.64553" lon="1.3791">
        <ele>147</ele>
        <time>2024-02-11T10:54:25Z</time>
      </trkpt>
      <trkpt lat="43.64548" lon="1.37907">
        <ele>147</ele>
        <time>2024-02-11T10:54:26Z</time>
      </trkpt>
      <trkpt lat="43.64542" lon="1.37905">
        <ele>147</ele>
        <time>2024-02-11T10:54:27Z</time>
      </trkpt>
      <trkpt lat="43.64536" lon="1.37901">
        <ele>146</ele>
        <time>2024-02-11T10:54:28Z</time>
      </trkpt>
      <trkpt lat="43.6453" lon="1.37897">
        <ele>146</ele>
        <time>2024-02-11T10:54:29Z</time>
      </trkpt>
      <trkpt lat="43.64524" lon="1.37893">
        <ele>147</ele>
        <time>2024-02-11T10:54:30Z</time>
      </trkpt>
      <trkpt lat="43.64518" lon="1.37889">
        <ele>147</ele>
        <time>2024-02-11T10:54:31Z</time>
      </trkpt>
      <trkpt lat="43.64513" lon="1.37885">
        <ele>147</ele>
        <time>2024-02-11T10:54:32Z</time>
      </trkpt>
      <trkpt lat="43.64507" lon="1.37881">
        <ele>147</ele>
        <time>2024-02-11T10:54:33Z</time>
      </trkpt>
      <trkpt lat="43.64502" lon="1.37877">
        <ele>147</ele>
        <time>2024-02-11T10:54:34Z</time>
      </trkpt>
      <trkpt lat="43.64497" lon="1.37874">
        <ele>147</ele>
        <time>2024-02-11T10:54:35Z</time>
      </trkpt>
      <trkpt lat="43.64492" lon="1.37872">
        <ele>146</ele>
        <time>2024-02-11T10:54:36Z</time>
      </trkpt>
      <trkpt lat="43.64488" lon="1.3787">
        <ele>147</ele>
        <time>2024-02-11T10:54:37Z</time>
      </trkpt>
      <trkpt lat="43.64485" lon="1.3787">
        <ele>147</ele>
        <time>2024-02-11T10:54:38Z</time>
      </trkpt>
      <trkpt lat="43.64482" lon="1.3787">
        <ele>147</ele>
        <time>2024-02-11T10:54:39Z</time>
      </trkpt>
      <trkpt lat="43.6448" lon="1.37871">
        <ele>147</ele>
        <time>2024-02-11T10:54:40Z</time>
      </trkpt>
      <trkpt lat="43.6448" lon="1.37871">
        <ele>147</ele>
        <time>2024-02-11T10:54:41Z</time>
      </trkpt>
      <trkpt lat="43.64477" lon="1.37873">
        <ele>147</ele>
        <time>2024-02-11T10:54:42Z</time>
      </trkpt>
      <trkpt lat="43.64477" lon="1.37873">
        <ele>147</ele>
        <time>2024-02-11T10:54:43Z</time>
      </trkpt>
      <trkpt lat="43.64475" lon="1.37875">
        <ele>147</ele>
        <time>2024-02-11T10:54:44Z</time>
      </trkpt>
      <trkpt lat="43.64475" lon="1.37875">
        <ele>147</ele>
        <time>2024-02-11T10:54:45Z</time>
      </trkpt>
      <trkpt lat="43.64473" lon="1.37876">
        <ele>147</ele>
        <time>2024-02-11T10:54:46Z</time>
      </trkpt>
      <trkpt lat="43.64473" lon="1.37876">
        <ele>147</ele>
        <time>2024-02-11T10:54:47Z</time>
      </trkpt>
      <trkpt lat="43.64471" lon="1.37877">
        <ele>147</ele>
        <time>2024-02-11T10:54:48Z</time>
      </trkpt>
      <trkpt lat="43.64471" lon="1.37877">
        <ele>147</ele>
        <time>2024-02-11T10:54:49Z</time>
      </trkpt>
      <trkpt lat="43.6447" lon="1.37878">
        <ele>147</ele>
        <time>2024-02-11T10:54:50Z</time>
      </trkpt>
      <trkpt lat="43.6447" lon="1.37878">
        <ele>147</ele>
        <time>2024-02-11T10:54:51Z</time>
      </trkpt>
      <trkpt lat="43.6447" lon="1.37878">
        <ele>147</ele>
        <time>2024-02-11T10:54:52Z</time>
      </trkpt>
      <trkpt lat="43.64467" lon="1.3788">
        <ele>147</ele>
        <time>2024-02-11T10:54:53Z</time>
      </trkpt>
      <trkpt lat="43.64467" lon="1.3788">
        <ele>147</ele>
        <time>2024-02-11T10:54:54Z</time>
      </trkpt>
      <trkpt lat="43.64466" lon="1.37882">
        <ele>147</ele>
        <time>2024-02-11T10:54:55Z</time>
      </trkpt>
      <trkpt lat="43.64466" lon="1.37882">
        <ele>147</ele>
        <time>2024-02-11T10:54:56Z</time>
      </trkpt>
      <trkpt lat="43.64464" lon="1.37883">
        <ele>147</ele>
        <time>2024-02-11T10:54:57Z</time>
      </trkpt>
      <trkpt lat="43.64464" lon="1.37883">
        <ele>147</ele>
        <time>2024-02-11T10:54:58Z</time>
      </trkpt>
      <trkpt lat="43.64462" lon="1.37885">
        <ele>147</ele>
        <time>2024-02-11T10:54:59Z</time>
      </trkpt>
      <trkpt lat="43.64462" lon="1.37885">
        <ele>147</ele>
        <time>2024-02-11T10:55:00Z</time>
      </trkpt>
      <trkpt lat="43.64461" lon="1.37887">
        <ele>146</ele>
        <time>2024-02-11T10:55:01Z</time>
      </trkpt>
      <trkpt lat="43.64461" lon="1.37887">
        <ele>146</ele>
        <time>2024-02-11T10:55:02Z</time>
      </trkpt>
      <trkpt lat="43.6446" lon="1.3789">
        <ele>146</ele>
        <time>2024-02-11T10:55:03Z</time>
      </trkpt>
      <trkpt lat="43.6446" lon="1.3789">
        <ele>147</ele>
        <time>2024-02-11T10:55:04Z</time>
      </trkpt>
      <trkpt lat="43.6446" lon="1.3789">
        <ele>147</ele>
        <time>2024-02-11T10:55:05Z</time>
      </trkpt>
      <trkpt lat="43.64459" lon="1.37893">
        <ele>147</ele>
        <time>2024-02-11T10:55:06Z</time>
      </trkpt>
      <trkpt lat="43.64459" lon="1.37893">
        <ele>147</ele>
        <time>2024-02-11T10:55:07Z</time>
      </trkpt>
      <trkpt lat="43.64459" lon="1.37893">
        <ele>147</ele>
        <time>2024-02-11T10:55:08Z</time>
      </trkpt>
      <trkpt lat="43.64459" lon="1.37893">
        <ele>147</ele>
        <time>2024-02-11T10:55:09Z</time>
      </trkpt>
      <trkpt lat="43.64458" lon="1.37896">
        <ele>147</ele>
        <time>2024-02-11T10:55:10Z</time>
      </trkpt>
      <trkpt lat="43.64458" lon="1.37896">
        <ele>147</ele>
        <time>2024-02-11T10:55:11Z</time>
      </trkpt>
      <trkpt lat="43.64458" lon="1.37896">
        <ele>147</ele>
        <time>2024-02-11T10:55:12Z</time>
      </trkpt>
      <trkpt lat="43.64458" lon="1.37896">
        <ele>147</ele>
        <time>2024-02-11T10:55:13Z</time>
      </trkpt>
      <trkpt lat="43.64458" lon="1.37896">
        <ele>147</ele>
        <time>2024-02-11T10:55:14Z</time>
      </trkpt>
      <trkpt lat="43.64458" lon="1.37896">
        <ele>147</ele>
        <time>2024-02-11T10:55:15Z</time>
      </trkpt>
      <trkpt lat="43.64459" lon="1.37893">
        <ele>148</ele>
        <time>2024-02-11T10:55:16Z</time>
      </trkpt>
      <trkpt lat="43.64459" lon="1.37893">
        <ele>148</ele>
        <time>2024-02-11T10:55:17Z</time>
      </trkpt>
      <trkpt lat="43.6446" lon="1.3789">
        <ele>148</ele>
        <time>2024-02-11T10:55:18Z</time>
      </trkpt>
      <trkpt lat="43.6446" lon="1.3789">
        <ele>147</ele>
        <time>2024-02-11T10:55:19Z</time>
      </trkpt>
      <trkpt lat="43.64461" lon="1.37888">
        <ele>147</ele>
        <time>2024-02-11T10:55:20Z</time>
      </trkpt>
      <trkpt lat="43.64461" lon="1.37888">
        <ele>147</ele>
        <time>2024-02-11T10:55:21Z</time>
      </trkpt>
      <trkpt lat="43.64463" lon="1.37885">
        <ele>147</ele>
        <time>2024-02-11T10:55:22Z</time>
      </trkpt>
      <trkpt lat="43.64463" lon="1.37885">
        <ele>147</ele>
        <time>2024-02-11T10:55:23Z</time>
      </trkpt>
      <trkpt lat="43.64465" lon="1.37882">
        <ele>147</ele>
        <time>2024-02-11T10:55:24Z</time>
      </trkpt>
      <trkpt lat="43.64467" lon="1.37881">
        <ele>147</ele>
        <time>2024-02-11T10:55:25Z</time>
      </trkpt>
      <trkpt lat="43.64467" lon="1.37881">
        <ele>147</ele>
        <time>2024-02-11T10:55:26Z</time>
      </trkpt>
      <trkpt lat="43.64468" lon="1.37878">
        <ele>147</ele>
        <time>2024-02-11T10:55:27Z</time>
      </trkpt>
      <trkpt lat="43.64468" lon="1.37878">
        <ele>147</ele>
        <time>2024-02-11T10:55:28Z</time>
      </trkpt>
      <trkpt lat="43.6447" lon="1.37875">
        <ele>147</ele>
        <time>2024-02-11T10:55:29Z</time>
      </trkpt>
      <trkpt lat="43.6447" lon="1.37875">
        <ele>147</ele>
        <time>2024-02-11T10:55:30Z</time>
      </trkpt>
      <trkpt lat="43.64471" lon="1.37873">
        <ele>147</ele>
        <time>2024-02-11T10:55:31Z</time>
      </trkpt>
      <trkpt lat="43.64471" lon="1.37873">
        <ele>147</ele>
        <time>2024-02-11T10:55:32Z</time>
      </trkpt>
      <trkpt lat="43.64474" lon="1.37871">
        <ele>147</ele>
        <time>2024-02-11T10:55:33Z</time>
      </trkpt>
      <trkpt lat="43.64474" lon="1.37871">
        <ele>146</ele>
        <time>2024-02-11T10:55:34Z</time>
      </trkpt>
      <trkpt lat="43.64477" lon="1.3787">
        <ele>147</ele>
        <time>2024-02-11T10:55:35Z</time>
      </trkpt>
      <trkpt lat="43.64477" lon="1.3787">
        <ele>147</ele>
        <time>2024-02-11T10:55:36Z</time>
      </trkpt>
      <trkpt lat="43.64479" lon="1.37869">
        <ele>146</ele>
        <time>2024-02-11T10:55:37Z</time>
      </trkpt>
      <trkpt lat="43.64479" lon="1.37869">
        <ele>146</ele>
        <time>2024-02-11T10:55:38Z</time>
      </trkpt>
      <trkpt lat="43.64481" lon="1.37868">
        <ele>146</ele>
        <time>2024-02-11T10:55:39Z</time>
      </trkpt>
      <trkpt lat="43.64481" lon="1.37868">
        <ele>146</ele>
        <time>2024-02-11T10:55:40Z</time>
      </trkpt>
      <trkpt lat="43.64483" lon="1.37868">
        <ele>146</ele>
        <time>2024-02-11T10:55:41Z</time>
      </trkpt>
      <trkpt lat="43.64483" lon="1.37868">
        <ele>146</ele>
        <time>2024-02-11T10:55:42Z</time>
      </trkpt>
      <trkpt lat="43.64485" lon="1.37867">
        <ele>146</ele>
        <time>2024-02-11T10:55:43Z</time>
      </trkpt>
      <trkpt lat="43.64485" lon="1.37867">
        <ele>146</ele>
        <time>2024-02-11T10:55:44Z</time>
      </trkpt>
      <trkpt lat="43.64485" lon="1.37867">
        <ele>146</ele>
        <time>2024-02-11T10:55:45Z</time>
      </trkpt>
      <trkpt lat="43.64488" lon="1.37868">
        <ele>146</ele>
        <time>2024-02-11T10:55:46Z</time>
      </trkpt>
      <trkpt lat="43.64488" lon="1.37868">
        <ele>146</ele>
        <time>2024-02-11T10:55:47Z</time>
      </trkpt>
      <trkpt lat="43.64491" lon="1.37867">
        <ele>146</ele>
        <time>2024-02-11T10:55:48Z</time>
      </trkpt>
      <trkpt lat="43.64491" lon="1.37867">
        <ele>146</ele>
        <time>2024-02-11T10:55:49Z</time>
      </trkpt>
      <trkpt lat="43.64494" lon="1.37868">
        <ele>146</ele>
        <time>2024-02-11T10:55:50Z</time>
      </trkpt>
      <trkpt lat="43.64494" lon="1.37868">
        <ele>146</ele>
        <time>2024-02-11T10:55:51Z</time>
      </trkpt>
      <trkpt lat="43.64496" lon="1.37869">
        <ele>146</ele>
        <time>2024-02-11T10:55:52Z</time>
      </trkpt>
      <trkpt lat="43.64496" lon="1.37869">
        <ele>146</ele>
        <time>2024-02-11T10:55:53Z</time>
      </trkpt>
      <trkpt lat="43.64499" lon="1.3787">
        <ele>146</ele>
        <time>2024-02-11T10:55:54Z</time>
      </trkpt>
      <trkpt lat="43.64499" lon="1.3787">
        <ele>146</ele>
        <time>2024-02-11T10:55:55Z</time>
      </trkpt>
      <trkpt lat="43.64501" lon="1.37871">
        <ele>146</ele>
        <time>2024-02-11T10:55:56Z</time>
      </trkpt>
      <trkpt lat="43.64501" lon="1.37871">
        <ele>146</ele>
        <time>2024-02-11T10:55:57Z</time>
      </trkpt>
      <trkpt lat="43.64504" lon="1.37873">
        <ele>145</ele>
        <time>2024-02-11T10:55:58Z</time>
      </trkpt>
      <trkpt lat="43.64504" lon="1.37873">
        <ele>145</ele>
        <time>2024-02-11T10:55:59Z</time>
      </trkpt>
      <trkpt lat="43.64506" lon="1.37874">
        <ele>145</ele>
        <time>2024-02-11T10:56:00Z</time>
      </trkpt>
      <trkpt lat="43.64506" lon="1.37874">
        <ele>145</ele>
        <time>2024-02-11T10:56:01Z</time>
      </trkpt>
      <trkpt lat="43.64508" lon="1.37876">
        <ele>146</ele>
        <time>2024-02-11T10:56:02Z</time>
      </trkpt>
      <trkpt lat="43.64508" lon="1.37876">
        <ele>146</ele>
        <time>2024-02-11T10:56:03Z</time>
      </trkpt>
      <trkpt lat="43.6451" lon="1.37878">
        <ele>146</ele>
        <time>2024-02-11T10:56:04Z</time>
      </trkpt>
      <trkpt lat="43.6451" lon="1.37878">
        <ele>146</ele>
        <time>2024-02-11T10:56:05Z</time>
      </trkpt>
      <trkpt lat="43.64512" lon="1.3788">
        <ele>147</ele>
        <time>2024-02-11T10:56:06Z</time>
      </trkpt>
      <trkpt lat="43.64512" lon="1.3788">
        <ele>147</ele>
        <time>2024-02-11T10:56:07Z</time>
      </trkpt>
      <trkpt lat="43.64515" lon="1.37882">
        <ele>147</ele>
        <time>2024-02-11T10:56:08Z</time>
      </trkpt>
      <trkpt lat="43.64515" lon="1.37882">
        <ele>147</ele>
        <time>2024-02-11T10:56:09Z</time>
      </trkpt>
      <trkpt lat="43.64517" lon="1.37883">
        <ele>147</ele>
        <time>2024-02-11T10:56:10Z</time>
      </trkpt>
      <trkpt lat="43.64517" lon="1.37883">
        <ele>147</ele>
        <time>2024-02-11T10:56:11Z</time>
      </trkpt>
      <trkpt lat="43.6452" lon="1.37885">
        <ele>146</ele>
        <time>2024-02-11T10:56:12Z</time>
      </trkpt>
      <trkpt lat="43.6452" lon="1.37885">
        <ele>146</ele>
        <time>2024-02-11T10:56:13Z</time>
      </trkpt>
      <trkpt lat="43.64523" lon="1.37886">
        <ele>146</ele>
        <time>2024-02-11T10:56:14Z</time>
      </trkpt>
      <trkpt lat="43.64523" lon="1.37886">
        <ele>145</ele>
        <time>2024-02-11T10:56:15Z</time>
      </trkpt>
      <trkpt lat="43.64525" lon="1.37888">
        <ele>145</ele>
        <time>2024-02-11T10:56:16Z</time>
      </trkpt>
      <trkpt lat="43.64525" lon="1.37888">
        <ele>145</ele>
        <time>2024-02-11T10:56:17Z</time>
      </trkpt>
      <trkpt lat="43.64527" lon="1.37889">
        <ele>146</ele>
        <time>2024-02-11T10:56:18Z</time>
      </trkpt>
      <trkpt lat="43.64527" lon="1.37889">
        <ele>146</ele>
        <time>2024-02-11T10:56:19Z</time>
      </trkpt>
      <trkpt lat="43.64529" lon="1.3789">
        <ele>146</ele>
        <time>2024-02-11T10:56:20Z</time>
      </trkpt>
      <trkpt lat="43.64529" lon="1.3789">
        <ele>146</ele>
        <time>2024-02-11T10:56:21Z</time>
      </trkpt>
      <trkpt lat="43.64531" lon="1.37892">
        <ele>146</ele>
        <time>2024-02-11T10:56:22Z</time>
      </trkpt>
      <trkpt lat="43.64531" lon="1.37892">
        <ele>147</ele>
        <time>2024-02-11T10:56:23Z</time>
      </trkpt>
      <trkpt lat="43.64534" lon="1.37893">
        <ele>147</ele>
        <time>2024-02-11T10:56:24Z</time>
      </trkpt>
      <trkpt lat="43.64534" lon="1.37893">
        <ele>146</ele>
        <time>2024-02-11T10:56:25Z</time>
      </trkpt>
      <trkpt lat="43.64536" lon="1.37894">
        <ele>145</ele>
        <time>2024-02-11T10:56:26Z</time>
      </trkpt>
      <trkpt lat="43.64536" lon="1.37894">
        <ele>145</ele>
        <time>2024-02-11T10:56:27Z</time>
      </trkpt>
      <trkpt lat="43.64538" lon="1.37896">
        <ele>145</ele>
        <time>2024-02-11T10:56:28Z</time>
      </trkpt>
      <trkpt lat="43.64538" lon="1.37896">
        <ele>145</ele>
        <time>2024-02-11T10:56:29Z</time>
      </trkpt>
      <trkpt lat="43.64541" lon="1.37897">
        <ele>145</ele>
        <time>2024-02-11T10:56:30Z</time>
      </trkpt>
      <trkpt lat="43.64541" lon="1.37897">
        <ele>145</ele>
        <time>2024-02-11T10:56:31Z</time>
      </trkpt>
      <trkpt lat="43.64543" lon="1.37899">
        <ele>145</ele>
        <time>2024-02-11T10:56:32Z</time>
      </trkpt>
      <trkpt lat="43.64543" lon="1.37899">
        <ele>145</ele>
        <time>2024-02-11T10:56:33Z</time>
      </trkpt>
      <trkpt lat="43.64545" lon="1.379">
        <ele>145</ele>
        <time>2024-02-11T10:56:34Z</time>
      </trkpt>
      <trkpt lat="43.64545" lon="1.379">
        <ele>145</ele>
        <time>2024-02-11T10:56:35Z</time>
      </trkpt>
      <trkpt lat="43.64547" lon="1.37902">
        <ele>145</ele>
        <time>2024-02-11T10:56:36Z</time>
      </trkpt>
      <trkpt lat="43.64547" lon="1.37902">
        <ele>145</ele>
        <time>2024-02-11T10:56:37Z</time>
      </trkpt>
      <trkpt lat="43.64549" lon="1.37903">
        <ele>145</ele>
        <time>2024-02-11T10:56:38Z</time>
      </trkpt>
      <trkpt lat="43.64549" lon="1.37903">
        <ele>145</ele>
        <time>2024-02-11T10:56:39Z</time>
      </trkpt>
      <trkpt lat="43.64552" lon="1.37904">
        <ele>145</ele>
        <time>2024-02-11T10:56:40Z</time>
      </trkpt>
      <trkpt lat="43.64552" lon="1.37904">
        <ele>145</ele>
        <time>2024-02-11T10:56:41Z</time>
      </trkpt>
      <trkpt lat="43.64554" lon="1.37905">
        <ele>145</ele>
        <time>2024-02-11T10:56:42Z</time>
      </trkpt>
      <trkpt lat="43.64554" lon="1.37905">
        <ele>145</ele>
        <time>2024-02-11T10:56:43Z</time>
      </trkpt>
      <trkpt lat="43.64556" lon="1.37907">
        <ele>145</ele>
        <time>2024-02-11T10:56:44Z</time>
      </trkpt>
      <trkpt lat="43.64556" lon="1.37907">
        <ele>145</ele>
        <time>2024-02-11T10:56:45Z</time>
      </trkpt>
      <trkpt lat="43.64558" lon="1.37909">
        <ele>145</ele>
        <time>2024-02-11T10:56:46Z</time>
      </trkpt>
      <trkpt lat="43.64558" lon="1.37909">
        <ele>144</ele>
        <time>2024-02-11T10:56:47Z</time>
      </trkpt>
      <trkpt lat="43.6456" lon="1.37912">
        <ele>144</ele>
        <time>2024-02-11T10:56:48Z</time>
      </trkpt>
      <trkpt lat="43.6456" lon="1.37912">
        <ele>144</ele>
        <time>2024-02-11T10:56:49Z</time>
      </trkpt>
      <trkpt lat="43.64562" lon="1.37915">
        <ele>144</ele>
        <time>2024-02-11T10:56:50Z</time>
      </trkpt>
      <trkpt lat="43.64562" lon="1.37915">
        <ele>144</ele>
        <time>2024-02-11T10:56:51Z</time>
      </trkpt>
      <trkpt lat="43.64564" lon="1.37918">
        <ele>144</ele>
        <time>2024-02-11T10:56:52Z</time>
      </trkpt>
      <trkpt lat="43.64564" lon="1.37918">
        <ele>144</ele>
        <time>2024-02-11T10:56:53Z</time>
      </trkpt>
      <trkpt lat="43.64566" lon="1.37921">
        <ele>144</ele>
        <time>2024-02-11T10:56:54Z</time>
      </trkpt>
      <trkpt lat="43.64566" lon="1.37921">
        <ele>144</ele>
        <time>2024-02-11T10:56:55Z</time>
      </trkpt>
      <trkpt lat="43.64567" lon="1.37924">
        <ele>144</ele>
        <time>2024-02-11T10:56:56Z</time>
      </trkpt>
      <trkpt lat="43.64567" lon="1.37924">
        <ele>144</ele>
        <time>2024-02-11T10:56:57Z</time>
      </trkpt>
      <trkpt lat="43.64569" lon="1.37927">
        <ele>145</ele>
        <time>2024-02-11T10:56:58Z</time>
      </trkpt>
      <trkpt lat="43.64569" lon="1.37927">
        <ele>145</ele>
        <time>2024-02-11T10:56:59Z</time>
      </trkpt>
      <trkpt lat="43.6457" lon="1.3793">
        <ele>145</ele>
        <time>2024-02-11T10:57:00Z</time>
      </trkpt>
      <trkpt lat="43.6457" lon="1.3793">
        <ele>145</ele>
        <time>2024-02-11T10:57:01Z</time>
      </trkpt>
      <trkpt lat="43.6457" lon="1.37934">
        <ele>145</ele>
        <time>2024-02-11T10:57:02Z</time>
      </trkpt>
      <trkpt lat="43.6457" lon="1.37934">
        <ele>145</ele>
        <time>2024-02-11T10:57:03Z</time>
      </trkpt>
      <trkpt lat="43.6457" lon="1.37938">
        <ele>145</ele>
        <time>2024-02-11T10:57:04Z</time>
      </trkpt>
      <trkpt lat="43.6457" lon="1.37938">
        <ele>145</ele>
        <time>2024-02-11T10:57:05Z</time>
      </trkpt>
      <trkpt lat="43.6457" lon="1.37941">
        <ele>145</ele>
        <time>2024-02-11T10:57:06Z</time>
      </trkpt>
      <trkpt lat="43.6457" lon="1.37941">
        <ele>145</ele>
        <time>2024-02-11T10:57:07Z</time>
      </trkpt>
      <trkpt lat="43.64569" lon="1.37945">
        <ele>145</ele>
        <time>2024-02-11T10:57:08Z</time>
      </trkpt>
      <trkpt lat="43.64569" lon="1.37945">
        <ele>145</ele>
        <time>2024-02-11T10:57:09Z</time>
      </trkpt>
      <trkpt lat="43.64568" lon="1.37948">
        <ele>145</ele>
        <time>2024-02-11T10:57:10Z</time>
      </trkpt>
      <trkpt lat="43.64568" lon="1.37948">
        <ele>145</ele>
        <time>2024-02-11T10:57:11Z</time>
      </trkpt>
      <trkpt lat="43.64567" lon="1.37951">
        <ele>145</ele>
        <time>2024-02-11T10:57:12Z</time>
      </trkpt>
      <trkpt lat="43.64567" lon="1.37951">
        <ele>145</ele>
        <time>2024-02-11T10:57:13Z</time>
      </trkpt>
      <trkpt lat="43.64564" lon="1.37952">
        <ele>145</ele>
        <time>2024-02-11T10:57:14Z</time>
      </trkpt>
      <trkpt lat="43.64564" lon="1.37952">
        <ele>145</ele>
        <time>2024-02-11T10:57:15Z</time>
      </trkpt>
      <trkpt lat="43.64564" lon="1.37952">
        <ele>145</ele>
        <time>2024-02-11T10:57:16Z</time>
      </trkpt>
      <trkpt lat="43.64561" lon="1.37955">
        <ele>145</ele>
        <time>2024-02-11T10:57:17Z</time>
      </trkpt>
      <trkpt lat="43.64561" lon="1.37955">
        <ele>145</ele>
        <time>2024-02-11T10:57:18Z</time>
      </trkpt>
      <trkpt lat="43.64559" lon="1.37956">
        <ele>145</ele>
        <time>2024-02-11T10:57:19Z</time>
      </trkpt>
      <trkpt lat="43.64559" lon="1.37956">
        <ele>145</ele>
        <time>2024-02-11T10:57:20Z</time>
      </trkpt>
      <trkpt lat="43.64556" lon="1.37959">
        <ele>146</ele>
        <time>2024-02-11T10:57:21Z</time>
      </trkpt>
      <trkpt lat="43.64556" lon="1.37959">
        <ele>146</ele>
        <time>2024-02-11T10:57:22Z</time>
      </trkpt>
      <trkpt lat="43.64555" lon="1.37962">
        <ele>146</ele>
        <time>2024-02-11T10:57:23Z</time>
      </trkpt>
      <trkpt lat="43.64555" lon="1.37962">
        <ele>146</ele>
        <time>2024-02-11T10:57:24Z</time>
      </trkpt>
      <trkpt lat="43.64553" lon="1.37964">
        <ele>146</ele>
        <time>2024-02-11T10:57:25Z</time>
      </trkpt>
      <trkpt lat="43.64553" lon="1.37964">
        <ele>146</ele>
        <time>2024-02-11T10:57:26Z</time>
      </trkpt>
      <trkpt lat="43.64551" lon="1.37967">
        <ele>146</ele>
        <time>2024-02-11T10:57:27Z</time>
      </trkpt>
      <trkpt lat="43.64551" lon="1.37967">
        <ele>145</ele>
        <time>2024-02-11T10:57:28Z</time>
      </trkpt>
      <trkpt lat="43.6455" lon="1.3797">
        <ele>145</ele>
        <time>2024-02-11T10:57:29Z</time>
      </trkpt>
      <trkpt lat="43.6455" lon="1.3797">
        <ele>145</ele>
        <time>2024-02-11T10:57:30Z</time>
      </trkpt>
      <trkpt lat="43.6455" lon="1.3797">
        <ele>145</ele>
        <time>2024-02-11T10:57:31Z</time>
      </trkpt>
      <trkpt lat="43.6455" lon="1.3797">
        <ele>145</ele>
        <time>2024-02-11T10:57:32Z</time>
      </trkpt>
      <trkpt lat="43.6455" lon="1.3797">
        <ele>145</ele>
        <time>2024-02-11T10:57:33Z</time>
      </trkpt>
      <trkpt lat="43.6455" lon="1.3797">
        <ele>145</ele>
        <time>2024-02-11T10:57:34Z</time>
      </trkpt>
      <trkpt lat="43.6455" lon="1.3797">
        <ele>145</ele>
        <time>2024-02-11T10:57:35Z</time>
      </trkpt>
      <trkpt lat="43.6455" lon="1.3797">
        <ele>145</ele>
        <time>2024-02-11T10:57:36Z</time>
      </trkpt>
      <trkpt lat="43.6455" lon="1.3797">
        <ele>145</ele>
        <time>2024-02-11T10:57:37Z</time>
      </trkpt>
      <trkpt lat="43.6455" lon="1.3797">
        <ele>145</ele>
        <time>2024-02-11T10:57:38Z</time>
      </trkpt>
      <trkpt lat="43.6455" lon="1.3797">
        <ele>145</ele>
        <time>2024-02-11T10:57:39Z</time>
      </trkpt>
      <trkpt lat="43.64552" lon="1.37967">
        <ele>145</ele>
        <time>2024-02-11T10:57:40Z</time>
      </trkpt>
      <trkpt lat="43.64552" lon="1.37967">
        <ele>146</ele>
        <time>2024-02-11T10:57:41Z</time>
      </trkpt>
      <trkpt lat="43.64553" lon="1.37963">
        <ele>146</ele>
        <time>2024-02-11T10:57:42Z</time>
      </trkpt>
      <trkpt lat="43.64553" lon="1.37963">
        <ele>146</ele>
        <time>2024-02-11T10:57:43Z</time>
      </trkpt>
      <trkpt lat="43.64554" lon="1.3796">
        <ele>146</ele>
        <time>2024-02-11T10:57:44Z</time>
      </trkpt>
      <trkpt lat="43.64554" lon="1.3796">
        <ele>145</ele>
        <time>2024-02-11T10:57:45Z</time>
      </trkpt>
      <trkpt lat="43.64555" lon="1.37957">
        <ele>145</ele>
        <time>2024-02-11T10:57:46Z</time>
      </trkpt>
      <trkpt lat="43.64555" lon="1.37957">
        <ele>145</ele>
        <time>2024-02-11T10:57:47Z</time>
      </trkpt>
      <trkpt lat="43.64556" lon="1.37953">
        <ele>145</ele>
        <time>2024-02-11T10:57:48Z</time>
      </trkpt>
      <trkpt lat="43.64556" lon="1.37953">
        <ele>145</ele>
        <time>2024-02-11T10:57:49Z</time>
      </trkpt>
      <trkpt lat="43.64557" lon="1.3795">
        <ele>145</ele>
        <time>2024-02-11T10:57:50Z</time>
      </trkpt>
      <trkpt lat="43.64557" lon="1.3795">
        <ele>145</ele>
        <time>2024-02-11T10:57:51Z</time>
      </trkpt>
      <trkpt lat="43.64557" lon="1.3795">
        <ele>145</ele>
        <time>2024-02-11T10:57:52Z</time>
      </trkpt>
      <trkpt lat="43.64557" lon="1.3795">
        <ele>145</ele>
        <time>2024-02-11T10:57:53Z</time>
      </trkpt>
      <trkpt lat="43.64557" lon="1.3795">
        <ele>144</ele>
        <time>2024-02-11T10:57:54Z</time>
      </trkpt>
      <trkpt lat="43.64557" lon="1.3795">
        <ele>144</ele>
        <time>2024-02-11T10:57:55Z</time>
      </trkpt>
      <trkpt lat="43.64557" lon="1.3795">
        <ele>144</ele>
        <time>2024-02-11T10:57:56Z</time>
      </trkpt>
      <trkpt lat="43.64557" lon="1.3795">
        <ele>144</ele>
        <time>2024-02-11T10:57:57Z</time>
      </trkpt>
      <trkpt lat="43.64557" lon="1.3795">
        <ele>145</ele>
        <time>2024-02-11T10:57:58Z</time>
      </trkpt>
      <trkpt lat="43.64557" lon="1.3795">
        <ele>145</ele>
        <time>2024-02-11T10:57:59Z</time>
      </trkpt>
      <trkpt lat="43.64557" lon="1.3795">
        <ele>145</ele>
        <time>2024-02-11T10:58:00Z</time>
      </trkpt>
      <trkpt lat="43.64559" lon="1.37951">
        <ele>145</ele>
        <time>2024-02-11T10:58:01Z</time>
      </trkpt>
      <trkpt lat="43.64559" lon="1.37951">
        <ele>145</ele>
        <time>2024-02-11T10:58:02Z</time>
      </trkpt>
      <trkpt lat="43.64559" lon="1.37951">
        <ele>144</ele>
        <time>2024-02-11T10:58:03Z</time>
      </trkpt>
      <trkpt lat="43.64559" lon="1.37951">
        <ele>144</ele>
        <time>2024-02-11T10:58:04Z</time>
      </trkpt>
      <trkpt lat="43.64559" lon="1.37951">
        <ele>145</ele>
        <time>2024-02-11T10:58:05Z</time>
      </trkpt>
      <trkpt lat="43.64559" lon="1.37951">
        <ele>146</ele>
        <time>2024-02-11T10:58:06Z</time>
      </trkpt>
      <trkpt lat="43.64559" lon="1.37951">
        <ele>146</ele>
        <time>2024-02-11T10:58:07Z</time>
      </trkpt>
      <trkpt lat="43.64558" lon="1.37949">
        <ele>146</ele>
        <time>2024-02-11T10:58:08Z</time>
      </trkpt>
      <trkpt lat="43.64558" lon="1.37949">
        <ele>146</ele>
        <time>2024-02-11T10:58:09Z</time>
      </trkpt>
      <trkpt lat="43.64557" lon="1.37953">
        <ele>146</ele>
        <time>2024-02-11T10:58:10Z</time>
      </trkpt>
      <trkpt lat="43.64555" lon="1.37957">
        <ele>146</ele>
        <time>2024-02-11T10:58:11Z</time>
      </trkpt>
      <trkpt lat="43.64554" lon="1.3796">
        <ele>146</ele>
        <time>2024-02-11T10:58:12Z</time>
      </trkpt>
      <trkpt lat="43.64552" lon="1.37966">
        <ele>146</ele>
        <time>2024-02-11T10:58:13Z</time>
      </trkpt>
      <trkpt lat="43.64551" lon="1.37972">
        <ele>145</ele>
        <time>2024-02-11T10:58:14Z</time>
      </trkpt>
      <trkpt lat="43.64548" lon="1.37975">
        <ele>145</ele>
        <time>2024-02-11T10:58:15Z</time>
      </trkpt>
      <trkpt lat="43.64546" lon="1.37974">
        <ele>145</ele>
        <time>2024-02-11T10:58:16Z</time>
      </trkpt>
      <trkpt lat="43.64546" lon="1.37974">
        <ele>146</ele>
        <time>2024-02-11T10:58:17Z</time>
      </trkpt>
      <trkpt lat="43.64547" lon="1.3797">
        <ele>146</ele>
        <time>2024-02-11T10:58:18Z</time>
      </trkpt>
      <trkpt lat="43.64547" lon="1.37967">
        <ele>146</ele>
        <time>2024-02-11T10:58:19Z</time>
      </trkpt>
      <trkpt lat="43.64548" lon="1.37964">
        <ele>146</ele>
        <time>2024-02-11T10:58:20Z</time>
      </trkpt>
      <trkpt lat="43.64548" lon="1.37964">
        <ele>146</ele>
        <time>2024-02-11T10:58:21Z</time>
      </trkpt>
      <trkpt lat="43.64549" lon="1.3796">
        <ele>146</ele>
        <time>2024-02-11T10:58:22Z</time>
      </trkpt>
      <trkpt lat="43.64549" lon="1.3796">
        <ele>146</ele>
        <time>2024-02-11T10:58:23Z</time>
      </trkpt>
      <trkpt lat="43.64551" lon="1.37957">
        <ele>146</ele>
        <time>2024-02-11T10:58:24Z</time>
      </trkpt>
      <trkpt lat="43.64551" lon="1.37957">
        <ele>146</ele>
        <time>2024-02-11T10:58:25Z</time>
      </trkpt>
      <trkpt lat="43.64553" lon="1.37953">
        <ele>147</ele>
        <time>2024-02-11T10:58:26Z</time>
      </trkpt>
      <trkpt lat="43.64553" lon="1.37953">
        <ele>147</ele>
        <time>2024-02-11T10:58:27Z</time>
      </trkpt>
      <trkpt lat="43.64554" lon="1.3795">
        <ele>147</ele>
        <time>2024-02-11T10:58:28Z</time>
      </trkpt>
      <trkpt lat="43.64554" lon="1.3795">
        <ele>147</ele>
        <time>2024-02-11T10:58:29Z</time>
      </trkpt>
      <trkpt lat="43.64556" lon="1.37947">
        <ele>147</ele>
        <time>2024-02-11T10:58:30Z</time>
      </trkpt>
      <trkpt lat="43.64556" lon="1.37947">
        <ele>147</ele>
        <time>2024-02-11T10:58:31Z</time>
      </trkpt>
      <trkpt lat="43.64556" lon="1.37945">
        <ele>147</ele>
        <time>2024-02-11T10:58:32Z</time>
      </trkpt>
      <trkpt lat="43.64556" lon="1.37945">
        <ele>147</ele>
        <time>2024-02-11T10:58:33Z</time>
      </trkpt>
      <trkpt lat="43.64556" lon="1.37945">
        <ele>147</ele>
        <time>2024-02-11T10:58:34Z</time>
      </trkpt>
      <trkpt lat="43.64556" lon="1.37945">
        <ele>147</ele>
        <time>2024-02-11T10:58:35Z</time>
      </trkpt>
      <trkpt lat="43.64556" lon="1.37945">
        <ele>146</ele>
        <time>2024-02-11T10:58:36Z</time>
      </trkpt>
      <trkpt lat="43.64556" lon="1.37945">
        <ele>146</ele>
        <time>2024-02-11T10:58:37Z</time>
      </trkpt>
      <trkpt lat="43.64555" lon="1.37948">
        <ele>146</ele>
        <time>2024-02-11T10:58:38Z</time>
      </trkpt>
      <trkpt lat="43.64554" lon="1.37954">
        <ele>146</ele>
        <time>2024-02-11T10:58:39Z</time>
      </trkpt>
      <trkpt lat="43.64553" lon="1.3796">
        <ele>146</ele>
        <time>2024-02-11T10:58:40Z</time>
      </trkpt>
      <trkpt lat="43.64551" lon="1.37967">
        <ele>145</ele>
        <time>2024-02-11T10:58:41Z</time>
      </trkpt>
      <trkpt lat="43.6455" lon="1.37971">
        <ele>145</ele>
        <time>2024-02-11T10:58:42Z</time>
      </trkpt>
      <trkpt lat="43.64547" lon="1.37974">
        <ele>145</ele>
        <time>2024-02-11T10:58:43Z</time>
      </trkpt>
      <trkpt lat="43.64547" lon="1.37974">
        <ele>145</ele>
        <time>2024-02-11T10:58:44Z</time>
      </trkpt>
      <trkpt lat="43.64546" lon="1.37972">
        <ele>145</ele>
        <time>2024-02-11T10:58:45Z</time>
      </trkpt>
      <trkpt lat="43.64546" lon="1.37972">
        <ele>145</ele>
        <time>2024-02-11T10:58:46Z</time>
      </trkpt>
      <trkpt lat="43.64547" lon="1.37968">
        <ele>145</ele>
        <time>2024-02-11T10:58:47Z</time>
      </trkpt>
      <trkpt lat="43.64548" lon="1.37965">
        <ele>145</ele>
        <time>2024-02-11T10:58:48Z</time>
      </trkpt>
      <trkpt lat="43.64549" lon="1.37963">
        <ele>145</ele>
        <time>2024-02-11T10:58:49Z</time>
      </trkpt>
      <trkpt lat="43.64549" lon="1.37963">
        <ele>145</ele>
        <time>2024-02-11T10:58:50Z</time>
      </trkpt>
      <trkpt lat="43.64551" lon="1.37959">
        <ele>145</ele>
        <time>2024-02-11T10:58:51Z</time>
      </trkpt>
      <trkpt lat="43.64551" lon="1.37959">
        <ele>145</ele>
        <time>2024-02-11T10:58:52Z</time>
      </trkpt>
      <trkpt lat="43.64552" lon="1.37956">
        <ele>145</ele>
        <time>2024-02-11T10:58:53Z</time>
      </trkpt>
      <trkpt lat="43.64552" lon="1.37956">
        <ele>145</ele>
        <time>2024-02-11T10:58:54Z</time>
      </trkpt>
      <trkpt lat="43.64554" lon="1.37952">
        <ele>145</ele>
        <time>2024-02-11T10:58:55Z</time>
      </trkpt>
      <trkpt lat="43.64554" lon="1.37952">
        <ele>145</ele>
        <time>2024-02-11T10:58:56Z</time>
      </trkpt>
      <trkpt lat="43.64554" lon="1.37949">
        <ele>145</ele>
        <time>2024-02-11T10:58:57Z</time>
      </trkpt>
      <trkpt lat="43.64554" lon="1.37949">
        <ele>145</ele>
        <time>2024-02-11T10:58:58Z</time>
      </trkpt>
      <trkpt lat="43.64555" lon="1.37946">
        <ele>145</ele>
        <time>2024-02-11T10:58:59Z</time>
      </trkpt>
      <trkpt lat="43.64555" lon="1.37946">
        <ele>145</ele>
        <time>2024-02-11T10:59:00Z</time>
      </trkpt>
      <trkpt lat="43.64555" lon="1.37946">
        <ele>145</ele>
        <time>2024-02-11T10:59:01Z</time>
      </trkpt>
      <trkpt lat="43.64554" lon="1.37944">
        <ele>146</ele>
        <time>2024-02-11T10:59:02Z</time>
      </trkpt>
      <trkpt lat="43.64554" lon="1.37944">
        <ele>146</ele>
        <time>2024-02-11T10:59:03Z</time>
      </trkpt>
      <trkpt lat="43.64554" lon="1.37947">
        <ele>145</ele>
        <time>2024-02-11T10:59:04Z</time>
      </trkpt>
      <trkpt lat="43.64554" lon="1.3795">
        <ele>145</ele>
        <time>2024-02-11T10:59:05Z</time>
      </trkpt>
      <trkpt lat="43.64553" lon="1.37954">
        <ele>144</ele>
        <time>2024-02-11T10:59:06Z</time>
      </trkpt>
      <trkpt lat="43.64553" lon="1.37957">
        <ele>144</ele>
        <time>2024-02-11T10:59:07Z</time>
      </trkpt>
      <trkpt lat="43.64552" lon="1.37963">
        <ele>144</ele>
        <time>2024-02-11T10:59:08Z</time>
      </trkpt>
      <trkpt lat="43.64551" lon="1.37968">
        <ele>145</ele>
        <time>2024-02-11T10:59:09Z</time>
      </trkpt>
      <trkpt lat="43.64551" lon="1.37971">
        <ele>145</ele>
        <time>2024-02-11T10:59:10Z</time>
      </trkpt>
      <trkpt lat="43.64551" lon="1.37971">
        <ele>145</ele>
        <time>2024-02-11T10:59:11Z</time>
      </trkpt>
      <trkpt lat="43.64551" lon="1.37971">
        <ele>145</ele>
        <time>2024-02-11T10:59:12Z</time>
      </trkpt>
      <trkpt lat="43.64552" lon="1.37969">
        <ele>145</ele>
        <time>2024-02-11T10:59:13Z</time>
      </trkpt>
      <trkpt lat="43.64552" lon="1.37969">
        <ele>145</ele>
        <time>2024-02-11T10:59:14Z</time>
      </trkpt>
      <trkpt lat="43.64552" lon="1.37965">
        <ele>146</ele>
        <time>2024-02-11T10:59:15Z</time>
      </trkpt>
      <trkpt lat="43.64552" lon="1.37965">
        <ele>146</ele>
        <time>2024-02-11T10:59:16Z</time>
      </trkpt>
      <trkpt lat="43.64551" lon="1.37962">
        <ele>146</ele>
        <time>2024-02-11T10:59:17Z</time>
      </trkpt>
      <trkpt lat="43.64551" lon="1.37962">
        <ele>146</ele>
        <time>2024-02-11T10:59:18Z</time>
      </trkpt>
      <trkpt lat="43.6455" lon="1.37959">
        <ele>146</ele>
        <time>2024-02-11T10:59:19Z</time>
      </trkpt>
      <trkpt lat="43.6455" lon="1.37959">
        <ele>146</ele>
        <time>2024-02-11T10:59:20Z</time>
      </trkpt>
      <trkpt lat="43.6455" lon="1.37959">
        <ele>146</ele>
        <time>2024-02-11T10:59:21Z</time>
      </trkpt>
      <trkpt lat="43.64551" lon="1.37956">
        <ele>146</ele>
        <time>2024-02-11T10:59:22Z</time>
      </trkpt>
      <trkpt lat="43.64551" lon="1.37956">
        <ele>146</ele>
        <time>2024-02-11T10:59:23Z</time>
      </trkpt>
      <trkpt lat="43.64552" lon="1.37953">
        <ele>145</ele>
        <time>2024-02-11T10:59:24Z</time>
      </trkpt>
      <trkpt lat="43.64552" lon="1.37953">
        <ele>146</ele>
        <time>2024-02-11T10:59:25Z</time>
      </trkpt>
      <trkpt lat="43.64553" lon="1.37951">
        <ele>146</ele>
        <time>2024-02-11T10:59:26Z</time>
      </trkpt>
      <trkpt lat="43.64553" lon="1.37951">
        <ele>146</ele>
        <time>2024-02-11T10:59:27Z</time>
      </trkpt>
      <trkpt lat="43.64554" lon="1.37948">
        <ele>146</ele>
        <time>2024-02-11T10:59:28Z</time>
      </trkpt>
      <trkpt lat="43.64554" lon="1.37948">
        <ele>146</ele>
        <time>2024-02-11T10:59:29Z</time>
      </trkpt>
      <trkpt lat="43.64554" lon="1.37948">
        <ele>146</ele>
        <time>2024-02-11T10:59:30Z</time>
      </trkpt>
      <trkpt lat="43.64554" lon="1.37948">
        <ele>146</ele>
        <time>2024-02-11T10:59:31Z</time>
      </trkpt>
      <trkpt lat="43.64554" lon="1.37948">
        <ele>146</ele>
        <time>2024-02-11T10:59:32Z</time>
      </trkpt>
      <trkpt lat="43.64552" lon="1.37948">
        <ele>146</ele>
        <time>2024-02-11T10:59:33Z</time>
      </trkpt>
      <trkpt lat="43.64552" lon="1.37948">
        <ele>146</ele>
        <time>2024-02-11T10:59:34Z</time>
      </trkpt>
      <trkpt lat="43.64552" lon="1.37948">
        <ele>146</ele>
        <time>2024-02-11T10:59:35Z</time>
      </trkpt>
      <trkpt lat="43.64551" lon="1.37951">
        <ele>146</ele>
        <time>2024-02-11T10:59:36Z</time>
      </trkpt>
      <trkpt lat="43.64551" lon="1.37951">
        <ele>146</ele>
        <time>2024-02-11T10:59:37Z</time>
      </trkpt>
      <trkpt lat="43.64551" lon="1.37954">
        <ele>145</ele>
        <time>2024-02-11T10:59:38Z</time>
      </trkpt>
      <trkpt lat="43.64551" lon="1.37954">
        <ele>145</ele>
        <time>2024-02-11T10:59:39Z</time>
      </trkpt>
      <trkpt lat="43.6455" lon="1.37957">
        <ele>145</ele>
        <time>2024-02-11T10:59:40Z</time>
      </trkpt>
      <trkpt lat="43.6455" lon="1.37957">
        <ele>145</ele>
        <time>2024-02-11T10:59:41Z</time>
      </trkpt>
      <trkpt lat="43.6455" lon="1.37957">
        <ele>145</ele>
        <time>2024-02-11T10:59:42Z</time>
      </trkpt>
      <trkpt lat="43.6455" lon="1.3796">
        <ele>145</ele>
        <time>2024-02-11T10:59:43Z</time>
      </trkpt>
      <trkpt lat="43.6455" lon="1.3796">
        <ele>145</ele>
        <time>2024-02-11T10:59:44Z</time>
      </trkpt>
      <trkpt lat="43.64549" lon="1.37963">
        <ele>145</ele>
        <time>2024-02-11T10:59:45Z</time>
      </trkpt>
      <trkpt lat="43.64549" lon="1.37963">
        <ele>145</ele>
        <time>2024-02-11T10:59:46Z</time>
      </trkpt>
      <trkpt lat="43.64549" lon="1.37965">
        <ele>145</ele>
        <time>2024-02-11T10:59:47Z</time>
      </trkpt>
      <trkpt lat="43.64549" lon="1.37965">
        <ele>146</ele>
        <time>2024-02-11T10:59:48Z</time>
      </trkpt>
      <trkpt lat="43.64549" lon="1.37965">
        <ele>146</ele>
        <time>2024-02-11T10:59:49Z</time>
      </trkpt>
      <trkpt lat="43.64549" lon="1.37965">
        <ele>146</ele>
        <time>2024-02-11T10:59:50Z</time>
      </trkpt>
      <trkpt lat="43.6455" lon="1.37963">
        <ele>146</ele>
        <time>2024-02-11T10:59:51Z</time>
      </trkpt>
      <trkpt lat="43.6455" lon="1.37963">
        <ele>146</ele>
        <time>2024-02-11T10:59:52Z</time>
      </trkpt>
      <trkpt lat="43.64551" lon="1.37961">
        <ele>146</ele>
        <time>2024-02-11T10:59:53Z</time>
      </trkpt>
      <trkpt lat="43.64551" lon="1.37961">
        <ele>146</ele>
        <time>2024-02-11T10:59:54Z</time>
      </trkpt>
      <trkpt lat="43.64552" lon="1.37958">
        <ele>146</ele>
        <time>2024-02-11T10:59:55Z</time>
      </trkpt>
      <trkpt lat="43.64552" lon="1.37958">
        <ele>146</ele>
        <time>2024-02-11T10:59:56Z</time>
      </trkpt>
      <trkpt lat="43.64553" lon="1.37955">
        <ele>146</ele>
        <time>2024-02-11T10:59:57Z</time>
      </trkpt>
      <trkpt lat="43.64553" lon="1.37955">
        <ele>146</ele>
        <time>2024-02-11T10:59:58Z</time>
      </trkpt>
      <trkpt lat="43.64553" lon="1.37955">
        <ele>145</ele>
        <time>2024-02-11T10:59:59Z</time>
      </trkpt>
      <trkpt lat="43.64554" lon="1.37952">
        <ele>145</ele>
        <time>2024-02-11T11:00:00Z</time>
      </trkpt>
      <trkpt lat="43.64554" lon="1.37952">
        <ele>146</ele>
        <time>2024-02-11T11:00:01Z</time>
      </trkpt>
      <trkpt lat="43.64556" lon="1.3795">
        <ele>146</ele>
        <time>2024-02-11T11:00:02Z</time>
      </trkpt>
      <trkpt lat="43.64556" lon="1.3795">
        <ele>145</ele>
        <time>2024-02-11T11:00:03Z</time>
      </trkpt>
      <trkpt lat="43.64556" lon="1.37948">
        <ele>145</ele>
        <time>2024-02-11T11:00:04Z</time>
      </trkpt>
      <trkpt lat="43.64556" lon="1.37948">
        <ele>145</ele>
        <time>2024-02-11T11:00:05Z</time>
      </trkpt>
      <trkpt lat="43.64556" lon="1.37948">
        <ele>145</ele>
        <time>2024-02-11T11:00:06Z</time>
      </trkpt>
      <trkpt lat="43.64556" lon="1.37948">
        <ele>145</ele>
        <time>2024-02-11T11:00:07Z</time>
      </trkpt>
      <trkpt lat="43.64556" lon="1.37948">
        <ele>145</ele>
        <time>2024-02-11T11:00:08Z</time>
      </trkpt>
      <trkpt lat="43.64556" lon="1.37948">
        <ele>145</ele>
        <time>2024-02-11T11:00:09Z</time>
      </trkpt>
      <trkpt lat="43.64556" lon="1.37948">
        <ele>145</ele>
        <time>2024-02-11T11:00:10Z</time>
      </trkpt>
      <trkpt lat="43.64556" lon="1.37948">
        <ele>145</ele>
        <time>2024-02-11T11:00:11Z</time>
      </trkpt>
      <trkpt lat="43.64556" lon="1.37948">
        <ele>145</ele>
        <time>2024-02-11T11:00:12Z</time>
      </trkpt>
      <trkpt lat="43.64556" lon="1.37948">
        <ele>145</ele>
        <time>2024-02-11T11:00:13Z</time>
      </trkpt>
      <trkpt lat="43.64556" lon="1.37948">
        <ele>146</ele>
        <time>2024-02-11T11:00:14Z</time>
      </trkpt>
      <trkpt lat="43.64556" lon="1.37948">
        <ele>146</ele>
        <time>2024-02-11T11:00:15Z</time>
      </trkpt>
      <trkpt lat="43.64556" lon="1.37948">
        <ele>146</ele>
        <time>2024-02-11T11:00:16Z</time>
      </trkpt>
      <trkpt lat="43.64554" lon="1.37947">
        <ele>146</ele>
        <time>2024-02-11T11:00:17Z</time>
      </trkpt>
      <trkpt lat="43.64554" lon="1.37947">
        <ele>146</ele>
        <time>2024-02-11T11:00:18Z</time>
      </trkpt>
      <trkpt lat="43.64554" lon="1.37947">
        <ele>147</ele>
        <time>2024-02-11T11:00:19Z</time>
      </trkpt>
      <trkpt lat="43.64554" lon="1.37947">
        <ele>147</ele>
        <time>2024-02-11T11:00:20Z</time>
      </trkpt>
      <trkpt lat="43.64554" lon="1.37947">
        <ele>147</ele>
        <time>2024-02-11T11:00:21Z</time>
      </trkpt>
      <trkpt lat="43.64554" lon="1.37947">
        <ele>147</ele>
        <time>2024-02-11T11:00:22Z</time>
      </trkpt>
      <trkpt lat="43.64554" lon="1.37947">
        <ele>147</ele>
        <time>2024-02-11T11:00:23Z</time>
      </trkpt>
      <trkpt lat="43.64554" lon="1.37947">
        <ele>146</ele>
        <time>2024-02-11T11:00:24Z</time>
      </trkpt>
      <trkpt lat="43.64557" lon="1.37947">
        <ele>146</ele>
        <time>2024-02-11T11:00:25Z</time>
      </trkpt>
      <trkpt lat="43.64557" lon="1.37947">
        <ele>145</ele>
        <time>2024-02-11T11:00:26Z</time>
      </trkpt>
      <trkpt lat="43.64557" lon="1.37947">
        <ele>145</ele>
        <time>2024-02-11T11:00:27Z</time>
      </trkpt>
      <trkpt lat="43.64558" lon="1.37948">
        <ele>144</ele>
        <time>2024-02-11T11:00:28Z</time>
      </trkpt>
      <trkpt lat="43.64558" lon="1.37948">
        <ele>145</ele>
        <time>2024-02-11T11:00:29Z</time>
      </trkpt>
      <trkpt lat="43.64558" lon="1.37948">
        <ele>145</ele>
        <time>2024-02-11T11:00:30Z</time>
      </trkpt>
      <trkpt lat="43.64558" lon="1.37948">
        <ele>145</ele>
        <time>2024-02-11T11:00:31Z</time>
      </trkpt>
      <trkpt lat="43.64558" lon="1.37948">
        <ele>145</ele>
        <time>2024-02-11T11:00:32Z</time>
      </trkpt>
      <trkpt lat="43.64558" lon="1.37948">
        <ele>145</ele>
        <time>2024-02-11T11:00:33Z</time>
      </trkpt>
      <trkpt lat="43.64558" lon="1.37951">
        <ele>145</ele>
        <time>2024-02-11T11:00:34Z</time>
      </trkpt>
      <trkpt lat="43.64558" lon="1.37956">
        <ele>145</ele>
        <time>2024-02-11T11:00:35Z</time>
      </trkpt>
      <trkpt lat="43.64556" lon="1.37962">
        <ele>144</ele>
        <time>2024-02-11T11:00:36Z</time>
      </trkpt>
      <trkpt lat="43.64556" lon="1.37965">
        <ele>144</ele>
        <time>2024-02-11T11:00:37Z</time>
      </trkpt>
      <trkpt lat="43.64556" lon="1.37965">
        <ele>144</ele>
        <time>2024-02-11T11:00:38Z</time>
      </trkpt>
      <trkpt lat="43.64557" lon="1.37955">
        <ele>145</ele>
        <time>2024-02-11T11:00:39Z</time>
      </trkpt>
      <trkpt lat="43.64558" lon="1.37952">
        <ele>146</ele>
        <time>2024-02-11T11:00:40Z</time>
      </trkpt>
      <trkpt lat="43.64558" lon="1.37946">
        <ele>146</ele>
        <time>2024-02-11T11:00:41Z</time>
      </trkpt>
      <trkpt lat="43.64558" lon="1.37946">
        <ele>145</ele>
        <time>2024-02-11T11:00:42Z</time>
      </trkpt>
      <trkpt lat="43.64558" lon="1.37951">
        <ele>144</ele>
        <time>2024-02-11T11:00:43Z</time>
      </trkpt>
      <trkpt lat="43.64557" lon="1.37957">
        <ele>144</ele>
        <time>2024-02-11T11:00:44Z</time>
      </trkpt>
      <trkpt lat="43.64555" lon="1.37964">
        <ele>145</ele>
        <time>2024-02-11T11:00:45Z</time>
      </trkpt>
      <trkpt lat="43.64553" lon="1.37969">
        <ele>146</ele>
        <time>2024-02-11T11:00:46Z</time>
      </trkpt>
      <trkpt lat="43.64553" lon="1.37973">
        <ele>146</ele>
        <time>2024-02-11T11:00:47Z</time>
      </trkpt>
      <trkpt lat="43.64553" lon="1.37973">
        <ele>147</ele>
        <time>2024-02-11T11:00:48Z</time>
      </trkpt>
      <trkpt lat="43.64553" lon="1.37973">
        <ele>147</ele>
        <time>2024-02-11T11:00:49Z</time>
      </trkpt>
      <trkpt lat="43.64553" lon="1.37973">
        <ele>147</ele>
        <time>2024-02-11T11:00:50Z</time>
      </trkpt>
      <trkpt lat="43.64553" lon="1.37973">
        <ele>146</ele>
        <time>2024-02-11T11:00:51Z</time>
      </trkpt>
      <trkpt lat="43.64552" lon="1.37968">
        <ele>147</ele>
        <time>2024-02-11T11:00:52Z</time>
      </trkpt>
      <trkpt lat="43.64552" lon="1.37968">
        <ele>147</ele>
        <time>2024-02-11T11:00:53Z</time>
      </trkpt>
      <trkpt lat="43.64552" lon="1.37966">
        <ele>147</ele>
        <time>2024-02-11T11:00:54Z</time>
      </trkpt>
      <trkpt lat="43.64552" lon="1.37966">
        <ele>147</ele>
        <time>2024-02-11T11:00:55Z</time>
      </trkpt>
      <trkpt lat="43.64552" lon="1.37962">
        <ele>147</ele>
        <time>2024-02-11T11:00:56Z</time>
      </trkpt>
      <trkpt lat="43.64552" lon="1.37962">
        <ele>147</ele>
        <time>2024-02-11T11:00:57Z</time>
      </trkpt>
      <trkpt lat="43.64553" lon="1.37959">
        <ele>147</ele>
        <time>2024-02-11T11:00:58Z</time>
      </trkpt>
      <trkpt lat="43.64553" lon="1.37959">
        <ele>147</ele>
        <time>2024-02-11T11:00:59Z</time>
      </trkpt>
      <trkpt lat="43.64553" lon="1.37955">
        <ele>146</ele>
        <time>2024-02-11T11:01:00Z</time>
      </trkpt>
      <trkpt lat="43.64553" lon="1.37955">
        <ele>146</ele>
        <time>2024-02-11T11:01:01Z</time>
      </trkpt>
      <trkpt lat="43.64554" lon="1.37951">
        <ele>146</ele>
        <time>2024-02-11T11:01:02Z</time>
      </trkpt>
      <trkpt lat="43.64554" lon="1.37951">
        <ele>147</ele>
        <time>2024-02-11T11:01:03Z</time>
      </trkpt>
      <trkpt lat="43.64555" lon="1.37948">
        <ele>147</ele>
        <time>2024-02-11T11:01:04Z</time>
      </trkpt>
      <trkpt lat="43.64555" lon="1.37948">
        <ele>147</ele>
        <time>2024-02-11T11:01:05Z</time>
      </trkpt>
      <trkpt lat="43.64556" lon="1.37945">
        <ele>147</ele>
        <time>2024-02-11T11:01:06Z</time>
      </trkpt>
      <trkpt lat="43.64556" lon="1.37945">
        <ele>146</ele>
        <time>2024-02-11T11:01:07Z</time>
      </trkpt>
      <trkpt lat="43.64556" lon="1.37948">
        <ele>145</ele>
        <time>2024-02-11T11:01:08Z</time>
      </trkpt>
      <trkpt lat="43.64556" lon="1.37951">
        <ele>145</ele>
        <time>2024-02-11T11:01:09Z</time>
      </trkpt>
      <trkpt lat="43.64555" lon="1.37954">
        <ele>145</ele>
        <time>2024-02-11T11:01:10Z</time>
      </trkpt>
      <trkpt lat="43.64555" lon="1.37957">
        <ele>144</ele>
        <time>2024-02-11T11:01:11Z</time>
      </trkpt>
      <trkpt lat="43.64554" lon="1.37964">
        <ele>144</ele>
        <time>2024-02-11T11:01:12Z</time>
      </trkpt>
      <trkpt lat="43.64552" lon="1.37967">
        <ele>144</ele>
        <time>2024-02-11T11:01:13Z</time>
      </trkpt>
      <trkpt lat="43.64552" lon="1.37963">
        <ele>144</ele>
        <time>2024-02-11T11:01:14Z</time>
      </trkpt>
      <trkpt lat="43.64554" lon="1.37956">
        <ele>146</ele>
        <time>2024-02-11T11:01:15Z</time>
      </trkpt>
      <trkpt lat="43.64556" lon="1.37949">
        <ele>146</ele>
        <time>2024-02-11T11:01:16Z</time>
      </trkpt>
      <trkpt lat="43.64557" lon="1.37946">
        <ele>146</ele>
        <time>2024-02-11T11:01:17Z</time>
      </trkpt>
      <trkpt lat="43.64557" lon="1.37946">
        <ele>146</ele>
        <time>2024-02-11T11:01:18Z</time>
      </trkpt>
      <trkpt lat="43.64556" lon="1.37956">
        <ele>147</ele>
        <time>2024-02-11T11:01:19Z</time>
      </trkpt>
      <trkpt lat="43.64555" lon="1.3796">
        <ele>147</ele>
        <time>2024-02-11T11:01:20Z</time>
      </trkpt>
      <trkpt lat="43.64554" lon="1.37966">
        <ele>146</ele>
        <time>2024-02-11T11:01:21Z</time>
      </trkpt>
      <trkpt lat="43.64553" lon="1.37972">
        <ele>146</ele>
        <time>2024-02-11T11:01:22Z</time>
      </trkpt>
      <trkpt lat="43.64552" lon="1.37976">
        <ele>146</ele>
        <time>2024-02-11T11:01:23Z</time>
      </trkpt>
      <trkpt lat="43.64552" lon="1.37976">
        <ele>146</ele>
        <time>2024-02-11T11:01:24Z</time>
      </trkpt>
      <trkpt lat="43.64552" lon="1.37976">
        <ele>145</ele>
        <time>2024-02-11T11:01:25Z</time>
      </trkpt>
      <trkpt lat="43.64552" lon="1.37976">
        <ele>144</ele>
        <time>2024-02-11T11:01:26Z</time>
      </trkpt>
      <trkpt lat="43.6455" lon="1.37973">
        <ele>145</ele>
        <time>2024-02-11T11:01:27Z</time>
      </trkpt>
      <trkpt lat="43.6455" lon="1.37973">
        <ele>146</ele>
        <time>2024-02-11T11:01:28Z</time>
      </trkpt>
      <trkpt lat="43.6455" lon="1.37973">
        <ele>146</ele>
        <time>2024-02-11T11:01:29Z</time>
      </trkpt>
      <trkpt lat="43.6455" lon="1.37973">
        <ele>146</ele>
        <time>2024-02-11T11:01:30Z</time>
      </trkpt>
      <trkpt lat="43.64549" lon="1.37969">
        <ele>146</ele>
        <time>2024-02-11T11:01:31Z</time>
      </trkpt>
      <trkpt lat="43.64549" lon="1.37969">
        <ele>146</ele>
        <time>2024-02-11T11:01:32Z</time>
      </trkpt>
      <trkpt lat="43.6455" lon="1.37965">
        <ele>146</ele>
        <time>2024-02-11T11:01:33Z</time>
      </trkpt>
      <trkpt lat="43.6455" lon="1.37965">
        <ele>146</ele>
        <time>2024-02-11T11:01:34Z</time>
      </trkpt>
      <trkpt lat="43.64551" lon="1.3796">
        <ele>146</ele>
        <time>2024-02-11T11:01:35Z</time>
      </trkpt>
      <trkpt lat="43.64551" lon="1.3796">
        <ele>146</ele>
        <time>2024-02-11T11:01:36Z</time>
      </trkpt>
      <trkpt lat="43.64552" lon="1.37957">
        <ele>146</ele>
        <time>2024-02-11T11:01:37Z</time>
      </trkpt>
      <trkpt lat="43.64552" lon="1.37957">
        <ele>146</ele>
        <time>2024-02-11T11:01:38Z</time>
      </trkpt>
      <trkpt lat="43.64553" lon="1.37953">
        <ele>146</ele>
        <time>2024-02-11T11:01:39Z</time>
      </trkpt>
      <trkpt lat="43.64553" lon="1.37953">
        <ele>146</ele>
        <time>2024-02-11T11:01:40Z</time>
      </trkpt>
      <trkpt lat="43.64554" lon="1.3795">
        <ele>146</ele>
        <time>2024-02-11T11:01:41Z</time>
      </trkpt>
      <trkpt lat="43.64554" lon="1.3795">
        <ele>146</ele>
        <time>2024-02-11T11:01:42Z</time>
      </trkpt>
      <trkpt lat="43.64555" lon="1.37948">
        <ele>146</ele>
        <time>2024-02-11T11:01:43Z</time>
      </trkpt>
      <trkpt lat="43.64555" lon="1.37948">
        <ele>145</ele>
        <time>2024-02-11T11:01:44Z</time>
      </trkpt>
      <trkpt lat="43.64555" lon="1.37948">
        <ele>145</ele>
        <time>2024-02-11T11:01:45Z</time>
      </trkpt>
      <trkpt lat="43.64555" lon="1.37948">
        <ele>145</ele>
        <time>2024-02-11T11:01:46Z</time>
      </trkpt>
      <trkpt lat="43.64555" lon="1.37948">
        <ele>145</ele>
        <time>2024-02-11T11:01:47Z</time>
      </trkpt>
      <trkpt lat="43.64555" lon="1.37948">
        <ele>145</ele>
        <time>2024-02-11T11:01:48Z</time>
      </trkpt>
      <trkpt lat="43.64555" lon="1.37948">
        <ele>145</ele>
        <time>2024-02-11T11:01:49Z</time>
      </trkpt>
      <trkpt lat="43.64555" lon="1.37953">
        <ele>145</ele>
        <time>2024-02-11T11:01:50Z</time>
      </trkpt>
      <trkpt lat="43.64554" lon="1.37959">
        <ele>145</ele>
        <time>2024-02-11T11:01:51Z</time>
      </trkpt>
      <trkpt lat="43.64552" lon="1.37965">
        <ele>145</ele>
        <time>2024-02-11T11:01:52Z</time>
      </trkpt>
      <trkpt lat="43.64552" lon="1.37965">
        <ele>145</ele>
        <time>2024-02-11T11:01:53Z</time>
      </trkpt>
      <trkpt lat="43.64554" lon="1.37955">
        <ele>146</ele>
        <time>2024-02-11T11:01:54Z</time>
      </trkpt>
      <trkpt lat="43.64555" lon="1.37952">
        <ele>146</ele>
        <time>2024-02-11T11:01:55Z</time>
      </trkpt>
      <trkpt lat="43.64557" lon="1.37947">
        <ele>146</ele>
        <time>2024-02-11T11:01:56Z</time>
      </trkpt>
      <trkpt lat="43.64557" lon="1.37947">
        <ele>146</ele>
        <time>2024-02-11T11:01:57Z</time>
      </trkpt>
      <trkpt lat="43.64555" lon="1.37951">
        <ele>146</ele>
        <time>2024-02-11T11:01:58Z</time>
      </trkpt>
      <trkpt lat="43.64554" lon="1.37956">
        <ele>146</ele>
        <time>2024-02-11T11:01:59Z</time>
      </trkpt>
      <trkpt lat="43.64553" lon="1.37963">
        <ele>144</ele>
        <time>2024-02-11T11:02:00Z</time>
      </trkpt>
      <trkpt lat="43.64551" lon="1.3797">
        <ele>144</ele>
        <time>2024-02-11T11:02:01Z</time>
      </trkpt>
      <trkpt lat="43.64551" lon="1.37974">
        <ele>144</ele>
        <time>2024-02-11T11:02:02Z</time>
      </trkpt>
      <trkpt lat="43.64551" lon="1.37974">
        <ele>144</ele>
        <time>2024-02-11T11:02:03Z</time>
      </trkpt>
      <trkpt lat="43.64551" lon="1.37974">
        <ele>144</ele>
        <time>2024-02-11T11:02:04Z</time>
      </trkpt>
      <trkpt lat="43.64551" lon="1.37974">
        <ele>144</ele>
        <time>2024-02-11T11:02:05Z</time>
      </trkpt>
      <trkpt lat="43.64551" lon="1.37974">
        <ele>143</ele>
        <time>2024-02-11T11:02:06Z</time>
      </trkpt>
      <trkpt lat="43.64551" lon="1.37974">
        <ele>143</ele>
        <time>2024-02-11T11:02:07Z</time>
      </trkpt>
      <trkpt lat="43.64553" lon="1.37973">
        <ele>144</ele>
        <time>2024-02-11T11:02:08Z</time>
      </trkpt>
      <trkpt lat="43.64553" lon="1.37973">
        <ele>144</ele>
        <time>2024-02-11T11:02:09Z</time>
      </trkpt>
      <trkpt lat="43.64553" lon="1.37973">
        <ele>144</ele>
        <time>2024-02-11T11:02:10Z</time>
      </trkpt>
      <trkpt lat="43.64556" lon="1.37973">
        <ele>144</ele>
        <time>2024-02-11T11:02:11Z</time>
      </trkpt>
      <trkpt lat="43.64556" lon="1.37973">
        <ele>143</ele>
        <time>2024-02-11T11:02:12Z</time>
      </trkpt>
      <trkpt lat="43.64558" lon="1.37971">
        <ele>144</ele>
        <time>2024-02-11T11:02:13Z</time>
      </trkpt>
      <trkpt lat="43.64558" lon="1.37971">
        <ele>145</ele>
        <time>2024-02-11T11:02:14Z</time>
      </trkpt>
      <trkpt lat="43.64558" lon="1.37971">
        <ele>146</ele>
        <time>2024-02-11T11:02:15Z</time>
      </trkpt>
      <trkpt lat="43.6456" lon="1.37969">
        <ele>147</ele>
        <time>2024-02-11T11:02:16Z</time>
      </trkpt>
      <trkpt lat="43.6456" lon="1.37969">
        <ele>148</ele>
        <time>2024-02-11T11:02:17Z</time>
      </trkpt>
      <trkpt lat="43.64562" lon="1.37966">
        <ele>148</ele>
        <time>2024-02-11T11:02:18Z</time>
      </trkpt>
      <trkpt lat="43.64562" lon="1.37966">
        <ele>148</ele>
        <time>2024-02-11T11:02:19Z</time>
      </trkpt>
      <trkpt lat="43.64563" lon="1.37963">
        <ele>148</ele>
        <time>2024-02-11T11:02:20Z</time>
      </trkpt>
      <trkpt lat="43.64563" lon="1.37963">
        <ele>148</ele>
        <time>2024-02-11T11:02:21Z</time>
      </trkpt>
      <trkpt lat="43.64565" lon="1.3796">
        <ele>147</ele>
        <time>2024-02-11T11:02:22Z</time>
      </trkpt>
      <trkpt lat="43.64565" lon="1.3796">
        <ele>147</ele>
        <time>2024-02-11T11:02:23Z</time>
      </trkpt>
      <trkpt lat="43.64565" lon="1.37957">
        <ele>147</ele>
        <time>2024-02-11T11:02:24Z</time>
      </trkpt>
      <trkpt lat="43.64565" lon="1.37957">
        <ele>146</ele>
        <time>2024-02-11T11:02:25Z</time>
      </trkpt>
      <trkpt lat="43.64565" lon="1.37954">
        <ele>147</ele>
        <time>2024-02-11T11:02:26Z</time>
      </trkpt>
      <trkpt lat="43.64565" lon="1.37954">
        <ele>147</ele>
        <time>2024-02-11T11:02:27Z</time>
      </trkpt>
      <trkpt lat="43.64566" lon="1.37951">
        <ele>147</ele>
        <time>2024-02-11T11:02:28Z</time>
      </trkpt>
      <trkpt lat="43.64566" lon="1.37951">
        <ele>147</ele>
        <time>2024-02-11T11:02:29Z</time>
      </trkpt>
      <trkpt lat="43.64566" lon="1.37948">
        <ele>147</ele>
        <time>2024-02-11T11:02:30Z</time>
      </trkpt>
      <trkpt lat="43.64566" lon="1.37948">
        <ele>149</ele>
        <time>2024-02-11T11:02:31Z</time>
      </trkpt>
      <trkpt lat="43.64566" lon="1.37945">
        <ele>149</ele>
        <time>2024-02-11T11:02:32Z</time>
      </trkpt>
      <trkpt lat="43.64566" lon="1.37945">
        <ele>149</ele>
        <time>2024-02-11T11:02:33Z</time>
      </trkpt>
      <trkpt lat="43.64566" lon="1.37941">
        <ele>148</ele>
        <time>2024-02-11T11:02:34Z</time>
      </trkpt>
      <trkpt lat="43.64566" lon="1.37941">
        <ele>147</ele>
        <time>2024-02-11T11:02:35Z</time>
      </trkpt>
      <trkpt lat="43.64567" lon="1.37939">
        <ele>147</ele>
        <time>2024-02-11T11:02:36Z</time>
      </trkpt>
      <trkpt lat="43.64567" lon="1.37939">
        <ele>146</ele>
        <time>2024-02-11T11:02:37Z</time>
      </trkpt>
      <trkpt lat="43.64567" lon="1.37939">
        <ele>146</ele>
        <time>2024-02-11T11:02:38Z</time>
      </trkpt>
      <trkpt lat="43.64567" lon="1.37939">
        <ele>146</ele>
        <time>2024-02-11T11:02:39Z</time>
      </trkpt>
      <trkpt lat="43.64566" lon="1.37935">
        <ele>146</ele>
        <time>2024-02-11T11:02:40Z</time>
      </trkpt>
      <trkpt lat="43.64566" lon="1.37935">
        <ele>145</ele>
        <time>2024-02-11T11:02:41Z</time>
      </trkpt>
      <trkpt lat="43.64566" lon="1.37932">
        <ele>145</ele>
        <time>2024-02-11T11:02:42Z</time>
      </trkpt>
      <trkpt lat="43.64566" lon="1.37932">
        <ele>145</ele>
        <time>2024-02-11T11:02:43Z</time>
      </trkpt>
      <trkpt lat="43.64564" lon="1.3793">
        <ele>145</ele>
        <time>2024-02-11T11:02:44Z</time>
      </trkpt>
      <trkpt lat="43.64564" lon="1.3793">
        <ele>146</ele>
        <time>2024-02-11T11:02:45Z</time>
      </trkpt>
      <trkpt lat="43.64564" lon="1.37927">
        <ele>146</ele>
        <time>2024-02-11T11:02:46Z</time>
      </trkpt>
      <trkpt lat="43.64564" lon="1.37927">
        <ele>146</ele>
        <time>2024-02-11T11:02:47Z</time>
      </trkpt>
      <trkpt lat="43.64563" lon="1.37924">
        <ele>146</ele>
        <time>2024-02-11T11:02:48Z</time>
      </trkpt>
      <trkpt lat="43.64563" lon="1.37924">
        <ele>147</ele>
        <time>2024-02-11T11:02:49Z</time>
      </trkpt>
      <trkpt lat="43.64561" lon="1.37921">
        <ele>147</ele>
        <time>2024-02-11T11:02:50Z</time>
      </trkpt>
      <trkpt lat="43.64561" lon="1.37921">
        <ele>146</ele>
        <time>2024-02-11T11:02:51Z</time>
      </trkpt>
      <trkpt lat="43.6456" lon="1.37919">
        <ele>147</ele>
        <time>2024-02-11T11:02:52Z</time>
      </trkpt>
      <trkpt lat="43.6456" lon="1.37919">
        <ele>147</ele>
        <time>2024-02-11T11:02:53Z</time>
      </trkpt>
      <trkpt lat="43.64558" lon="1.37917">
        <ele>146</ele>
        <time>2024-02-11T11:02:54Z</time>
      </trkpt>
      <trkpt lat="43.64558" lon="1.37917">
        <ele>146</ele>
        <time>2024-02-11T11:02:55Z</time>
      </trkpt>
      <trkpt lat="43.64557" lon="1.37914">
        <ele>146</ele>
        <time>2024-02-11T11:02:56Z</time>
      </trkpt>
      <trkpt lat="43.64557" lon="1.37914">
        <ele>146</ele>
        <time>2024-02-11T11:02:57Z</time>
      </trkpt>
      <trkpt lat="43.64555" lon="1.37912">
        <ele>146</ele>
        <time>2024-02-11T11:02:58Z</time>
      </trkpt>
      <trkpt lat="43.64555" lon="1.37912">
        <ele>146</ele>
        <time>2024-02-11T11:02:59Z</time>
      </trkpt>
      <trkpt lat="43.64553" lon="1.37911">
        <ele>146</ele>
        <time>2024-02-11T11:03:00Z</time>
      </trkpt>
      <trkpt lat="43.64553" lon="1.37911">
        <ele>146</ele>
        <time>2024-02-11T11:03:01Z</time>
      </trkpt>
      <trkpt lat="43.64551" lon="1.37909">
        <ele>146</ele>
        <time>2024-02-11T11:03:02Z</time>
      </trkpt>
      <trkpt lat="43.64551" lon="1.37909">
        <ele>146</ele>
        <time>2024-02-11T11:03:03Z</time>
      </trkpt>
      <trkpt lat="43.64548" lon="1.37908">
        <ele>145</ele>
        <time>2024-02-11T11:03:04Z</time>
      </trkpt>
      <trkpt lat="43.64548" lon="1.37908">
        <ele>145</ele>
        <time>2024-02-11T11:03:05Z</time>
      </trkpt>
      <trkpt lat="43.64546" lon="1.37906">
        <ele>145</ele>
        <time>2024-02-11T11:03:06Z</time>
      </trkpt>
      <trkpt lat="43.64546" lon="1.37906">
        <ele>145</ele>
        <time>2024-02-11T11:03:07Z</time>
      </trkpt>
      <trkpt lat="43.64544" lon="1.37905">
        <ele>145</ele>
        <time>2024-02-11T11:03:08Z</time>
      </trkpt>
      <trkpt lat="43.64544" lon="1.37905">
        <ele>145</ele>
        <time>2024-02-11T11:03:09Z</time>
      </trkpt>
      <trkpt lat="43.64542" lon="1.37903">
        <ele>145</ele>
        <time>2024-02-11T11:03:10Z</time>
      </trkpt>
      <trkpt lat="43.64542" lon="1.37903">
        <ele>145</ele>
        <time>2024-02-11T11:03:11Z</time>
      </trkpt>
      <trkpt lat="43.6454" lon="1.37902">
        <ele>146</ele>
        <time>2024-02-11T11:03:12Z</time>
      </trkpt>
      <trkpt lat="43.6454" lon="1.37902">
        <ele>146</ele>
        <time>2024-02-11T11:03:13Z</time>
      </trkpt>
      <trkpt lat="43.64538" lon="1.379">
        <ele>146</ele>
        <time>2024-02-11T11:03:14Z</time>
      </trkpt>
      <trkpt lat="43.64538" lon="1.379">
        <ele>146</ele>
        <time>2024-02-11T11:03:15Z</time>
      </trkpt>
      <trkpt lat="43.64536" lon="1.37899">
        <ele>146</ele>
        <time>2024-02-11T11:03:16Z</time>
      </trkpt>
      <trkpt lat="43.64536" lon="1.37899">
        <ele>146</ele>
        <time>2024-02-11T11:03:17Z</time>
      </trkpt>
      <trkpt lat="43.64534" lon="1.37897">
        <ele>146</ele>
        <time>2024-02-11T11:03:18Z</time>
      </trkpt>
      <trkpt lat="43.64534" lon="1.37897">
        <ele>146</ele>
        <time>2024-02-11T11:03:19Z</time>
      </trkpt>
      <trkpt lat="43.64532" lon="1.37896">
        <ele>145</ele>
        <time>2024-02-11T11:03:20Z</time>
      </trkpt>
      <trkpt lat="43.64532" lon="1.37896">
        <ele>145</ele>
        <time>2024-02-11T11:03:21Z</time>
      </trkpt>
      <trkpt lat="43.64529" lon="1.37894">
        <ele>145</ele>
        <time>2024-02-11T11:03:22Z</time>
      </trkpt>
      <trkpt lat="43.64529" lon="1.37894">
        <ele>145</ele>
        <time>2024-02-11T11:03:23Z</time>
      </trkpt>
      <trkpt lat="43.64527" lon="1.37893">
        <ele>145</ele>
        <time>2024-02-11T11:03:24Z</time>
      </trkpt>
      <trkpt lat="43.64527" lon="1.37893">
        <ele>145</ele>
        <time>2024-02-11T11:03:25Z</time>
      </trkpt>
      <trkpt lat="43.64525" lon="1.37892">
        <ele>146</ele>
        <time>2024-02-11T11:03:26Z</time>
      </trkpt>
      <trkpt lat="43.64525" lon="1.37892">
        <ele>146</ele>
        <time>2024-02-11T11:03:27Z</time>
      </trkpt>
      <trkpt lat="43.64523" lon="1.3789">
        <ele>145</ele>
        <time>2024-02-11T11:03:28Z</time>
      </trkpt>
      <trkpt lat="43.64523" lon="1.3789">
        <ele>145</ele>
        <time>2024-02-11T11:03:29Z</time>
      </trkpt>
      <trkpt lat="43.64521" lon="1.37889">
        <ele>145</ele>
        <time>2024-02-11T11:03:30Z</time>
      </trkpt>
      <trkpt lat="43.64521" lon="1.37889">
        <ele>145</ele>
        <time>2024-02-11T11:03:31Z</time>
      </trkpt>
      <trkpt lat="43.64519" lon="1.37888">
        <ele>145</ele>
        <time>2024-02-11T11:03:32Z</time>
      </trkpt>
      <trkpt lat="43.64519" lon="1.37888">
        <ele>145</ele>
        <time>2024-02-11T11:03:33Z</time>
      </trkpt>
      <trkpt lat="43.64517" lon="1.37886">
        <ele>145</ele>
        <time>2024-02-11T11:03:34Z</time>
      </trkpt>
      <trkpt lat="43.64517" lon="1.37886">
        <ele>145</ele>
        <time>2024-02-11T11:03:35Z</time>
      </trkpt>
      <trkpt lat="43.64515" lon="1.37884">
        <ele>145</ele>
        <time>2024-02-11T11:03:36Z</time>
      </trkpt>
      <trkpt lat="43.64515" lon="1.37884">
        <ele>145</ele>
        <time>2024-02-11T11:03:37Z</time>
      </trkpt>
      <trkpt lat="43.64513" lon="1.37883">
        <ele>145</ele>
        <time>2024-02-11T11:03:38Z</time>
      </trkpt>
      <trkpt lat="43.64513" lon="1.37883">
        <ele>145</ele>
        <time>2024-02-11T11:03:39Z</time>
      </trkpt>
      <trkpt lat="43.64511" lon="1.37881">
        <ele>145</ele>
        <time>2024-02-11T11:03:40Z</time>
      </trkpt>
      <trkpt lat="43.64511" lon="1.37881">
        <ele>145</ele>
        <time>2024-02-11T11:03:41Z</time>
      </trkpt>
      <trkpt lat="43.64509" lon="1.3788">
        <ele>145</ele>
        <time>2024-02-11T11:03:42Z</time>
      </trkpt>
      <trkpt lat="43.64509" lon="1.3788">
        <ele>145</ele>
        <time>2024-02-11T11:03:43Z</time>
      </trkpt>
      <trkpt lat="43.64507" lon="1.37878">
        <ele>145</ele>
        <time>2024-02-11T11:03:44Z</time>
      </trkpt>
      <trkpt lat="43.64507" lon="1.37878">
        <ele>146</ele>
        <time>2024-02-11T11:03:45Z</time>
      </trkpt>
      <trkpt lat="43.64505" lon="1.37877">
        <ele>147</ele>
        <time>2024-02-11T11:03:46Z</time>
      </trkpt>
      <trkpt lat="43.64505" lon="1.37877">
        <ele>147</ele>
        <time>2024-02-11T11:03:47Z</time>
      </trkpt>
      <trkpt lat="43.64505" lon="1.37877">
        <ele>146</ele>
        <time>2024-02-11T11:03:48Z</time>
      </trkpt>
      <trkpt lat="43.64502" lon="1.37876">
        <ele>146</ele>
        <time>2024-02-11T11:03:49Z</time>
      </trkpt>
      <trkpt lat="43.64502" lon="1.37876">
        <ele>146</ele>
        <time>2024-02-11T11:03:50Z</time>
      </trkpt>
      <trkpt lat="43.645" lon="1.37875">
        <ele>146</ele>
        <time>2024-02-11T11:03:51Z</time>
      </trkpt>
      <trkpt lat="43.645" lon="1.37875">
        <ele>146</ele>
        <time>2024-02-11T11:03:52Z</time>
      </trkpt>
      <trkpt lat="43.64498" lon="1.37874">
        <ele>145</ele>
        <time>2024-02-11T11:03:53Z</time>
      </trkpt>
      <trkpt lat="43.64498" lon="1.37874">
        <ele>145</ele>
        <time>2024-02-11T11:03:54Z</time>
      </trkpt>
      <trkpt lat="43.64495" lon="1.37872">
        <ele>145</ele>
        <time>2024-02-11T11:03:55Z</time>
      </trkpt>
      <trkpt lat="43.64495" lon="1.37872">
        <ele>145</ele>
        <time>2024-02-11T11:03:56Z</time>
      </trkpt>
      <trkpt lat="43.64493" lon="1.37871">
        <ele>146</ele>
        <time>2024-02-11T11:03:57Z</time>
      </trkpt>
      <trkpt lat="43.64493" lon="1.37871">
        <ele>146</ele>
        <time>2024-02-11T11:03:58Z</time>
      </trkpt>
      <trkpt lat="43.64491" lon="1.37869">
        <ele>146</ele>
        <time>2024-02-11T11:03:59Z</time>
      </trkpt>
      <trkpt lat="43.64491" lon="1.37869">
        <ele>145</ele>
        <time>2024-02-11T11:04:00Z</time>
      </trkpt>
      <trkpt lat="43.64489" lon="1.37869">
        <ele>145</ele>
        <time>2024-02-11T11:04:01Z</time>
      </trkpt>
      <trkpt lat="43.64489" lon="1.37869">
        <ele>145</ele>
        <time>2024-02-11T11:04:02Z</time>
      </trkpt>
      <trkpt lat="43.64487" lon="1.37869">
        <ele>145</ele>
        <time>2024-02-11T11:04:03Z</time>
      </trkpt>
      <trkpt lat="43.64487" lon="1.37869">
        <ele>145</ele>
        <time>2024-02-11T11:04:04Z</time>
      </trkpt>
      <trkpt lat="43.64485" lon="1.3787">
        <ele>145</ele>
        <time>2024-02-11T11:04:05Z</time>
      </trkpt>
      <trkpt lat="43.64485" lon="1.3787">
        <ele>145</ele>
        <time>2024-02-11T11:04:06Z</time>
      </trkpt>
      <trkpt lat="43.64482" lon="1.3787">
        <ele>146</ele>
        <time>2024-02-11T11:04:07Z</time>
      </trkpt>
      <trkpt lat="43.64482" lon="1.3787">
        <ele>146</ele>
        <time>2024-02-11T11:04:08Z</time>
      </trkpt>
      <trkpt lat="43.6448" lon="1.3787">
        <ele>147</ele>
        <time>2024-02-11T11:04:09Z</time>
      </trkpt>
      <trkpt lat="43.6448" lon="1.3787">
        <ele>147</ele>
        <time>2024-02-11T11:04:10Z</time>
      </trkpt>
      <trkpt lat="43.64477" lon="1.37869">
        <ele>147</ele>
        <time>2024-02-11T11:04:11Z</time>
      </trkpt>
      <trkpt lat="43.64477" lon="1.37869">
        <ele>146</ele>
        <time>2024-02-11T11:04:12Z</time>
      </trkpt>
      <trkpt lat="43.64475" lon="1.37867">
        <ele>146</ele>
        <time>2024-02-11T11:04:13Z</time>
      </trkpt>
      <trkpt lat="43.64475" lon="1.37867">
        <ele>146</ele>
        <time>2024-02-11T11:04:14Z</time>
      </trkpt>
      <trkpt lat="43.64472" lon="1.37865">
        <ele>146</ele>
        <time>2024-02-11T11:04:15Z</time>
      </trkpt>
      <trkpt lat="43.64472" lon="1.37865">
        <ele>146</ele>
        <time>2024-02-11T11:04:16Z</time>
      </trkpt>
      <trkpt lat="43.64471" lon="1.37865">
        <ele>146</ele>
        <time>2024-02-11T11:04:17Z</time>
      </trkpt>
      <trkpt lat="43.64471" lon="1.37865">
        <ele>145</ele>
        <time>2024-02-11T11:04:18Z</time>
      </trkpt>
      <trkpt lat="43.64468" lon="1.37864">
        <ele>146</ele>
        <time>2024-02-11T11:04:19Z</time>
      </trkpt>
      <trkpt lat="43.64465" lon="1.37864">
        <ele>146</ele>
        <time>2024-02-11T11:04:21Z</time>
      </trkpt>
      <trkpt lat="43.64465" lon="1.37864">
        <ele>146</ele>
        <time>2024-02-11T11:04:22Z</time>
      </trkpt>
      <trkpt lat="43.64464" lon="1.37864">
        <ele>146</ele>
        <time>2024-02-11T11:04:23Z</time>
      </trkpt>
    </trkseg>
  </trk>
</gpx>